[[{"header":{"parameterUnit":"m.s-1","parameterCategory":1,"la1":31.0,"la2":29.5877,"lo1":-88.7671,"lo2":-86.6584,"dx":0.0162,"dy":0.0185,"nx":115,"ny":88,"refTime":"2022-11-28T06:00:00:Z","depth":0,"parameterNumber":2,"parameterNumberName":"U-component_of_WINDS"},"data":[0.0,0.0,0.0,0.0,0.0,0.0,0.0,0.0,0.0,0.0,0.0,0.0,0.0,0.0,0.0,0.0,0.0,0.0,0.0,0.0,0.0,0.0,0.0,0.0,0.0,0.0,0.0,0.0,0.0,0.0,0.0,0.0,0.0,0.0,0.0,0.0,0.0,0.0,0.0,0.0,0.0,0.0,0.0,0.0,0.0,0.0,0.0,0.0,0.0,0.0,0.0,0.0,0.0,0.0,0.0,0.0,0.0,0.0,0.0,0.0,0.0,0.0,0.0,0.0,0.0,0.0,0.0,0.0,0.0,0.0,0.0,0.0,0.0,0.0,0.0,0.0,0.0,0.0,0.0,0.0,0.0,0.0,0.0,0.0,0.0,0.0,0.0,0.0,0.0,0.0,0.0,0.0,0.0,0.0,0.0,0.0,0.0,0.0,0.0,0.0,0.0,0.0,0.0,0.0,0.0,0.0,0.0,0.0,0.0,0.0,0.0,0.0,0.0,0.0,0.0,0.0,0.0,0.0,0.0,0.0,0.0,0.0,0.0,0.0,0.0,0.0,0.0,0.0,0.0,0.0,0.0,0.0,0.0,0.0,0.0,0.0,0.0,0.0,0.0,0.0,0.0,0.0,0.0,0.0,0.0,0.0,0.0,0.0,0.0,0.0,0.0,0.0,0.0,0.0,0.0,0.0,0.0,0.0,0.0,0.0,0.0,0.0,0.0,0.0,0.0,0.0,0.0,0.0,0.0,0.0,0.0,0.0,0.0,0.0,0.0,0.0,0.0,0.0,0.0,0.0,0.0,0.0,0.0,0.0,0.0,0.0,0.0,0.0,0.0,0.0,0.0,0.0,0.0,0.0,0.0,0.0,0.0,0.0,0.0,0.0,0.0,0.0,0.0,0.0,0.0,0.0,0.0,0.0,0.0,0.0,0.0,0.0,0.0,0.0,0.0,0.0,0.0,0.0,0.0,0.0,0.0,0.0,0.0,0.0,0.0,0.0,0.0,0.0,0.0,0.0,0.0,0.0,0.0,0.0,0.0,0.0,0.0,0.0,0.0,0.0,0.0,0.0,0.0,0.0,0.0,0.0,0.0,0.0,0.0,0.0,0.0,0.0,0.0,0.0,0.0,0.0,0.0,0.0,0.0,0.0,0.0,0.0,0.0,0.0,0.0,0.0,0.0,0.0,0.0,0.0,0.0,0.0,0.0,0.0,0.0,0.0,0.0,0.0,0.0,0.0,0.0,0.0,0.0,0.0,0.0,0.0,0.0,0.0,0.0,0.0,0.0,0.0,0.0,0.0,0.0,0.0,0.0,0.0,0.0,0.0,0.0,0.0,0.0,0.0,0.0,0.0,0.0,0.0,0.0,0.0,0.0,0.0,0.0,0.0,0.0,0.0,0.0,0.0,0.0,0.0,0.0,0.0,0.0,0.0,0.0,0.0,0.0,0.0,0.0,0.0,0.0,0.0,0.0,0.0,0.0,0.0,0.0,0.0,0.0,0.0,0.0,0.0,0.0,0.0,0.0,0.0,0.0,0.0,0.0,0.0,0.0,0.0,0.0,0.0,0.0,0.0,0.0,0.0,0.0,0.0,0.0,0.0,0.0,0.0,0.0,0.0,0.0,0.0,0.0,0.0,0.0,0.0,0.0,0.0,0.0,0.0,0.0,0.0,0.0,0.0,0.0,0.0,0.0,0.0,0.0,0.0,0.0,0.0,0.0,0.0,0.0,0.0,0.0,0.0,0.0,0.0,0.0,0.0,0.0,0.0,0.0,0.0,0.0,0.0,0.0,0.0,0.0,0.0,0.0,0.0,0.0,0.0,0.0,0.0,0.0,0.0,0.0,0.0,0.0,0.0,0.0,0.0,0.0,0.0,0.0,0.0,0.0,0.0,0.0,0.0,0.0,0.0,0.0,0.0,0.0,0.0,0.0,0.0,0.0,0.0,0.0,0.0,0.0,0.0,0.0,0.0,0.0,0.0,0.0,0.0,0.0,0.0,0.0,0.0,0.0,0.0,0.0,0.0,0.0,0.0,0.0,0.0,0.0,0.0,0.0,0.0,0.0,0.0,0.0,0.0,0.0,0.0,0.0,0.0,0.0,0.0,0.0,0.0,0.0,0.0,0.0,0.0,0.0,0.0,0.0,0.0,0.0,0.0,0.0,0.0,0.0,0.0,0.0,0.0,0.0,0.0,0.0,0.0,0.0,0.0,0.0,0.0,0.0,0.0,0.0,0.0,0.0,0.0,0.0,0.0,0.0,0.0,0.0,0.0,0.0,0.0,0.0,0.0,0.0,0.0,0.0,0.0,0.0,0.0,0.0,0.0,0.0,0.0,0.0,0.0,0.0,0.0,0.0,0.0,0.0,0.0,0.0,0.0,0.0,0.0,0.0,0.0,0.0,0.0,0.0,0.0,0.0,0.0,0.0,0.0,0.0,0.0,0.0,0.0,0.0,0.0,0.0,0.0,0.0,0.0,0.0,0.0,0.0,0.0,0.0,0.0,0.0,0.0,0.0,0.0,0.0,0.0,0.0,0.0,0.0,0.0,0.0,0.0,0.0,0.0,0.0,0.0,0.0,0.0,0.0,0.0,0.0,0.0,0.0,0.0,0.0,0.0,0.0,0.0,0.0,0.0,0.0,0.0,0.0,0.0,0.0,0.0,0.0,0.0,0.0,0.0,0.0,0.0,0.0,0.0,0.0,0.0,0.0,0.0,0.0,0.0,0.0,0.0,0.0,0.0,0.0,0.0,0.0,0.0,0.0,0.0,0.0,0.0,0.0,0.0,0.0,0.0,0.0,0.0,0.0,0.0,0.0,0.0,0.0,0.0,0.0,0.0,0.0,0.0,0.0,0.0,0.0,0.0,0.0,0.0,0.0,0.0,0.0,0.0,0.0,0.0,0.0,0.0,0.0,0.0,0.0,0.0,0.0,0.0,0.0,0.0,0.0,0.0,0.0,0.0,0.0,0.0,0.0,0.0,0.0,0.0,0.0,0.0,0.0,0.0,0.0,0.0,0.0,0.0,0.0,0.0,0.0,0.0,0.0,0.0,0.0,0.0,0.0,0.0,0.0,0.0,0.0,0.0,0.0,0.0,0.0,0.0,0.0,0.0,0.0,0.0,0.0,0.0,0.0,0.0,0.0,0.0,0.0,0.0,0.0,0.0,0.0,0.0,0.0,0.0,0.0,0.0,0.0,0.0,0.0,0.0,0.0,0.0,0.0,0.0,0.0,0.0,0.0,0.0,0.0,0.0,0.0,0.0,0.0,0.0,0.0,0.0,0.0,0.0,0.0,0.0,0.0,0.0,0.0,0.0,0.0,0.0,0.0,0.0,0.0,0.0,0.0,0.0,0.0,0.0,0.0,0.0,0.0,0.0,0.0,0.0,0.0,0.0,0.0,0.0,0.0,0.0,0.0,0.0,0.0,0.0,0.0,0.0,0.0,0.0,0.0,0.0,0.0,0.0,0.0,0.0,0.0,0.0,0.0,0.0,0.0,0.0,0.0,0.0,0.0,0.0,0.0,0.0,0.0,0.0,0.0,0.0,0.0,0.0,0.0,0.0,0.0,0.0,0.0,0.0,0.0,0.0,0.0,0.0,0.0,0.0,0.0,0.0,0.0,0.0,0.0,0.0,0.0,0.0,0.0,0.0,0.0,0.0,0.0,0.0,0.0,0.0,0.0,0.0,0.0,0.0,0.0,0.0,0.0,0.0,0.0,0.0,0.0,0.0,0.0,0.0,0.0,0.0,0.0,0.0,0.0,0.0,0.0,0.0,0.0,0.0,0.0,0.0,0.0,0.0,0.0,0.0,0.0,0.0,0.0,0.0,0.0,0.0,0.0,0.0,0.0,0.0,0.0,0.0,0.0,0.0,0.0,0.0,0.0,0.0,0.0,0.0,0.0,0.0,0.0,0.0,0.0,0.0,0.0,0.0,0.0,0.0,0.0,0.0,0.0,0.0,0.0,0.0,0.0,0.0,0.0,0.0,0.0,0.0,0.0,0.0,0.0,0.0,0.0,0.0,0.0,0.0,0.0,0.0,0.0,0.0,0.0,0.0,0.0,0.0,0.0,0.0,0.0,0.0,0.0,0.0,0.0,0.0,0.0,0.0,0.0,0.0,0.0,0.0,0.0,0.0,0.0,0.0,0.0,0.0,0.0,0.0,0.0,0.0,0.0,0.0,0.0,0.0,0.0,0.0,0.0,0.0,0.0,0.0,0.0,0.0,0.0,0.0,0.0,0.0,0.0,0.0,-1.0496,0.0,0.0,0.0,-0.9919,0.0,0.0,0.0,0.0,0.0,0.0,0.0,0.0,0.0,0.0,0.0,0.0,0.0,0.0,0.0,0.0,0.0,0.0,0.0,0.0,0.0,0.0,0.0,0.0,0.0,0.0,0.0,0.0,0.0,0.0,0.0,0.0,0.0,0.0,0.0,0.0,0.0,0.0,0.0,0.0,0.0,0.0,0.0,0.0,0.0,0.0,0.0,0.0,0.0,0.0,0.0,0.0,0.0,0.0,0.0,0.0,0.0,0.0,0.0,0.0,0.0,0.0,0.0,0.0,0.0,0.0,0.0,0.0,0.0,0.0,0.0,0.0,0.0,0.0,0.0,0.0,0.0,0.0,0.0,0.0,0.0,0.0,0.0,0.0,0.0,0.0,0.0,0.0,0.0,0.0,0.0,0.0,0.0,0.0,0.0,0.0,0.0,0.0,0.0,0.0,0.0,0.0,0.0,0.0,0.0,0.0,0.0,0.0,0.0,0.0,-1.055,-0.9854,-1.1079,-1.1145,-0.9913,0.0,0.0,0.0,0.0,0.0,0.0,0.0,0.0,0.0,0.0,0.0,0.0,0.0,0.0,0.0,0.0,0.0,0.0,0.0,0.0,0.0,0.0,0.0,0.0,0.0,0.0,0.0,0.0,0.0,0.0,0.0,0.0,0.0,0.0,0.0,0.0,0.0,0.0,0.0,0.0,0.0,0.0,0.0,0.0,0.0,0.0,0.0,0.0,0.0,0.0,0.0,0.0,0.0,0.0,0.0,0.0,0.0,0.0,0.0,0.0,0.0,0.0,0.0,0.0,0.0,0.0,0.0,0.0,0.0,0.0,0.0,0.0,0.0,0.0,0.0,0.0,0.0,0.0,0.0,0.0,0.0,0.0,0.0,0.0,0.0,0.0,0.0,0.0,0.0,0.0,0.0,0.0,0.0,0.0,0.0,0.0,0.0,0.0,0.0,0.0,0.0,0.0,0.0,0.0,0.0,0.0,0.0,0.0,0.0,0.0,0.0,0.0,-1.137,-1.1453,-1.0133,0.0,0.0,0.0,0.0,0.0,0.0,0.0,0.0,0.0,0.0,0.0,0.0,0.0,0.0,0.0,0.0,0.0,0.0,0.0,0.0,0.0,0.0,0.0,0.0,0.0,0.0,0.0,0.0,0.0,0.0,0.0,0.0,0.0,0.0,0.0,0.0,0.0,0.0,0.0,0.0,0.0,0.0,0.0,0.0,0.0,0.0,0.0,0.0,0.0,0.0,0.0,0.0,0.0,0.0,0.0,0.0,0.0,0.0,0.0,0.0,0.0,0.0,0.0,0.0,0.0,0.0,0.0,0.0,0.0,0.0,0.0,0.0,0.0,0.0,0.0,0.0,0.0,0.0,0.0,0.0,0.0,0.0,0.0,0.0,0.0,0.0,0.0,0.0,0.0,0.0,0.0,0.0,0.0,0.0,0.0,0.0,0.0,0.0,0.0,0.0,0.0,0.0,0.0,0.0,0.0,0.0,0.0,0.0,0.0,0.0,-1.0135,-1.0785,-1.102,0.0,-1.0869,0.0,0.0,0.0,0.0,0.0,0.0,0.0,0.0,0.0,0.0,0.0,0.0,0.0,0.0,0.0,0.0,0.0,0.0,0.0,0.0,0.0,0.0,0.0,0.0,0.0,0.0,0.0,0.0,0.0,0.0,0.0,0.0,0.0,0.0,0.0,0.0,0.0,0.0,0.0,0.0,0.0,0.0,0.0,0.0,0.0,0.0,0.0,0.0,0.0,0.0,0.0,0.0,0.0,0.0,0.0,0.0,0.0,0.0,0.0,0.0,0.0,0.0,0.0,0.0,0.0,0.0,0.0,0.0,0.0,0.0,0.0,0.0,0.0,0.0,0.0,0.0,0.0,0.0,0.0,0.0,0.0,0.0,0.0,0.0,0.0,0.0,0.0,0.0,0.0,0.0,0.0,0.0,0.0,0.0,0.0,0.0,0.0,0.0,0.0,0.0,0.0,0.0,0.0,0.0,0.0,0.0,0.0,0.0,0.0,0.0,-1.1095,-1.0899,-1.0514,-1.077,0.0,0.0,0.0,0.0,0.0,0.0,0.0,0.0,0.0,0.0,0.0,0.0,0.0,0.0,0.0,0.0,0.0,0.0,0.0,0.0,0.0,0.0,0.0,0.0,0.0,0.0,0.0,0.0,0.0,0.0,0.0,0.0,0.0,0.0,0.0,0.0,0.0,0.0,0.0,0.0,0.0,0.0,0.0,0.0,0.0,0.0,0.0,0.0,0.0,0.0,0.0,0.0,0.0,0.0,0.0,0.0,0.0,0.0,0.0,0.0,0.0,0.0,0.0,0.0,0.0,0.0,0.0,0.0,0.0,0.0,0.0,0.0,0.0,0.0,0.0,0.0,0.0,0.0,0.0,0.0,0.0,0.0,0.0,0.0,0.0,0.0,0.0,0.0,0.0,0.0,0.0,0.0,0.0,0.0,0.0,0.0,0.0,0.0,0.0,0.0,0.0,0.0,0.0,0.0,0.0,0.0,0.0,0.0,0.0,0.0,-1.1241,-1.1711,-1.1344,-1.1229,-1.1356,-1.1685,0.0,0.0,0.0,0.0,0.0,0.0,0.0,0.0,0.0,0.0,0.0,0.0,0.0,0.0,0.0,0.0,0.0,0.0,0.0,0.0,0.0,0.0,0.0,0.0,0.0,0.0,0.0,0.0,0.0,0.0,0.0,0.0,0.0,0.0,0.0,0.0,0.0,0.0,0.0,0.0,0.0,0.0,0.0,0.0,0.0,0.0,0.0,0.0,0.0,0.0,0.0,0.0,0.0,0.0,0.0,0.0,0.0,0.0,0.0,0.0,0.0,0.0,0.0,0.0,0.0,0.0,0.0,0.0,0.0,0.0,0.0,0.0,0.0,0.0,0.0,0.0,0.0,0.0,0.0,0.0,0.0,0.0,0.0,0.0,0.0,0.0,0.0,0.0,0.0,0.0,0.0,0.0,0.0,0.0,0.0,0.0,0.0,0.0,0.0,0.0,0.0,0.0,0.0,0.0,0.0,0.0,0.0,0.0,-1.1564,-1.1268,-1.146,-1.238,-1.377,-1.3107,0.0,0.0,0.0,0.0,0.0,0.0,0.0,0.0,0.0,0.0,0.0,0.0,0.0,0.0,0.0,0.0,0.0,0.0,0.0,0.0,0.0,0.0,0.0,0.0,0.0,0.0,0.0,0.0,0.0,0.0,0.0,0.0,0.0,0.0,0.0,0.0,0.0,0.0,0.0,0.0,0.0,0.0,0.0,0.0,0.0,0.0,0.0,0.0,0.0,0.0,0.0,0.0,0.0,0.0,0.0,0.0,0.0,0.0,0.0,0.0,0.0,0.0,0.0,0.0,0.0,0.0,0.0,0.0,0.0,0.0,0.0,0.0,0.0,0.0,0.0,0.0,0.0,0.0,0.0,0.0,0.0,0.0,0.0,0.0,0.0,0.0,0.0,0.0,0.0,0.0,0.0,0.0,0.0,0.0,0.0,0.0,0.0,0.0,0.0,0.0,0.0,0.0,0.0,0.0,0.0,0.0,0.0,0.0,0.0,-1.0312,-1.071,-1.2237,-1.473,-1.2315,-1.1068,0.0,0.0,0.0,0.0,0.0,0.0,0.0,0.0,0.0,0.0,0.0,0.0,0.0,0.0,0.0,0.0,0.0,0.0,0.0,0.0,0.0,0.0,0.0,0.0,0.0,0.0,0.0,0.0,0.0,0.0,0.0,0.0,0.0,0.0,0.0,0.0,0.0,0.0,0.0,0.0,0.0,0.0,0.0,0.0,0.0,0.0,0.0,0.0,0.0,0.0,0.0,0.0,0.0,0.0,0.0,0.0,0.0,0.0,0.0,0.0,0.0,0.0,0.0,0.0,0.0,0.0,0.0,0.0,0.0,0.0,0.0,0.0,0.0,0.0,0.0,0.0,0.0,0.0,0.0,0.0,0.0,0.0,0.0,0.0,0.0,0.0,0.0,0.0,0.0,0.0,0.0,0.0,0.0,0.0,0.0,0.0,0.0,0.0,0.0,0.0,0.0,0.0,0.0,0.0,0.0,0.0,0.0,0.0,0.0,-1.0465,-1.1323,-1.2749,-1.4514,-1.1573,-1.0063,0.0,0.0,0.0,0.0,0.0,0.0,0.0,0.0,0.0,0.0,0.0,0.0,0.0,0.0,0.0,0.0,0.0,0.0,0.0,0.0,0.0,0.0,0.0,0.0,0.0,0.0,0.0,0.0,0.0,0.0,0.0,0.0,0.0,0.0,0.0,0.0,0.0,0.0,0.0,0.0,0.0,0.0,0.0,0.0,0.0,0.0,0.0,0.0,0.0,0.0,0.0,0.0,0.0,0.0,0.0,0.0,0.0,0.0,0.0,0.0,0.0,0.0,0.0,0.0,0.0,0.0,0.0,0.0,0.0,0.0,0.0,0.0,0.0,0.0,0.0,0.0,0.0,0.0,0.0,0.0,0.0,0.0,0.0,0.0,0.0,0.0,0.0,0.0,0.0,0.0,0.0,0.0,0.0,0.0,0.0,0.0,0.0,0.0,0.0,0.0,0.0,0.0,0.0,0.0,0.0,0.0,0.0,0.0,-1.0599,-1.2341,-1.3108,-1.2837,-1.1444,-1.1907,-1.0434,0.0,0.0,0.0,0.0,0.0,0.0,0.0,0.0,0.0,0.0,0.0,0.0,0.0,0.0,0.0,0.0,0.0,0.0,0.0,0.0,0.0,0.0,0.0,0.0,0.0,0.0,0.0,0.0,0.0,0.0,0.0,0.0,0.0,0.0,0.0,0.0,0.0,0.0,0.0,0.0,0.0,0.0,0.0,0.0,0.0,0.0,0.0,0.0,0.0,0.0,0.0,0.0,0.0,0.0,0.0,0.0,0.0,0.0,0.0,0.0,0.0,0.0,0.0,0.0,0.0,0.0,0.0,0.0,0.0,0.0,0.0,0.0,0.0,0.0,0.0,0.0,0.0,0.0,0.0,0.0,0.0,0.0,0.0,0.0,0.0,0.0,0.0,0.0,0.0,0.0,0.0,0.0,0.0,0.0,0.0,0.0,0.0,0.0,0.0,0.0,0.0,0.0,0.0,0.0,0.0,0.0,0.0,0.0,0.0,-1.0716,-1.211,-1.2657,-1.223,-1.0772,-0.9694,0.0,0.0,0.0,0.0,0.0,0.0,0.0,0.0,0.0,0.0,0.0,0.0,0.0,0.0,0.0,0.0,0.0,0.0,0.0,0.0,0.0,0.0,0.0,0.0,0.0,0.0,0.0,0.0,0.0,0.0,0.0,0.0,0.0,0.0,0.0,0.0,0.0,0.0,0.0,0.0,0.0,0.0,0.0,0.0,0.0,0.0,0.0,0.0,0.0,0.0,0.0,0.0,0.0,0.0,0.0,0.0,0.0,0.0,0.0,0.0,0.0,0.0,0.0,0.0,0.0,0.0,0.0,0.0,0.0,0.0,0.0,0.0,0.0,0.0,0.0,0.0,0.0,0.0,0.0,0.0,0.0,0.0,0.0,0.0,0.0,0.0,0.0,0.0,0.0,0.0,0.0,0.0,0.0,0.0,0.0,0.0,0.0,0.0,0.0,0.0,0.0,0.0,0.0,0.0,0.0,0.0,0.0,0.0,0.0,-1.1427,-1.3299,-1.3968,-1.3233,-1.1263,-0.9901,-0.9237,0.0,0.0,0.0,0.0,0.0,0.0,0.0,0.0,0.0,0.0,0.0,0.0,0.0,0.0,0.0,0.0,0.0,0.0,0.0,0.0,0.0,0.0,0.0,0.0,0.0,0.0,0.0,0.0,0.0,0.0,0.0,0.0,0.0,0.0,0.0,0.0,0.0,0.0,0.0,0.0,0.0,0.0,0.0,0.0,0.0,0.0,0.0,0.0,0.0,0.0,0.0,0.0,0.0,0.0,0.0,0.0,0.0,0.0,0.0,0.0,0.0,0.0,0.0,0.0,0.0,0.0,0.0,0.0,0.0,0.0,0.0,0.0,0.0,0.0,0.0,0.0,0.0,0.0,0.0,0.0,0.0,0.0,0.0,0.0,0.0,0.0,0.0,0.0,0.0,0.0,0.0,0.0,0.0,0.0,0.0,0.0,0.0,0.0,0.0,0.0,0.0,0.0,0.0,0.0,0.0,0.0,0.0,0.0,-1.3859,-1.6238,-1.6474,-1.4409,-1.3111,-1.1047,0.0,0.0,0.0,0.0,0.0,0.0,0.0,0.0,0.0,0.0,0.0,0.0,0.0,0.0,0.0,0.0,0.0,0.0,0.0,0.0,0.0,0.0,0.0,0.0,0.0,0.0,0.0,0.0,0.0,0.0,0.0,0.0,0.0,0.0,0.0,0.0,0.0,0.0,0.0,0.0,0.0,0.0,0.0,0.0,0.0,0.0,0.0,0.0,0.0,0.0,0.0,0.0,0.0,0.0,0.0,0.0,0.0,0.0,0.0,0.0,0.0,0.0,0.0,0.0,0.0,0.0,0.0,0.0,0.0,0.0,0.0,0.0,0.0,0.0,0.0,0.0,0.0,0.0,0.0,0.0,0.0,0.0,0.0,0.0,0.0,0.0,0.0,0.0,0.0,0.0,0.0,0.0,0.0,0.0,0.0,0.0,0.0,0.0,0.0,0.0,0.0,0.0,0.0,0.0,0.0,0.0,0.0,0.0,0.0,-1.4814,-1.7269,-1.8084,-1.7058,-1.447,-1.2625,0.0,0.0,0.0,0.0,0.0,0.0,0.0,0.0,0.0,0.0,0.0,0.0,0.0,0.0,0.0,0.0,0.0,0.0,0.0,0.0,0.0,0.0,0.0,0.0,0.0,0.0,0.0,0.0,0.0,0.0,0.0,0.0,0.0,0.0,0.0,0.0,0.0,0.0,0.0,0.0,0.0,0.0,0.0,0.0,0.0,0.0,0.0,0.0,0.0,0.0,0.0,0.0,0.0,0.0,0.0,0.0,0.0,0.0,0.0,0.0,0.0,0.0,0.0,0.0,0.0,0.0,0.0,0.0,0.0,0.0,0.0,0.0,0.0,0.0,0.0,0.0,0.0,0.0,0.0,0.0,0.0,0.0,0.0,0.0,0.0,0.0,0.0,0.0,0.0,0.0,0.0,0.0,0.0,0.0,0.0,0.0,0.0,0.0,0.0,0.0,0.0,0.0,0.0,0.0,0.0,0.0,0.0,0.0,-1.3333,-1.6117,-1.7855,-1.8948,-1.9403,-1.6425,-1.4199,0.0,0.0,0.0,0.0,0.0,0.0,0.0,0.0,0.0,0.0,0.0,0.0,0.0,0.0,0.0,0.0,0.0,0.0,0.0,0.0,0.0,0.0,0.0,0.0,0.0,0.0,0.0,0.0,0.0,0.0,0.0,0.0,0.0,0.0,0.0,0.0,0.0,0.0,0.0,0.0,0.0,0.0,0.0,0.0,0.0,0.0,0.0,0.0,0.0,0.0,0.0,0.0,0.0,0.0,0.0,0.0,0.0,0.0,0.0,0.0,0.0,0.0,0.0,0.0,0.0,0.0,0.0,0.0,0.0,0.0,0.0,0.0,0.0,0.0,0.0,0.0,0.0,0.0,0.0,0.0,0.0,0.0,0.0,0.0,0.0,0.0,0.0,0.0,0.0,0.0,0.0,0.0,0.0,0.0,0.0,0.0,0.0,0.0,0.0,0.0,0.0,0.0,0.0,0.0,0.0,0.0,0.0,0.0,-1.4502,-1.71,-1.785,-1.9152,-2.1029,-1.8469,-1.5767,0.0,0.0,0.0,0.0,0.0,0.0,0.0,0.0,0.0,0.0,0.0,0.0,0.0,0.0,0.0,0.0,0.0,0.0,0.0,0.0,0.0,0.0,0.0,0.0,0.0,0.0,0.0,0.0,0.0,0.0,0.0,0.0,0.0,0.0,0.0,0.0,0.0,0.0,0.0,0.0,0.0,0.0,0.0,0.0,0.0,0.0,0.0,0.0,0.0,0.0,0.0,0.0,0.0,0.0,0.0,0.0,0.0,0.0,0.0,0.0,0.0,0.0,0.0,0.0,0.0,0.0,0.0,0.0,0.0,0.0,0.0,0.0,0.0,0.0,0.0,0.0,0.0,0.0,0.0,0.0,0.0,0.0,0.0,0.0,0.0,0.0,0.0,0.0,0.0,0.0,0.0,0.0,0.0,0.0,0.0,0.0,0.0,0.0,0.0,0.0,0.0,0.0,0.0,0.0,0.0,0.0,0.0,0.0,-1.3619,-1.4879,-1.6695,-1.8558,-2.0444,-1.9108,-1.7113,0.0,0.0,0.0,0.0,0.0,0.0,0.0,0.0,0.0,0.0,0.0,0.0,0.0,0.0,0.0,0.0,0.0,0.0,0.0,0.0,0.0,0.0,0.0,0.0,0.0,0.0,0.0,0.0,0.0,0.0,0.0,0.0,0.0,0.0,0.0,0.0,0.0,0.0,0.0,0.0,0.0,0.0,0.0,0.0,0.0,0.0,0.0,0.0,-1.0347,0.0,0.0,0.0,0.0,0.0,0.0,0.0,0.0,0.0,0.0,0.0,0.0,0.0,0.0,0.0,0.0,0.0,0.0,0.0,0.0,0.0,0.0,0.0,0.0,0.0,0.0,0.0,0.0,0.0,0.0,0.0,0.0,0.0,0.0,0.0,0.0,0.0,0.0,0.0,0.0,0.0,0.0,0.0,0.0,0.0,0.0,0.0,0.0,0.0,0.0,0.0,0.0,0.0,0.0,0.0,0.0,0.0,0.0,0.0,-1.3974,-1.5459,-1.658,-1.816,-2.0139,-2.0349,-1.8693,0.0,0.0,0.0,0.0,0.0,0.0,0.0,0.0,0.0,0.0,0.0,0.0,0.0,0.0,0.0,0.0,0.0,0.0,0.0,0.0,0.0,0.0,0.0,0.0,0.0,0.0,0.0,0.0,0.0,0.0,0.0,0.0,0.0,0.0,0.0,0.0,0.0,0.0,0.0,0.0,0.0,0.0,0.0,0.0,0.0,0.0,0.0,0.0,0.0,0.0,0.0,0.0,0.0,0.0,0.0,0.0,0.0,0.0,0.0,0.0,0.0,0.0,0.0,0.0,0.0,0.0,0.0,0.0,0.0,0.0,0.0,0.0,0.0,0.0,0.0,0.0,0.0,0.0,0.0,0.0,0.0,0.0,0.0,0.0,0.0,0.0,0.0,0.0,0.0,0.0,0.0,0.0,0.0,0.0,0.0,0.0,0.0,0.0,0.0,0.0,0.0,0.0,0.0,0.0,0.0,0.0,0.0,-1.2653,-1.4534,-1.6656,-1.6964,-1.8105,-2.0187,-2.1407,-1.9825,-1.5233,0.0,0.0,0.0,0.0,0.0,0.0,0.0,0.0,0.0,0.0,0.0,0.0,0.0,0.0,0.0,0.0,0.0,0.0,0.0,0.0,0.0,0.0,0.0,0.0,0.0,0.0,0.0,0.0,0.0,0.0,0.0,0.0,0.0,0.0,0.0,0.0,0.0,0.0,-0.932,-0.9459,0.0,0.0,0.0,0.0,0.0,0.0,0.0,0.0,-1.1443,0.0,0.0,0.0,0.0,0.0,0.0,0.0,0.0,0.0,0.0,0.0,0.0,0.0,0.0,0.0,0.0,0.0,0.0,0.0,0.0,0.0,0.0,0.0,0.0,0.0,0.0,0.0,0.0,0.0,0.0,0.0,0.0,0.0,0.0,0.0,0.0,0.0,0.0,0.0,0.0,0.0,0.0,0.0,0.0,0.0,0.0,0.0,0.0,0.0,0.0,0.0,0.0,0.0,0.0,0.0,0.0,-1.2048,-1.2525,-1.3851,-1.6111,-1.7422,-1.891,-2.0576,-2.1031,-1.9241,-1.5031,0.0,0.0,0.0,0.0,0.0,0.0,0.0,0.0,0.0,0.0,0.0,0.0,0.0,0.0,0.0,0.0,0.0,0.0,0.0,0.0,0.0,0.0,0.0,0.0,0.0,0.0,0.0,0.0,0.0,0.0,0.0,0.0,0.0,0.0,0.0,0.0,0.0,0.0,0.0,-1.1893,-1.2693,0.0,0.0,0.0,0.0,0.0,0.0,0.0,0.0,-1.1753,0.0,0.0,0.0,0.0,0.0,0.0,0.0,0.0,0.0,0.0,0.0,0.0,0.0,0.0,0.0,0.0,0.0,0.0,0.0,0.0,0.0,0.0,0.0,0.0,0.0,0.0,0.0,0.0,0.0,0.0,0.0,0.0,0.0,0.0,0.0,0.0,0.0,0.0,0.0,0.0,0.0,0.0,0.0,0.0,0.0,0.0,0.0,0.0,0.0,0.0,0.0,0.0,0.0,0.0,0.0,-1.1744,-1.368,-1.5471,-1.7038,-1.7679,-1.8958,-2.0968,-2.1311,-1.9325,0.0,0.0,0.0,0.0,0.0,0.0,0.0,0.0,0.0,0.0,0.0,0.0,0.0,0.0,0.0,0.0,0.0,0.0,0.0,0.0,0.0,0.0,0.0,0.0,0.0,0.0,0.0,0.0,0.0,0.0,0.0,0.0,0.0,0.0,0.0,0.0,0.0,0.0,0.0,0.0,-1.2215,-1.315,-1.4848,0.0,0.0,0.0,0.0,0.0,0.0,-1.2926,-1.2349,0.0,0.0,0.0,0.0,0.0,0.0,0.0,0.0,0.0,0.0,0.0,0.0,0.0,0.0,0.0,0.0,0.0,0.0,0.0,0.0,0.0,0.0,0.0,0.0,0.0,0.0,0.0,0.0,0.0,0.0,0.0,0.0,0.0,0.0,0.0,0.0,0.0,0.0,0.0,0.0,0.0,0.0,0.0,0.0,0.0,0.0,0.0,0.0,0.0,0.0,0.0,0.0,0.0,0.0,0.0,-1.1478,-1.4626,-1.7063,-1.8531,-1.8447,-1.9506,-2.1861,-2.1873,-1.9628,0.0,0.0,0.0,0.0,0.0,0.0,0.0,0.0,0.0,0.0,0.0,0.0,0.0,0.0,0.0,0.0,0.0,0.0,0.0,0.0,0.0,0.0,0.0,0.0,0.0,0.0,0.0,0.0,0.0,0.0,0.0,0.0,0.0,0.0,0.0,0.0,0.0,0.0,0.0,0.0,0.0,-1.4318,-1.5402,-1.3895,0.0,0.0,0.0,0.0,-1.4198,-1.446,0.0,0.0,0.0,0.0,0.0,0.0,0.0,0.0,0.0,0.0,0.0,0.0,0.0,0.0,0.0,0.0,0.0,0.0,0.0,0.0,0.0,0.0,0.0,0.0,0.0,0.0,0.0,0.0,0.0,0.0,0.0,0.0,0.0,0.0,0.0,0.0,0.0,0.0,0.0,0.0,0.0,0.0,0.0,0.0,0.0,0.0,0.0,0.0,0.0,0.0,0.0,0.0,0.0,0.0,0.0,0.0,-1.1962,-1.4222,-1.698,-2.02,-2.0682,-2.1856,-2.3876,-2.2564,-1.9857,0.0,0.0,0.0,0.0,0.0,0.0,0.0,0.0,0.0,0.0,0.0,0.0,0.0,0.0,0.0,0.0,0.0,0.0,0.0,0.0,0.0,0.0,0.0,0.0,0.0,0.0,0.0,0.0,0.0,0.0,0.0,0.0,0.0,0.0,0.0,0.0,0.0,0.0,0.0,0.0,0.0,-1.8751,-2.0563,-1.9183,-1.6561,0.0,0.0,-1.9386,-1.8054,-1.9352,0.0,0.0,0.0,0.0,0.0,0.0,0.0,0.0,0.0,0.0,0.0,0.0,0.0,0.0,0.0,0.0,0.0,0.0,0.0,0.0,0.0,0.0,0.0,0.0,0.0,0.0,0.0,0.0,0.0,0.0,0.0,0.0,0.0,0.0,0.0,0.0,0.0,0.0,0.0,0.0,0.0,0.0,0.0,0.0,0.0,0.0,0.0,0.0,0.0,0.0,0.0,0.0,0.0,0.0,0.0,-1.0957,-1.2194,-1.5906,-1.874,-2.0539,-2.1465,-2.2717,-2.4404,-2.3003,-2.0257,0.0,0.0,0.0,0.0,0.0,0.0,0.0,0.0,0.0,0.0,0.0,0.0,0.0,0.0,0.0,0.0,0.0,0.0,0.0,0.0,0.0,0.0,0.0,0.0,0.0,0.0,0.0,0.0,0.0,0.0,0.0,0.0,0.0,0.0,0.0,0.0,0.0,0.0,0.0,0.0,0.0,0.0,-2.0396,-1.8718,0.0,0.0,0.0,-1.9965,-1.7961,0.0,0.0,0.0,0.0,0.0,0.0,0.0,0.0,0.0,0.0,0.0,0.0,0.0,0.0,0.0,0.0,0.0,0.0,0.0,0.0,0.0,0.0,0.0,0.0,0.0,0.0,0.0,0.0,0.0,0.0,0.0,0.0,0.0,0.0,0.0,0.0,0.0,0.0,0.0,0.0,0.0,0.0,0.0,0.0,0.0,0.0,0.0,0.0,0.0,0.0,0.0,0.0,0.0,0.0,0.0,0.0,0.0,-1.2033,-1.7009,-1.9985,-2.0777,-2.1979,-2.3462,-2.518,-2.4068,0.0,0.0,0.0,0.0,0.0,0.0,0.0,0.0,0.0,0.0,0.0,0.0,0.0,0.0,0.0,0.0,0.0,0.0,0.0,0.0,0.0,0.0,0.0,0.0,0.0,0.0,0.0,-0.5064,0.0,0.0,0.0,0.0,0.0,0.0,0.0,0.0,0.0,0.0,0.0,0.0,0.0,0.0,-1.5994,-1.8791,-1.7777,-1.6109,0.0,0.0,-2.0462,-1.9674,-2.2743,-2.3099,0.0,0.0,0.0,0.0,0.0,0.0,0.0,0.0,0.0,0.0,0.0,0.0,0.0,0.0,0.0,0.0,0.0,0.0,0.0,0.0,0.0,0.0,0.0,0.0,0.0,0.0,0.0,0.0,0.0,0.0,0.0,0.0,0.0,0.0,0.0,0.0,0.0,0.0,0.0,0.0,0.0,0.0,0.0,0.0,0.0,0.0,0.0,0.0,0.0,0.0,0.0,0.0,0.0,0.0,-1.1479,-1.1692,-1.6376,-1.975,-2.1482,-2.2651,-2.4473,-2.6976,-2.6368,-2.3202,0.0,0.0,0.0,0.0,0.0,0.0,0.0,0.0,0.0,0.0,0.0,0.0,0.0,0.0,0.0,0.0,0.0,0.0,0.0,0.0,0.0,0.0,0.0,0.0,0.0,0.0,0.0,0.0,0.0,0.0,0.0,0.0,0.0,0.0,0.0,0.0,0.0,0.0,0.0,0.0,0.0,-1.6374,-1.6611,-1.7787,-1.9291,0.0,-2.1106,-2.2158,-2.5811,-2.7818,-2.6425,-1.8851,0.0,0.0,0.0,0.0,0.0,0.0,0.0,0.0,0.0,0.0,0.0,0.0,0.0,0.0,0.0,0.0,0.0,0.0,0.0,0.0,0.0,0.0,0.0,0.0,0.0,0.0,0.0,0.0,0.0,0.0,0.0,0.0,0.0,0.0,0.0,0.0,0.0,0.0,0.0,0.0,0.0,0.0,0.0,0.0,0.0,0.0,0.0,0.0,0.0,0.0,0.0,0.0,0.0,-1.1724,-1.1568,-1.6916,-2.0346,-2.1705,-2.3406,-2.5413,-2.7793,-2.726,-2.4516,0.0,0.0,0.0,0.0,0.0,0.0,0.0,0.0,0.0,0.0,0.0,0.0,0.0,0.0,0.0,0.0,0.0,0.0,0.0,0.0,0.0,0.0,0.0,0.0,0.0,0.0,0.0,0.0,-0.598,-0.6095,-0.6526,0.0,0.0,0.0,0.0,0.0,0.0,0.0,0.0,0.0,0.0,-1.6788,-1.9066,-2.3485,0.0,0.0,-2.4047,-2.5051,-2.4512,-2.5962,-2.4706,-1.7592,-1.5448,0.0,0.0,0.0,0.0,0.0,0.0,0.0,0.0,0.0,0.0,0.0,0.0,0.0,0.0,0.0,0.0,0.0,0.0,0.0,0.0,0.0,0.0,0.0,0.0,0.0,0.0,0.0,0.0,0.0,0.0,0.0,0.0,0.0,0.0,0.0,0.0,0.0,0.0,0.0,0.0,0.0,0.0,0.0,0.0,0.0,0.0,0.0,0.0,0.0,0.0,0.0,0.0,-1.1744,-1.1536,-1.6982,-2.0492,-2.1867,-2.3856,-2.5971,-2.8142,-2.8249,-2.6079,0.0,0.0,0.0,0.0,0.0,0.0,0.0,0.0,0.0,0.0,0.0,0.0,0.0,0.0,0.0,0.0,0.0,0.0,0.0,0.0,0.0,0.0,0.0,0.0,0.0,0.0,0.0,0.0,-0.6263,-0.6275,-0.6431,0.0,0.0,0.0,0.0,0.0,0.0,0.0,0.0,0.0,0.0,-1.7616,-2.121,-2.6069,-2.7757,-2.3305,-2.3634,-2.3896,-2.2506,-2.3243,-2.2195,-1.7154,0.0,0.0,0.0,0.0,0.0,0.0,0.0,0.0,0.0,0.0,0.0,0.0,0.0,0.0,0.0,0.0,0.0,0.0,0.0,0.0,0.0,0.0,0.0,0.0,0.0,0.0,0.0,-0.6458,0.0,0.0,-0.5121,0.0,0.0,0.0,0.0,0.0,0.0,0.0,0.0,0.0,0.0,0.0,0.0,0.0,0.0,0.0,0.0,0.0,0.0,0.0,0.0,0.0,0.0,-1.1395,-1.1545,-1.635,-1.9939,-2.215,-2.3872,-2.5962,-2.8305,-2.9582,-2.7938,-2.3047,0.0,0.0,0.0,0.0,0.0,0.0,0.0,0.0,0.0,0.0,0.0,0.0,0.0,0.0,0.0,0.0,0.0,0.0,0.0,0.0,0.0,0.0,0.0,0.0,0.0,0.0,-0.4537,-0.6249,-0.7035,0.0,0.0,0.0,0.0,0.0,0.0,0.0,0.0,0.0,-1.3631,-1.6176,-1.8905,-2.2314,-2.386,-2.4166,-2.2732,-1.9086,-1.7456,-2.0783,-2.0496,-1.9468,0.0,0.0,0.0,0.0,0.0,0.0,0.0,0.0,0.0,0.0,0.0,0.0,0.0,0.0,0.0,0.0,0.0,0.0,0.0,0.0,0.0,0.0,0.0,0.0,0.0,0.0,0.0,-1.1127,-0.9633,0.0,0.0,0.0,0.0,0.0,0.0,0.0,0.0,0.0,0.0,0.0,-1.4958,-1.5171,0.0,0.0,0.0,0.0,0.0,0.0,0.0,0.0,0.0,0.0,0.0,0.0,-1.1485,-1.1562,-1.6504,-2.0032,-2.1812,-2.3843,-2.5959,-2.8146,-2.9653,-2.8112,-2.3144,0.0,0.0,0.0,0.0,0.0,0.0,0.0,0.0,0.0,0.0,0.0,0.0,0.0,0.0,0.0,0.0,0.0,0.0,0.0,0.0,0.0,0.0,0.0,0.0,0.0,-0.3827,0.0,0.0,0.0,0.0,0.0,0.0,0.0,0.0,0.0,0.0,0.0,-1.2249,-1.4493,-1.5966,-1.8846,-2.437,-2.2885,-2.1023,0.0,0.0,0.0,0.0,0.0,0.0,0.0,0.0,0.0,0.0,0.0,0.0,0.0,0.0,-1.3671,-1.0219,-1.0334,-1.0936,-1.0833,0.0,0.0,0.0,0.0,0.0,0.0,0.0,0.0,0.0,0.0,0.0,0.0,0.0,0.0,-1.3569,0.0,-1.2387,0.0,0.0,0.0,0.0,0.0,0.0,0.0,0.0,-1.6325,-1.7525,-1.8236,-1.8349,-1.7793,0.0,-1.5703,-1.3628,0.0,0.0,0.0,0.0,0.0,0.0,0.0,0.0,-1.1585,-1.2428,-1.6604,-1.9834,-2.177,-2.375,-2.5841,-2.8028,-2.9132,-2.7991,-2.4414,-1.9918,-1.6943,0.0,0.0,0.0,0.0,0.0,0.0,0.0,0.0,0.0,0.0,0.0,0.0,0.0,0.0,0.0,0.0,0.0,0.0,0.0,0.0,0.0,0.0,0.0,-0.472,0.0,0.0,0.0,0.0,0.0,0.0,0.0,0.0,0.0,-1.0433,-1.2183,-1.421,-1.6364,-1.6965,-1.8826,-2.3189,0.0,0.0,0.0,0.0,0.0,0.0,0.0,-1.4265,-1.2873,-1.3099,-1.5059,-1.9956,-1.6258,-1.4411,-1.9854,0.0,0.0,-1.3762,-1.3591,-1.4053,-1.3491,-1.3734,-1.3685,-1.2583,-1.1987,-1.1234,0.0,0.0,0.0,0.0,0.0,0.0,0.0,0.0,-1.6289,-1.5431,0.0,-1.4806,0.0,0.0,0.0,0.0,-1.158,-1.4533,0.0,0.0,-2.2022,-2.3507,-2.2957,-2.1917,-2.1308,-2.0947,-1.8946,-1.7343,-1.6092,-1.4401,0.0,0.0,0.0,0.0,0.0,0.0,-1.184,-1.4214,-1.6619,-1.9206,-2.202,-2.3541,-2.5524,-2.7959,-2.8139,-2.7711,-2.666,-2.1908,-2.0002,-2.1528,-1.1422,0.0,0.0,0.0,0.0,0.0,0.0,0.0,0.0,0.0,0.0,0.0,0.0,0.0,0.0,0.0,0.0,0.0,0.0,0.0,0.0,-0.6174,0.0,0.0,0.0,0.0,0.0,0.0,0.0,0.0,0.0,0.0,-1.2154,-1.3506,-1.5699,-1.8783,0.0,0.0,0.0,0.0,-1.5304,-1.3889,-1.1962,-1.0925,-1.104,-1.3024,-1.5306,-1.7568,0.0,0.0,-2.6117,-2.6555,-2.5948,-2.5303,-2.4891,-2.3592,-1.8778,-1.7248,-1.64,-1.5325,-1.5452,-1.4987,-1.3777,-1.5281,-1.6417,-1.9078,0.0,0.0,0.0,0.0,-1.6801,-1.811,-2.0508,-1.9832,-1.8969,-1.8071,-1.8208,0.0,0.0,0.0,0.0,0.0,0.0,-1.8512,-2.103,-2.1301,-2.252,-2.4516,-2.3404,-2.2758,-2.2476,-2.168,-2.0863,-2.006,-1.9207,-1.558,-0.9435,0.0,0.0,0.0,0.0,-1.4114,-1.419,-1.6561,-1.8811,-2.0661,-2.1967,-2.4179,-2.737,-2.7199,-2.6948,-2.6715,-2.3554,-2.1213,-1.9914,-1.7362,0.0,0.0,0.0,0.0,0.0,0.0,0.0,0.0,0.0,0.0,0.0,0.0,0.0,0.0,0.0,0.0,0.0,0.0,0.0,-0.503,-0.5909,-0.6471,0.0,0.0,0.0,0.0,0.0,0.0,0.0,0.0,0.0,-1.4846,-1.4831,-1.4904,0.0,0.0,-1.4857,-1.6525,-1.6667,-1.7254,-1.897,-1.7917,0.0,-1.9084,-1.8001,-1.7288,-1.8206,-2.0178,-2.1459,-2.0992,-2.411,-2.6245,-2.4823,-2.4297,-2.3671,-2.2919,-2.1431,-2.0318,-1.999,-2.0017,-1.974,-1.8726,-1.8682,-1.8446,-2.2057,-2.0541,-1.8862,-1.8827,-1.9857,-1.9438,-2.079,-2.3277,-2.268,-2.1999,-2.1331,-2.1632,-1.9775,-1.6379,-1.575,0.0,0.0,0.0,-2.0417,-2.302,-2.2536,-2.3342,-2.5111,-2.4293,-2.3724,-2.3465,-2.26,-2.1976,-2.1595,-2.0924,-1.7738,-1.2459,0.0,0.0,-1.0303,-1.3335,-1.4977,-1.499,-1.6709,-1.8429,-2.0099,-2.2015,-2.413,-2.6397,-2.6488,-2.6238,-2.5665,-2.3907,-2.2065,-2.0234,-2.0133,-1.827,0.0,0.0,0.0,0.0,0.0,0.0,0.0,0.0,0.0,0.0,0.0,-0.5393,-0.5409,0.0,0.0,0.0,-0.6804,-0.675,-0.6975,-0.7214,0.0,0.0,0.0,0.0,0.0,0.0,0.0,-0.9905,-1.2234,-1.4505,-1.6126,-1.5881,-1.5844,-1.6688,-1.6478,-1.6268,-1.6353,0.0,-1.9421,-2.1084,-2.0144,-1.9719,-2.1011,-2.061,-2.0481,-2.1541,-2.2524,-2.2885,-2.2043,-2.4486,-2.5911,-2.4744,-2.3894,-2.3595,-2.4063,-2.3062,-2.2117,-2.1921,-2.1668,-2.1109,-1.9913,-1.9315,-1.8779,-2.441,-2.4059,-2.1176,-2.0877,-2.2297,-2.2389,-2.3295,-2.4704,-2.4764,-2.4393,-2.3779,-2.459,-2.2897,-1.9294,-1.7818,0.0,-2.1479,-2.1495,-2.2674,-2.4721,-2.5107,-2.5387,-2.5463,-2.4801,-2.4312,-2.4077,-2.2332,-2.1484,-2.1425,-2.0458,-1.8952,-1.6965,-1.6282,-1.5194,-1.3758,-1.4141,-1.5117,-1.6613,-1.7048,-1.8185,-2.0132,-2.3048,-2.4819,-2.5319,-2.5863,-2.5523,-2.4138,-2.3361,-2.2558,-2.1706,-2.0411,-1.9426,-1.8713,0.0,0.0,0.0,0.0,0.0,0.0,0.0,0.0,0.0,0.0,0.0,0.0,0.0,0.0,0.0,-0.905,0.0,-1.0719,-0.9627,0.0,0.0,0.0,-0.9242,-1.0881,-1.1458,-1.2048,-1.2907,0.0,0.0,-1.6511,-1.6703,-1.7894,-2.1009,-2.1585,-2.0599,-1.7543,-1.9806,-2.1629,-2.1131,-2.0081,-1.9336,-2.0069,-2.1782,-2.3866,-2.5622,-2.6469,-2.6198,-2.6147,-2.6158,-2.5791,-2.4583,-2.3709,-2.3172,-2.3172,-2.2741,-2.2235,-2.1696,-2.1229,-2.0343,-1.8973,-1.8631,-1.8297,-2.4192,-2.4227,-2.3435,-2.3512,-2.4166,-2.4181,-2.4469,-2.4903,-2.4842,-2.4681,-2.4544,-2.4689,-2.4218,-2.3304,-2.3025,-2.3253,-2.3898,-2.4633,-2.5559,-2.6517,-2.6355,-2.6618,-2.7187,-2.5561,-2.452,-2.4043,-2.3033,-2.2033,-2.1134,-2.081,-2.0129,-1.9103,-1.8614,-1.7227,-1.5114,-1.6856,-1.7798,-1.7792,-1.7561,-1.8166,-1.9656,-2.2271,-2.3741,-2.3979,-2.4591,-2.4619,-2.3964,-2.3139,-2.239,-2.1669,-1.9192,-1.7871,-1.8056,-1.1709,0.0,0.0,0.0,0.0,0.0,0.0,0.0,0.0,0.0,-0.6727,-0.6457,0.0,-0.7533,0.0,-1.1104,-1.1782,-1.0816,-1.1509,0.0,0.0,-1.0876,-1.0878,-1.2278,-1.3095,-1.3448,-1.3185,-1.4602,-1.5923,-1.6774,-1.7367,-1.8627,-2.096,-2.0425,-1.899,-1.7088,-2.0717,-2.313,-2.1976,-2.2886,-2.4074,-2.3891,-2.4461,-2.5083,-2.5855,-2.5941,-2.603,-2.6434,-2.631,-2.5605,-2.3709,-2.2498,-2.2049,-2.2374,-2.2081,-2.1663,-2.1192,-2.122,-2.1091,-1.9917,-1.9623,-1.9228,-2.4077,-2.4192,-2.421,-2.4355,-2.4623,-2.4719,-2.4861,-2.4996,-2.4917,-2.4889,-2.487,-2.4865,-2.4865,-2.4898,-2.5,-2.4974,-2.4894,-2.5399,-2.5974,-2.6485,-2.6577,-2.7019,-2.7706,-2.6447,-2.5497,-2.4829,-2.3893,-2.272,-2.1444,-2.1275,-2.0877,-2.0224,-1.9797,-1.9003,-1.7945,-1.8656,-1.8491,-1.7324,-1.8277,-1.9233,-2.0202,-2.1955,-2.2399,-2.1435,-2.2616,-2.2364,-2.0499,-2.0594,-2.0058,-1.8726,-1.6848,-1.595,-1.6142,-1.1712,-0.9576,0.0,0.0,0.0,0.0,0.0,0.0,0.0,0.0,0.0,0.0,0.0,-0.823,-0.9198,-1.1475,-1.2406,-1.1206,-1.2174,-1.296,-1.3058,-1.2734,-1.2987,-1.4232,-1.4918,-1.5277,-1.5145,-1.6153,-1.7193,-1.8011,-1.8579,-1.949,-2.1083,-2.0549,-1.9959,-1.9894,-2.2286,-2.379,-2.3203,-2.3959,-2.4792,-2.5057,-2.5051,-2.5121,-2.5351,-2.5253,-2.5346,-2.6187,-2.5954,-2.502,-2.3246,-2.2077,-2.1589,-2.2016,-2.167,-2.1077,-2.0458,-2.0194,-1.9965,-1.9349,-1.8785,-1.8112,-2.3955,-2.4016,-2.4096,-2.4192,-2.4239,-2.4409,-2.4659,-2.495,-2.495,-2.4964,-2.4991,-2.5051,-2.5088,-2.5101,-2.5145,-2.5168,-2.5164,-2.5164,-2.5454,-2.5987,-2.6517,-2.7141,-2.7775,-2.7319,-2.6634,-2.5772,-2.4706,-2.3377,-2.1948,-2.1731,-2.1366,-2.0847,-2.0473,-2.0365,-2.0535,-1.9764,-1.8512,-1.682,-1.8984,-2.0295,-2.0627,-2.1434,-2.0776,-1.8781,-2.0417,-1.9824,-1.6632,-1.7635,-1.735,-1.5349,-1.4616,-1.4169,-1.393,-1.271,-1.186,0.0,-1.0715,0.0,0.0,0.0,0.0,0.0,0.0,0.0,0.0,-0.887,-0.8746,-0.8889,-1.1296,-1.2623,-1.2128,-1.2733,-1.3693,-1.4916,-1.4891,-1.5167,-1.6114,-1.6509,-1.6901,-1.7251,-1.7689,-1.8346,-1.9052,-1.9608,-2.0221,-2.0891,-2.1023,-2.1411,-2.2802,-2.3317,-2.3691,-2.4328,-2.3779,-2.3676,-2.4133,-2.4358,-2.4567,-2.4768,-2.4583,-2.467,-2.577,-2.5214,-2.4225,-2.2934,-2.1793,-2.1313,-2.1766,-2.1188,-2.0434,-1.9414,-1.8756,-1.8244,-1.7972,-1.7335,-1.6488,-2.3765,-2.3976,-2.3852,-2.3635,-2.3419,-2.3285,-2.3828,-2.4753,-2.4753,-2.4865,-2.4996,-2.5023,-2.5018,-2.5018,-2.5038,-2.5386,-2.5977,-2.6024,-2.6703,-2.7866,-2.7847,-2.817,-2.8743,-2.7972,-2.697,-2.5877,-2.4992,-2.3683,-2.1982,-2.1969,-2.1613,-2.1063,-2.1002,-2.0318,-1.9092,0.0,0.0,0.0,-1.8909,-1.861,-1.8725,-1.8747,-1.8507,-1.8013,-1.9116,0.0,-1.8202,-1.8297,-1.7936,-1.6952,-1.5564,0.0,0.0,0.0,0.0,0.0,0.0,0.0,0.0,0.0,0.0,0.0,-0.8653,-0.8682,-0.8944,-0.9862,-1.0439,-1.0586,-1.2364,-1.3813,-1.4517,-1.5325,-1.5838,-1.6009,-1.6261,-1.6409,-1.6324,-1.6667,-1.6803,-1.6342,-1.7194,-1.7791,-1.7881,-1.8955,-1.9877,-2.0025,-2.0488,-2.1251,-2.2175,-2.2509,-2.277,-2.3054,-2.3113,-2.326,-2.3333,-2.3623,-2.3879,-2.4147,-2.4131,-2.423,-2.4688,-2.4039,-2.304,-2.188,-2.0696,-1.9978,-2.0054,-1.9888,-1.9448,-1.8232,-1.7523,-1.7146,-1.7101,-1.6877,-1.6616,-2.3024,-2.3157,-2.2695,-2.2422,0.0,-2.2228,-2.2592,-2.3252,-2.3742,-2.4233,-2.4704,-2.4832,-2.4832,-2.4753,-2.4783,-2.5235,-2.5992,-2.5623,-2.6451,-2.8146,-2.7288,-2.7653,-2.9034,-2.8195,-2.7214,-2.6126,-2.5664,-2.4395,-2.2483,-2.2419,-2.2116,-2.1566,-2.1423,-2.1062,-2.0505,-2.1202,-2.1272,-2.0668,-2.0154,-1.9879,-1.9844,-2.0156,-1.933,-1.7344,-1.8648,0.0,0.0,0.0,0.0,0.0,0.0,0.0,0.0,0.0,0.0,-1.4526,-1.2845,-1.1315,-1.0349,-0.9676,-0.9396,-0.9562,-0.953,-0.951,-0.9613,-1.0223,-1.0733,-1.1239,-1.2558,-1.3712,-1.4394,-1.528,-1.5768,-1.57,-1.5988,-1.6076,-1.5869,-1.6516,-1.6785,-1.6369,-1.7206,-1.7773,-1.7495,-1.8213,-1.892,-1.9093,-1.9472,-2.0067,-2.0921,-2.1554,-2.1908,-2.1846,-2.2575,-2.292,-2.2663,-2.2844,-2.3187,-2.3566,-2.3363,-2.3391,-2.3894,-2.3143,-2.2039,-2.0881,-1.9747,-1.9069,-1.9206,-1.8967,-1.8298,-1.7246,-1.6053,-1.5429,-1.5565,-1.5796,-1.5911,-2.2111,-2.212,-2.1516,-2.1236,-2.1185,-2.1259,-2.1334,-2.1528,0.0,0.0,0.0,-2.4604,-2.4645,-2.453,-2.4729,-2.5269,-2.5945,-2.5209,-2.6076,-2.8114,-2.6562,-2.6965,-2.8993,-2.8452,-2.765,-2.6691,-2.6421,-2.5211,-2.3157,-2.2822,-2.2513,-2.2175,-2.1773,-2.1905,-2.251,-2.2173,-2.1589,-2.0891,-2.1092,-2.1181,-2.1133,-2.0645,-1.8775,-1.538,-1.6812,-1.614,-1.3107,-1.4893,-1.5579,-1.4763,-1.4705,-1.3406,-1.0691,-1.3,-1.5699,-1.8116,-1.5934,-1.3968,-1.2917,-1.1964,-1.1131,-1.0466,-1.0147,-1.003,-1.0254,-1.0225,-1.0567,-1.1348,-1.2315,-1.3081,-1.3521,-1.4429,-1.5084,-1.5291,-1.5426,-1.5482,-1.5544,-1.6341,-1.6822,-1.6444,-1.7242,-1.7798,-1.7315,-1.7745,-1.8037,-1.8331,-1.8545,-1.879,-1.9569,-2.0584,-2.1118,-2.0871,-2.1704,-2.2328,-2.2016,-2.2109,-2.2512,-2.2979,-2.2603,-2.242,-2.2859,-2.2356,-2.1251,-2.0093,-1.9016,-1.8555,-1.8602,-1.8024,-1.7135,-1.6301,-1.4796,-1.3692,-1.4043,-1.4323,-1.4619,-2.1221,-2.1286,-2.1223,-2.0852,-2.0281,-2.0354,-2.0445,-2.0659,-2.2414,-2.3287,-2.3502,-2.4211,-2.4545,-2.4617,-2.5356,-2.6141,-2.6854,-2.6153,-2.6988,-2.9015,-2.7455,-2.7621,-2.9233,-2.9262,-2.8738,-2.7775,-2.7076,-2.5944,-2.4413,-2.2934,-2.2429,-2.279,-2.222,-2.2094,-2.2735,-2.1936,-2.1309,-2.0938,-1.994,-1.9485,-1.9618,-1.4076,-1.0889,-1.0382,-1.0392,-1.0295,-1.0005,-1.3965,-1.6277,-1.6364,-1.6523,-1.6399,-1.611,-1.6801,-1.7672,-1.8348,-1.6975,-1.4983,-1.2551,-1.2842,-1.2506,-1.102,-0.9972,-0.9509,-0.9697,-1.0069,-1.0538,-1.1115,-1.1785,-1.2535,-1.3401,-1.4092,-1.4887,-1.5834,-1.5794,-1.5889,-1.655,-1.6715,-1.657,-1.5961,-1.7018,-1.7343,-1.6522,-1.7451,-1.8154,-1.7946,-1.7761,-1.7996,-1.8431,-1.9722,-2.0459,-2.0422,-2.0795,-2.1175,-2.104,-2.1452,-2.1736,-2.236,-2.1857,-2.1749,-2.2678,-2.1615,-2.0408,-1.9798,-1.8792,-1.8038,-1.7401,-1.6968,-1.6234,-1.5216,-1.4282,-1.3743,-1.3122,-1.294,-1.3114,-2.0092,-1.9957,-1.9661,-1.9396,-1.9194,-1.9453,-1.9595,-1.977,-2.1053,-2.1909,-2.2458,-2.3388,-2.3776,-2.3764,-2.4166,-2.5056,-2.6191,-2.5015,-2.576,-2.7828,-2.6823,-2.7214,-2.8765,-2.8933,-2.8464,-2.7568,-2.7177,-2.5857,-2.3814,-2.2831,-2.2285,-2.1856,-1.9294,-1.7962,-1.7941,-1.537,-1.3882,-1.3779,-1.5397,-1.6216,-1.6107,-1.0724,-0.7651,-0.7188,-0.6756,-0.6392,-0.6191,-1.0898,-1.3711,-1.4176,-1.6971,-1.8676,-1.8971,-1.9046,-1.905,-1.9005,-1.7807,-1.6334,-1.4579,-1.3606,-1.2435,-1.0881,-1.033,-0.9933,-0.9716,-0.9892,-1.0332,-1.1081,-1.1496,-1.1971,-1.2594,-1.3379,-1.4149,-1.4699,-1.4971,-1.5246,-1.5599,-1.6103,-1.608,-1.5635,-1.626,-1.6559,-1.5842,-1.6394,-1.6834,-1.6535,-1.6497,-1.6524,-1.6605,-1.6735,-1.726,-1.8115,-1.8795,-1.9172,-1.9233,-1.9534,-1.9947,-2.0457,-2.03,-2.069,-2.1657,-2.0656,-1.9078,-1.7761,-1.7302,-1.7045,-1.6244,-1.6026,-1.5507,-1.4815,-1.3872,-1.3199,-1.2634,-1.2274,-1.2158,-1.8937,-1.8756,-1.8284,-1.8194,-1.8393,-1.877,-1.8966,-1.9104,-1.979,-2.0477,-2.122,-2.2362,-2.2841,-2.283,-2.3231,-2.4134,-2.5042,-2.4279,-2.4945,-2.6748,-2.6184,-2.6697,-2.8131,-2.8294,-2.7951,-2.7277,-2.704,-2.5783,-2.3756,-2.2937,-2.1552,-1.9565,-1.6378,-1.4219,-1.2966,-0.9519,-0.7675,-0.7686,-0.9627,-1.1131,-1.1938,-0.732,-0.4425,-0.3813,-0.3064,-0.2505,-0.2295,-0.785,-1.138,-1.2221,-1.6984,-1.9946,-2.032,-2.0139,-1.9844,-1.9458,-1.8614,-1.7695,-1.6699,-1.4371,-1.2513,-1.1424,-1.0983,-1.0657,-1.0399,-1.0225,-1.0351,-1.0999,-1.1452,-1.1785,-1.2077,-1.2786,-1.3409,-1.3699,-1.41,-1.4477,-1.4668,-1.523,-1.5519,-1.5137,-1.5581,-1.5822,-1.5383,-1.5327,-1.5423,-1.5305,-1.5228,-1.5236,-1.4919,-1.4148,-1.4401,-1.559,-1.6798,-1.7496,-1.7484,-1.7689,-1.8141,-1.8505,-1.849,-1.923,-2.0125,-1.951,-1.7757,-1.611,-1.5968,-1.5843,-1.5225,-1.4932,-1.4688,-1.4043,-1.3321,-1.2642,-1.2027,-1.1856,-1.1421,-1.7935,-1.794,-1.7949,-1.8086,-1.8249,-1.8508,-1.8716,-1.8878,-1.9243,-1.947,-1.9937,-2.1256,-2.1972,-2.2314,-2.3691,-2.4449,-2.4729,-2.5356,-2.612,-2.6923,-2.6349,-2.6518,-2.7475,-2.7632,-2.7616,-2.7374,-2.6751,-2.6018,-2.5012,-2.2895,-1.9769,-1.5937,-1.5551,-1.3371,-0.9962,-0.83,-0.7542,-0.7312,-0.3094,-0.322,-0.7312,-0.2019,0.1099,0.1149,0.2146,0.2675,0.2513,-0.6197,-1.1263,-1.2169,-1.6739,-1.9736,-1.9934,-1.998,-1.986,-1.9545,-1.9391,-1.8893,-1.7692,-1.5057,-1.3627,-1.369,-1.2083,-1.1361,-1.1936,-1.1542,-1.0992,-1.103,-1.1637,-1.2163,-1.2257,-1.2573,-1.3245,-1.4195,-1.3921,-1.3907,-1.49,-1.5014,-1.4789,-1.4778,-1.5132,-1.5145,-1.4478,-1.4839,-1.5097,-1.4668,-1.4676,-1.4609,-1.4049,-1.3796,-1.3635,-1.4275,-1.549,-1.6576,-1.666,-1.679,-1.6894,-1.7279,-1.7062,-1.7652,-1.8533,-1.8142,-1.6569,-1.5827,-1.5197,-1.4877,-1.4204,-1.3623,-1.3537,-1.3122,-1.2634,-1.2143,-1.117,-1.1115,-1.1038,-1.7248,-1.7216,-1.7304,-1.7585,-1.7975,-1.829,-1.8586,-1.8895,-1.9079,-1.935,-1.9662,-2.0299,-2.0848,-2.1428,-2.2693,-2.3442,-2.3833,-2.4254,-2.4914,-2.5755,-2.5891,-2.6294,-2.6829,-2.7402,-2.7426,-2.6987,-2.6614,-2.4555,-2.0787,-1.6485,-1.3019,-1.0596,-0.852,-0.6273,-0.4215,-0.1329,0.0383,0.0877,0.2929,0.3093,0.1926,0.406,0.5576,0.5805,0.6601,0.7198,0.6775,0.0781,-0.4267,-0.7617,-1.2573,-1.6873,-2.0143,-2.0168,-2.0013,-1.9936,-2.0029,-1.9464,-1.8046,-1.6913,-1.5961,-1.5109,-1.3942,-1.3257,-1.3221,-1.2967,-1.2726,-1.2631,-1.2625,-1.2755,-1.2929,-1.3054,-1.3388,-1.3882,-1.3754,-1.3862,-1.4359,-1.4365,-1.4297,-1.4307,-1.4359,-1.4331,-1.4005,-1.4136,-1.4234,-1.4028,-1.4077,-1.3945,-1.3641,-1.361,-1.361,-1.3699,-1.4377,-1.479,-1.4952,-1.5075,-1.5314,-1.5446,-1.547,-1.6021,-1.6313,-1.6334,-1.5563,-1.531,-1.438,-1.3682,-1.3287,-1.3186,-1.3033,-1.2498,-1.2089,-1.167,-1.0667,-1.0415,-0.9945,-1.6865,-1.6966,-1.6946,-1.7199,-1.7681,-1.8125,-1.8491,-1.8825,-1.9061,-1.9372,-1.9744,-2.0014,-1.9727,-1.9554,-2.132,-2.2708,-2.3393,-2.3727,-2.4224,-2.4788,-2.4369,-2.4102,-2.4354,-2.3484,-2.3118,-2.2734,-2.2208,-1.9773,-1.5264,-1.1395,-0.8205,-0.6145,-0.3224,-0.0991,0.067,0.396,0.5791,0.624,0.6428,0.6686,0.703,0.7522,0.795,0.8447,0.9102,0.9628,0.9914,0.5472,0.1253,-0.2604,-0.7529,-1.209,-1.6016,-1.6177,-1.6657,-1.8165,-1.9561,-1.9883,-1.8776,-1.8731,-1.8245,-1.7081,-1.6305,-1.5729,-1.5375,-1.4943,-1.4774,-1.4864,-1.4087,-1.3593,-1.3463,-1.3564,-1.3608,-1.3626,-1.3687,-1.371,-1.3847,-1.3952,-1.3926,-1.381,-1.373,-1.3668,-1.3668,-1.3699,-1.3662,-1.3652,-1.3631,-1.361,-1.3573,-1.3478,-1.3382,-1.3573,-1.3621,-1.3689,-1.3621,-1.3921,-1.3988,-1.3988,-1.423,-1.4276,-1.4244,-1.4363,-1.3942,-1.3424,-1.2595,-1.2151,-1.1974,-1.2092,-1.203,-1.1647,-1.1327,-1.0829,-0.9901,-0.9646,-0.925,-1.6843,-1.7365,-1.7129,-1.7076,-1.7296,-1.7984,-1.841,-1.8698,-1.9006,-1.9421,-1.9695,-2.037,-1.8815,-1.5561,-1.9704,-2.2631,-2.3505,-2.3889,-2.419,-2.3985,-2.0766,-1.9126,-1.8953,-1.4626,-1.2922,-1.4242,-1.3655,-1.1902,-1.0054,-0.9536,-0.7403,-0.2862,-0.2233,-0.0308,0.3011,0.4256,0.5202,0.6,0.6245,0.647,0.6746,0.6895,0.738,0.8196,0.8797,0.9203,0.9059,0.5221,0.2593,0.2386,-0.2515,-0.5611,-0.6213,-0.6341,-0.8452,-1.2652,-1.699,-1.9608,-1.9552,-1.9331,-1.9393,-1.9764,-1.8804,-1.8601,-1.8586,-1.746,-1.6953,-1.7398,-1.5945,-1.4726,-1.4053,-1.3926,-1.3916,-1.3936,-1.3619,-1.3605,-1.3982,-1.3931,-1.3732,-1.3399,-1.3314,-1.3362,-1.342,-1.3515,-1.361,-1.361,-1.361,-1.361,-1.3525,-1.3094,-1.3094,-1.343,-1.361,-1.361,-1.361,-1.3658,-1.361,-1.36,-1.3552,-1.3362,-1.3303,-1.3142,-1.241,-1.1913,-1.1902,-1.1559,-1.0867,-1.04,-1.0179,-1.0013,-1.0092,-0.9686,-0.9244,-0.9384,-0.8994,-1.6144,-1.6414,-1.632,-1.6744,-1.7546,-1.7915,-1.871,-1.9565,-1.7147,-1.6695,-1.7058,-1.5483,-1.3824,-1.2794,-1.4836,-1.5653,-1.5563,-1.6379,-1.684,-1.6755,-1.5257,-1.4596,-1.4443,-1.2723,-1.211,-1.2278,-1.194,-0.9688,-0.5705,-0.3155,-0.0534,0.1362,0.1288,0.2023,0.3535,0.3959,0.4648,0.5727,0.598,0.632,0.6863,0.6659,0.6878,0.7763,0.8476,0.9036,0.9417,0.8054,0.5919,0.27,0.0908,-0.1428,-0.434,-0.4166,-0.4419,-0.616,-0.7678,-0.8581,-0.9235,-1.2887,-1.5185,-1.5365,-1.8737,-2.0487,-2.0567,-1.9808,-1.9346,-1.9341,-1.836,-1.718,-1.6286,-1.5215,-1.4372,-1.4369,-1.4165,-1.4098,-1.4247,-1.3952,-1.3399,-1.3208,-1.3256,-1.3362,-1.3409,-1.3515,-1.361,-1.361,-1.361,-1.361,-1.3573,-1.3372,-1.3334,-1.3515,-1.361,-1.361,-1.361,-1.3515,-1.3467,-1.342,-1.3324,-1.318,-1.3125,-1.3067,-1.2551,-1.1966,-1.178,-1.0902,-1.0171,-1.0219,-0.9653,-0.9269,-0.9328,-0.9062,-0.872,-0.8896,-0.8592,-1.5021,-1.4483,-1.4373,-1.4732,-1.5369,-1.558,-1.6353,-1.7188,-1.4644,-1.4053,-1.4438,-1.2568,-1.1153,-1.0302,-1.0524,-0.9403,-0.8165,-1.0711,-1.2313,-1.2236,-1.0971,-1.0291,-1.0034,-0.8694,-0.7962,-0.7822,-0.7624,-0.5186,-0.1406,0.1638,0.3357,0.3996,0.3495,0.3327,0.3688,0.3997,0.4754,0.5723,0.6233,0.6745,0.73,0.7045,0.7139,0.7832,0.8762,0.9416,0.969,1.022,0.9118,0.6092,0.5878,0.462,0.173,0.0389,0.0,0.0119,-0.1211,-0.1989,-0.2684,-0.6925,-0.977,-1.0399,-1.5831,-1.9625,-1.9773,-2.0778,-2.1369,-2.1179,-1.9984,-1.8806,-1.8187,-1.6956,-1.5795,-1.525,-1.488,-1.4846,-1.488,-1.4236,-1.3627,-1.3218,-1.3218,-1.3324,-1.342,-1.3515,-1.361,-1.361,-1.361,-1.361,-1.361,-1.361,-1.3752,-1.3988,-1.3988,-1.3941,-1.3941,-1.3905,-1.3658,-1.3563,-1.3372,-1.319,-1.3094,-1.3055,-1.2618,-1.2067,-1.1309,-1.0233,-0.979,-0.9907,-0.9626,-0.9067,-0.877,-0.8487,-0.8414,-0.8457,-0.8122,-1.3423,-1.1745,-1.1262,-1.1155,-1.1182,-1.142,-1.1244,-1.1859,-1.1605,-1.1726,-1.2223,-1.2601,-1.0143,-0.7821,-0.7461,-0.5336,-0.3538,-0.847,-1.1317,-1.1144,-0.7928,-0.6313,-0.605,-0.2314,-0.0387,-0.0162,0.154,0.2528,0.3356,0.3254,0.3399,0.3553,0.3599,0.3632,0.3613,0.4671,0.5558,0.6255,0.6999,0.7676,0.8156,0.8146,0.8233,0.8567,0.9731,1.0385,1.0308,1.1123,1.1445,1.1532,1.1913,1.286,1.1664,0.8486,0.61,0.577,0.2085,-0.0808,-0.1566,-0.248,-0.4129,-0.6013,-1.1422,-1.5002,-1.5913,-1.9336,-2.1787,-2.1431,-2.0789,-1.9651,-1.9615,-1.9019,-1.7984,-1.6286,-1.5985,-1.5837,-1.5485,-1.5037,-1.4422,-1.3382,-1.319,-1.3276,-1.3362,-1.3515,-1.3621,-1.361,-1.361,-1.361,-1.3705,-1.3847,-1.4212,-1.464,-1.464,-1.4362,-1.4373,-1.4373,-1.4046,-1.38,-1.3563,-1.3372,-1.3372,-1.3286,-1.2304,-1.166,-1.1099,-1.0131,-0.942,-0.9451,-0.9254,-0.8795,-0.8387,-0.8184,-0.8226,-0.8258,-0.7892,-1.0775,-1.0118,-0.9666,-0.9845,-1.0416,-1.0514,-1.1031,-1.1535,-0.9357,-0.852,-0.8721,-0.712,-0.5284,-0.421,-0.4186,-0.3425,-0.1843,-0.4085,-0.4872,-0.4473,-0.297,-0.2208,-0.158,0.0174,0.1172,0.1344,0.1736,0.2377,0.3001,0.2982,0.3124,0.369,0.3798,0.3898,0.4229,0.5152,0.5968,0.672,0.7439,0.8137,0.8823,0.8869,0.919,0.985,1.0914,1.1771,1.2224,1.2312,1.229,1.2339,1.3227,1.411,1.4545,1.4112,1.348,1.3223,1.2343,1.121,0.9801,0.5541,0.2374,0.0339,-0.5131,-0.8975,-1.0106,-1.3738,-1.6836,-1.8594,-2.0917,-2.2781,-2.1853,-2.0798,-1.9594,-1.8087,-1.7552,-1.7183,-1.6671,-1.5069,-1.3729,-1.3283,-1.3276,-1.3362,-1.3409,-1.3515,-1.3621,-1.361,-1.361,-1.3658,-1.3752,-1.4663,-1.5266,-1.5198,-1.5017,-1.488,-1.4869,-1.4869,-1.4686,-1.4269,-1.3941,-1.3563,-1.3515,-1.3266,-1.2286,-1.1401,-1.0787,-1.0233,-0.9524,-0.9228,-0.9274,-0.8912,-0.8689,-0.8495,-0.8293,-0.8012,-0.7756,-0.8486,-0.7886,-0.7154,-0.7256,-0.7832,-0.7688,-0.8107,-0.8591,-0.653,-0.5668,-0.5546,-0.4174,-0.3015,-0.2741,-0.2969,-0.2594,-0.1945,-0.1731,-0.1298,-0.0817,-0.0626,-0.0187,0.0492,0.1372,0.1896,0.215,0.2591,0.3041,0.3559,0.362,0.3829,0.4284,0.4384,0.4591,0.4968,0.5791,0.6612,0.7458,0.8125,0.8974,0.974,1.0041,1.0442,1.119,1.2143,1.2898,1.3358,1.3567,1.3606,1.3619,1.4535,1.5526,1.6359,1.6962,1.7322,1.7142,1.7102,1.6863,1.5911,1.1674,0.881,0.699,0.151,-0.3923,-0.667,-1.0764,-1.492,-1.9304,-2.2342,-2.4269,-2.3467,-2.2309,-2.1281,-2.0855,-1.9209,-1.8196,-1.7343,-1.5076,-1.3731,-1.3632,-1.3589,-1.3457,-1.3467,-1.3515,-1.361,-1.361,-1.3752,-1.4035,-1.4305,-1.5175,-1.5412,-1.5558,-1.5501,-1.5445,-1.5367,-1.5322,-1.5277,-1.4812,-1.4316,-1.3894,-1.3658,-1.3362,-1.2628,-1.1642,-1.0897,-1.0643,-0.9991,-1.0293,-1.0343,-0.9727,-0.9078,-0.8838,-0.8651,-0.8179,-0.796,-0.6518,-0.5139,-0.4167,-0.3873,-0.3807,-0.347,-0.3667,-0.3591,-0.3664,-0.3568,-0.3353,-0.3432,-0.3421,-0.3281,-0.2914,-0.2468,-0.1919,-0.1559,-0.109,-0.0574,-0.0318,0.0126,0.1161,0.2139,0.2667,0.3118,0.3929,0.4614,0.4837,0.4844,0.5211,0.5235,0.5416,0.5637,0.6066,0.6668,0.754,0.8482,0.9131,1.0005,1.1107,1.1466,1.1855,1.2376,1.3243,1.3737,1.3924,1.4778,1.5353,1.5377,1.6266,1.7032,1.7558,1.8108,1.8288,1.7987,1.772,1.7214,1.6527,1.5262,1.4149,1.2129,0.7631,0.2003,-0.4369,-1.0466,-1.6218,-2.1295,-2.3197,-2.3977,-2.3902,-2.313,-2.2726,-2.3067,-2.071,-1.8702,-1.6977,-1.5143,-1.4639,-1.4381,-1.3946,-1.3457,-1.3552,-1.3563,-1.3752,-1.3884,-1.4212,-1.4582,-1.496,-1.5457,-1.5768,-1.602,-1.6225,-1.6151,-1.6107,-1.6299,-1.617,-1.5579,-1.5028,-1.4468,-1.3742,-1.3266,-1.3025,-1.2049,-1.136,-1.1006,-1.0804,-1.1006,-1.0854,-1.0267,-0.9747,-0.9406,-0.9127,-0.8811,-0.8721,-0.4775,-0.3801,-0.315,-0.2918,-0.2852,-0.2774,-0.2671,-0.2611,-0.2716,-0.2596,-0.2266,-0.2334,-0.2295,-0.1951,-0.1942,-0.169,-0.1321,-0.0874,-0.0249,0.0435,0.087,0.1527,0.2271,0.2655,0.3027,0.3415,0.4104,0.4442,0.5015,0.5129,0.537,0.6019,0.6355,0.6778,0.7231,0.7973,0.8928,0.974,1.0005,1.0762,1.1913,1.2258,1.2609,1.315,1.3993,1.4422,1.4549,1.5599,1.6539,1.7034,1.7666,1.8291,1.8693,1.9124,1.9124,1.876,1.8525,1.7933,1.687,1.6015,1.5084,1.3899,1.1408,0.7513,0.0981,-0.7207,-1.3043,-1.7194,-1.9754,-2.2301,-2.2936,-2.2714,-2.2349,-2.1899,-2.0938,-1.9284,-1.7276,-1.7096,-1.6739,-1.4075,-1.4157,-1.3935,-1.3616,-1.3789,-1.4305,-1.4595,-1.4903,-1.5186,-1.5433,-1.6343,-1.698,-1.7076,-1.7201,-1.7005,-1.6964,-1.7201,-1.7021,-1.6411,-1.582,-1.5184,-1.4168,-1.319,-1.2958,-1.252,-1.2274,-1.1918,-1.156,-1.1451,-1.1049,-1.0744,-1.0635,-1.0474,-1.0269,-1.0029,-0.9933,-0.3643,-0.3151,-0.2778,-0.267,-0.2756,-0.2741,-0.2493,-0.2249,-0.2224,-0.184,-0.133,-0.147,-0.1415,-0.1108,-0.0984,-0.0737,-0.0429,0.0242,0.0902,0.1561,0.2078,0.2532,0.3107,0.3457,0.3969,0.4265,0.4977,0.5541,0.5931,0.5986,0.6327,0.6757,0.7156,0.7537,0.793,0.8559,0.9503,1.0458,1.0771,1.1466,1.2861,1.315,1.3494,1.4025,1.4755,1.5344,1.57,1.6539,1.7173,1.7462,1.7894,1.8422,1.8936,1.9325,1.9362,1.8988,1.8769,1.8052,1.6844,1.5928,1.496,1.3956,1.3112,0.8301,0.1426,-0.5263,-0.9495,-1.6934,-1.9705,-2.1408,-2.2335,-2.2675,-2.2304,-2.1592,-2.1708,-2.0808,-1.8054,-1.7035,-1.6393,-1.5136,-1.455,-1.4492,-1.395,-1.4446,-1.4812,-1.5252,-1.5596,-1.574,-1.5884,-1.7162,-1.8108,-1.8133,-1.7868,-1.7544,-1.7421,-1.7612,-1.7625,-1.7047,-1.6612,-1.5978,-1.488,-1.36,-1.3152,-1.3065,-1.2978,-1.2783,-1.2314,-1.195,-1.171,-1.156,-1.156,-1.1401,-1.1141,-1.0939,-1.0889,-0.2865,-0.2752,-0.255,-0.2589,-0.2642,-0.2546,-0.2188,-0.1915,-0.1787,-0.1226,-0.0471,-0.0723,-0.0483,-0.0305,0.012,0.0363,0.0786,0.1529,0.2277,0.2836,0.3315,0.3634,0.3823,0.4562,0.5113,0.5529,0.6743,0.7131,0.726,0.747,0.7661,0.7813,0.7971,0.8163,0.8543,0.8778,0.971,1.1065,1.1366,1.2159,1.3457,1.3941,1.4176,1.4512,1.5322,1.6076,1.6637,1.7282,1.7489,1.7105,1.7666,1.824,1.863,1.8974,1.9064,1.886,1.8577,1.7854,1.6634,1.5784,1.4778,1.3758,1.2768,0.8003,-0.0802,-0.4768,-0.9379,-1.8802,-2.0892,-2.1094,-2.1649,-2.2691,-2.2639,-2.178,-2.2876,-2.2583,-2.0424,-1.6783,-1.5225,-1.6967,-1.5194,-1.4959,-1.5128,-1.5496,-1.5407,-1.6213,-1.665,-1.7055,-1.7192,-1.7933,-1.864,-1.8959,-1.8539,-1.7988,-1.7948,-1.7948,-1.7882,-1.7639,-1.7352,-1.6756,-1.5752,-1.4641,-1.38,-1.344,-1.3668,-1.343,-1.289,-1.254,-1.254,-1.253,-1.2696,-1.2227,-1.1751,-1.1601,-1.1551,-0.1413,-0.1206,-0.113,-0.1172,-0.1166,-0.1228,-0.123,-0.1119,-0.079,-0.0454,0.0057,0.0628,0.1031,0.126,0.1719,0.2109,0.2234,0.2836,0.3607,0.4281,0.4974,0.5238,0.5286,0.5503,0.58,0.646,0.7022,0.7577,0.801,0.8134,0.8413,0.8944,0.8902,0.9097,0.9461,0.9687,1.0474,1.1873,1.211,1.2803,1.3894,1.428,1.4419,1.4605,1.5322,1.6076,1.6778,1.7269,1.7544,1.7868,1.8383,1.876,1.8874,1.9026,1.9064,1.8988,1.8679,1.7999,1.686,1.5872,1.479,1.3103,0.9661,0.4389,-0.2211,-0.549,-1.051,-1.7401,-1.9026,-1.9272,-2.0081,-2.1012,-2.1638,-2.1985,-2.2545,-2.2904,-2.2079,-2.0368,-1.8292,-1.6846,-1.6574,-1.6515,-1.5868,-1.6456,-1.6722,-1.7233,-1.7799,-1.8454,-1.8712,-1.8855,-1.9132,-1.9493,-1.9011,-1.85,-1.8447,-1.8422,-1.8305,-1.8135,-1.7814,-1.7652,-1.6629,-1.5952,-1.5197,-1.4709,-1.449,-1.4107,-1.3711,-1.3888,-1.3971,-1.3924,-1.3784,-1.3453,-1.313,-1.2716,-1.2335,-0.1004,-0.0899,-0.0826,-0.0814,-0.0803,-0.0915,-0.0794,-0.0449,-0.0224,0.028,0.084,0.151,0.1846,0.2291,0.2847,0.3072,0.3345,0.4116,0.4944,0.5664,0.615,0.6475,0.6853,0.6681,0.6897,0.7413,0.7841,0.8251,0.8482,0.8651,0.891,0.9556,0.9642,0.9999,1.0482,1.0651,1.1434,1.2463,1.2803,1.3304,1.4222,1.443,1.4651,1.496,1.5534,1.6207,1.7073,1.731,1.7544,1.7922,1.845,1.8798,1.886,1.8974,1.8988,1.8669,1.8553,1.7867,1.6815,1.5612,1.3581,1.0211,0.7154,0.1362,-0.3776,-0.7231,-1.0511,-1.5937,-1.7997,-1.8148,-1.9175,-2.034,-2.1195,-2.1597,-2.2469,-2.283,-2.2295,-2.1085,-1.9825,-1.8005,-1.7517,-1.7384,-1.7302,-1.7558,-1.7851,-1.8296,-1.8646,-1.9214,-1.9398,-1.9522,-1.9573,-1.966,-1.931,-1.9011,-1.8997,-1.8884,-1.8769,-1.8475,-1.8149,-1.8095,-1.7707,-1.7173,-1.668,-1.6182,-1.5644,-1.5276,-1.4982,-1.5207,-1.5196,-1.4926,-1.4744,-1.4721,-1.44,-1.3606,-1.3416,-0.0622,-0.0748,-0.0745,-0.0672,-0.0596,-0.0708,-0.0405,0.0113,0.0224,0.0896,0.1733,0.1956,0.2458,0.2901,0.3622,0.3901,0.4336,0.5101,0.6086,0.6583,0.6907,0.7283,0.7658,0.7824,0.7931,0.809,0.85,0.8785,0.8831,0.9015,0.9267,0.9784,1.0079,1.0525,1.1225,1.1633,1.203,1.2919,1.316,1.3494,1.4222,1.4373,1.4777,1.5367,1.5724,1.6281,1.6964,1.7227,1.7393,1.7639,1.8016,1.8214,1.8358,1.8461,1.8655,1.8028,1.8082,1.7503,1.6148,1.4302,1.0897,0.5711,0.3281,-0.0627,-0.7155,-0.9606,-1.2089,-1.4746,-1.728,-1.8001,-1.9111,-2.0185,-2.0681,-2.1035,-2.2279,-2.2642,-2.1796,-2.0459,-1.9925,-2.0035,-1.9038,-1.848,-1.8636,-1.8852,-1.9067,-1.9317,-1.9666,-1.9925,-2.0085,-2.0174,-2.0227,-2.007,-1.9752,-1.953,-1.9457,-1.9479,-1.9295,-1.92,-1.8741,-1.863,-1.8731,-1.8774,-1.831,-1.7338,-1.6795,-1.6446,-1.628,-1.6409,-1.6268,-1.5847,-1.5935,-1.617,-1.5472,-1.4446,-1.4457,0.0584,0.0728,0.0711,0.0703,0.0694,0.0603,0.0647,0.0815,0.1304,0.1567,0.1958,0.2845,0.3292,0.3735,0.456,0.5328,0.5814,0.6411,0.674,0.7122,0.7444,0.7871,0.7984,0.8368,0.8586,0.8692,0.8857,0.8962,0.9015,0.9106,0.9614,1.0064,1.0372,1.0872,1.1534,1.1832,1.2374,1.3074,1.3362,1.3752,1.4193,1.4485,1.4719,1.5334,1.5546,1.6008,1.6527,1.685,1.7073,1.724,1.7212,1.7282,1.7352,1.7214,1.7544,1.7935,1.7679,1.692,1.5157,1.0904,0.8117,0.4435,-0.1323,-0.6077,-0.9689,-1.2295,-1.45,-1.564,-1.7115,-1.7844,-1.9157,-1.9926,-2.0442,-2.0857,-2.1523,-2.2238,-2.1627,-2.087,-2.0306,-2.0665,-2.0111,-1.9597,-1.9606,-1.9771,-2.0032,-2.0184,-2.0449,-2.0614,-2.0714,-2.0797,-2.0797,-2.0567,-2.028,-2.0085,-1.9955,-1.996,-1.9894,-2.0012,-1.9718,-1.9346,-1.9636,-2.0333,-2.0012,-1.9053,-1.8221,-1.7759,-1.7666,-1.7666,-1.7599,-1.7451,-1.7545,-1.7679,-1.6847,-1.6009,-1.5671,0.0931,0.0941,0.0995,0.1242,0.154,0.1563,0.1694,0.1939,0.2252,0.2497,0.2858,0.3347,0.3956,0.4505,0.505,0.5977,0.6907,0.7235,0.7503,0.7883,0.8203,0.8362,0.8309,0.8699,0.8752,0.8804,0.891,0.9015,0.9061,0.951,1.0012,1.0661,1.1124,1.1733,1.2384,1.2774,1.3016,1.342,1.3658,1.401,1.4499,1.477,1.5047,1.5017,1.5232,1.5579,1.5976,1.6281,1.6466,1.6607,1.6735,1.6693,1.6607,1.6752,1.7047,1.7558,1.7049,1.5175,1.2565,0.7937,0.4128,-0.2276,-0.7635,-1.0968,-1.3103,-1.5517,-1.6747,-1.7176,-1.7359,-1.7896,-1.8564,-1.9255,-1.9684,-2.0102,-2.0929,-2.1324,-2.1101,-2.0671,-2.0663,-2.0769,-2.0175,-1.9846,-2.0147,-2.0432,-2.0847,-2.1102,-2.1228,-2.1274,-2.1258,-2.1383,-2.1395,-2.1272,-2.1022,-2.0863,-2.0717,-2.0701,-2.0767,-2.083,-2.0767,-2.0442,-2.0356,-2.0974,-2.1179,-2.0766,-2.002,-1.925,-1.9038,-1.9046,-1.903,-1.8985,-1.8881,-1.8679,-1.8182,-1.768,-1.7345,0.1412,0.1279,0.1479,0.1855,0.2271,0.2315,0.2502,0.2943,0.3008,0.3237,0.3613,0.3913,0.4508,0.5218,0.5819,0.6627,0.783,0.7937,0.8209,0.8533,0.8699,0.8752,0.8804,0.8804,0.8804,0.8811,0.8956,0.9015,0.9159,0.9614,1.0415,1.1065,1.1832,1.2589,1.3218,1.3467,1.3716,1.3858,1.4057,1.4402,1.4757,1.5075,1.5121,1.4706,1.488,1.5142,1.5412,1.5768,1.5901,1.6076,1.625,1.638,1.6107,1.6511,1.7042,1.7085,1.5887,1.2355,0.9081,0.3207,-0.2128,-0.7988,-1.053,-1.3789,-1.563,-1.6577,-1.6969,-1.7715,-1.7567,-1.7698,-1.8023,-1.8419,-1.8855,-1.9391,-2.0056,-2.056,-2.0387,-2.0149,-2.003,-2.0004,-1.9857,-1.9947,-2.0111,-2.0279,-2.055,-2.0825,-2.0957,-2.1366,-2.1428,-2.1893,-2.1955,-2.1972,-2.1824,-2.1637,-2.1574,-2.1587,-2.1709,-2.1908,-2.1904,-2.1714,-2.1499,-2.1532,-2.1699,-2.199,-2.1589,-2.0925,-2.0686,-2.0304,-2.015,-2.0047,-1.9958,-1.9677,-1.917,-1.9018,-1.8897,0.2948,0.2882,0.295,0.3009,0.3055,0.3053,0.3138,0.3279,0.361,0.369,0.3995,0.4685,0.5128,0.566,0.6735,0.7652,0.8302,0.8527,0.8639,0.8804,0.8804,0.8804,0.8804,0.8804,0.8804,0.8857,0.8956,0.9061,0.9309,0.9562,1.0261,1.1216,1.1765,1.2325,1.3515,1.3773,1.3915,1.3868,1.4057,1.423,1.4341,1.4526,1.4598,1.4545,1.4651,1.4789,1.4971,1.5334,1.5591,1.5724,1.6001,1.6144,1.6176,1.6239,1.7374,1.6336,1.3311,0.8504,0.5961,-0.1319,-0.7714,-1.1658,-1.4141,-1.6311,-1.6858,-1.6471,-1.6323,-1.7258,-1.668,-1.6862,-1.7697,-1.7884,-1.8243,-1.8829,-1.9535,-1.9818,-1.9745,-1.9852,-1.9717,-1.9519,-1.9445,-1.9665,-1.9883,-1.9993,-2.0144,-2.0422,-2.0728,-2.1147,-2.1704,-2.2229,-2.2642,-2.2667,-2.2642,-2.2479,-2.2521,-2.2528,-2.2667,-2.2929,-2.2912,-2.2869,-2.2698,-2.2555,-2.2898,-2.3023,-2.2677,-2.2173,-2.1536,-2.1191,-2.1133,-2.1119,-2.1087,-2.0697,-2.0158,-2.0171,-2.0414,0.3751,0.3218,0.3218,0.3485,0.3813,0.383,0.3973,0.4284,0.4436,0.4657,0.4868,0.53,0.593,0.6652,0.7605,0.8196,0.8573,0.8745,0.8804,0.8804,0.8804,0.8804,0.8804,0.8804,0.8804,0.8956,0.9159,0.9517,0.9718,1.021,1.0864,1.1466,1.2209,1.2967,1.3668,1.3926,1.3868,1.3931,1.4164,1.4281,1.4174,1.446,1.4646,1.4395,1.4512,1.4616,1.48,1.5017,1.5412,1.562,1.5813,1.5948,1.6253,1.5964,1.5144,0.7741,0.5512,0.3586,0.2283,-0.6189,-1.1297,-1.4716,-1.6952,-1.7729,-1.7181,-1.6339,-1.6224,-1.7482,-1.645,-1.6562,-1.7465,-1.7555,-1.8128,-1.8683,-1.9277,-1.9511,-1.9619,-1.9522,-1.9472,-1.9251,-1.9111,-1.9385,-1.9682,-1.9973,-2.0125,-2.028,-2.0621,-2.1027,-2.1867,-2.2816,-2.3181,-2.3451,-2.3408,-2.3325,-2.3451,-2.3533,-2.3642,-2.3819,-2.3815,-2.3771,-2.3726,-2.3783,-2.3864,-2.3826,-2.3541,-2.2976,-2.2314,-2.2167,-2.2135,-2.218,-2.2254,-2.1939,-2.1648,-2.1752,-2.1978,0.4292,0.3618,0.3685,0.4018,0.4489,0.4556,0.4894,0.5382,0.5389,0.5616,0.5944,0.6213,0.6829,0.7645,0.815,0.8421,0.8633,0.8745,0.8903,0.8956,0.9008,0.9113,0.9211,0.9211,0.9113,0.9159,0.9413,0.9821,1.0372,1.0914,1.1516,1.1814,1.257,1.3324,1.3726,1.3926,1.3915,1.3784,1.4024,1.4003,1.3915,1.4499,1.4577,1.4529,1.4466,1.4569,1.4789,1.5142,1.5534,1.566,1.589,1.5992,1.5992,1.4242,1.0328,0.3581,-0.0414,-0.2358,-0.4154,-0.9169,-1.453,-1.7256,-1.8267,-1.7699,-1.6943,-1.6264,-1.599,-1.6812,-1.5992,-1.6231,-1.7093,-1.7131,-1.7728,-1.8486,-1.9277,-1.9521,-1.9729,-1.9711,-1.9601,-1.938,-1.9254,-1.9159,-1.9506,-1.9953,-2.0156,-2.023,-2.053,-2.0877,-2.1774,-2.2812,-2.3015,-2.316,-2.3474,-2.3492,-2.378,-2.4031,-2.4329,-2.4554,-2.454,-2.4495,-2.4355,-2.4284,-2.4284,-2.4229,-2.4192,-2.3873,-2.3307,-2.3234,-2.3146,-2.3022,-2.298,-2.334,-2.3345,-2.3423,-2.3921,0.4764,0.4694,0.4891,0.502,0.509,0.5226,0.5675,0.6278,0.6149,0.6505,0.7167,0.7338,0.7793,0.8372,0.8434,0.8586,0.8804,0.8685,0.9047,0.9406,0.9555,0.9762,0.9865,0.9814,0.9769,1.0012,1.002,1.0233,1.0795,1.1575,1.2021,1.2414,1.2812,1.3266,1.3573,1.3716,1.3716,1.3563,1.358,1.3628,1.3784,1.4178,1.4485,1.451,1.4605,1.4789,1.4903,1.5374,1.5691,1.5731,1.5017,1.5841,1.5133,1.1068,0.5677,-0.1106,-0.5171,-0.7056,-0.9113,-1.2913,-1.7074,-1.8186,-1.7787,-1.7054,-1.6437,-1.56,-1.5353,-1.5497,-1.5065,-1.5403,-1.6099,-1.6585,-1.7313,-1.8429,-1.9286,-1.9683,-1.9895,-2.0027,-1.9884,-1.9599,-1.9477,-1.945,-1.9404,-1.9859,-1.9817,-1.9863,-2.0146,-2.0505,-2.1274,-2.2174,-2.2262,-2.2506,-2.3078,-2.3394,-2.3746,-2.403,-2.4352,-2.4617,-2.4745,-2.4757,-2.4746,-2.47,-2.4588,-2.4638,-2.4607,-2.4444,-2.4392,-2.4356,-2.4184,-2.3773,-2.3869,-2.4718,-2.5103,-2.5205,-2.6121,0.5491,0.5491,0.5885,0.5943,0.5745,0.5943,0.6404,0.6915,0.6979,0.7613,0.8566,0.8507,0.8932,0.9349,0.9155,0.9106,0.9413,0.9458,0.971,0.9969,1.0115,1.021,1.0269,1.032,1.021,1.0474,1.0482,1.0795,1.1351,1.2098,1.2579,1.2871,1.3064,1.316,1.3362,1.3218,1.3112,1.3362,1.3314,1.3362,1.3752,1.428,1.4569,1.4616,1.5062,1.5091,1.512,1.5478,1.5711,1.4901,1.2666,1.2977,1.324,0.7336,-0.0229,-0.6752,-0.9744,-1.0251,-1.2639,-1.6204,-1.8464,-1.8087,-1.7452,-1.6777,-1.6208,-1.5479,-1.5296,-1.5117,-1.4681,-1.4994,-1.6368,-1.668,-1.7159,-1.8458,-1.9304,-1.9763,-2.0043,-2.0172,-2.0156,-1.989,-1.9856,-1.9858,-1.9809,-1.981,-1.9625,-1.9476,-1.9794,-2.0207,-2.0963,-2.146,-2.1573,-2.188,-2.2486,-2.2848,-2.3169,-2.3724,-2.4312,-2.4624,-2.4877,-2.5015,-2.5061,-2.4929,-2.4865,-2.4964,-2.5348,-2.5634,-2.5734,-2.556,-2.5299,-2.4961,-2.5652,-2.6763,-2.6961,-2.6996,-2.7982,0.5892,0.5954,0.6346,0.6412,0.6342,0.6597,0.712,0.7647,0.7707,0.8471,0.9618,0.9524,0.9813,1.0177,0.9814,0.9631,0.9806,0.9888,1.019,1.0431,1.0635,1.0736,1.0779,1.0779,1.0787,1.0947,1.1057,1.1418,1.1909,1.2529,1.2852,1.3122,1.3372,1.3314,1.2967,1.2472,1.2472,1.3122,1.317,1.3266,1.3705,1.4362,1.4743,1.488,1.54,1.5653,1.4971,1.4404,1.3235,1.1605,0.9601,0.8359,0.71,0.3137,-0.6115,-1.1205,-1.35,-1.2374,-1.5004,-1.6527,-1.7625,-1.7544,-1.6917,-1.6651,-1.6411,-1.5729,-1.566,-1.5541,-1.4958,-1.5159,-1.6912,-1.7076,-1.7639,-1.892,-1.9381,-1.9823,-2.0126,-2.0311,-2.0271,-2.0172,-2.0169,-2.0161,-2.0113,-2.0044,-1.9942,-1.9793,-1.9963,-2.0255,-2.0625,-2.0962,-2.0897,-2.1321,-2.1875,-2.2172,-2.2466,-2.3338,-2.4154,-2.4544,-2.483,-2.5252,-2.532,-2.5175,-2.5103,-2.5163,-2.5768,-2.6776,-2.7248,-2.7338,-2.6849,-2.6241,-2.7249,-2.8371,-2.8962,-2.91,-2.9725,0.5954,0.5888,0.6145,0.6408,0.6741,0.719,0.7777,0.849,0.8613,0.919,1.0221,1.0453,1.0587,1.0672,1.0243,1.0129,1.0256,1.0174,1.0399,1.0887,1.1294,1.1613,1.1619,1.1569,1.141,1.1778,1.1728,1.1778,1.2372,1.2627,1.29,1.3025,1.3122,1.317,1.2919,1.2187,1.2433,1.3314,1.3016,1.3218,1.3647,1.4536,1.504,1.5119,1.4815,1.4749,1.3905,1.0825,0.923,0.7703,0.3978,0.2523,0.2071,-0.3073,-0.9534,-1.3744,-1.5005,-1.5184,-1.5671,-1.4968,-1.5595,-1.6874,-1.649,-1.6439,-1.6481,-1.6297,-1.6211,-1.6268,-1.5924,-1.6382,-1.7103,-1.762,-1.8428,-1.905,-1.9554,-1.9889,-2.0196,-2.0336,-2.0299,-2.0305,-2.0351,-2.0375,-2.0341,-2.0315,-2.0258,-2.0221,-2.0264,-2.04,-2.0565,-2.0619,-2.0633,-2.0799,-2.1341,-2.146,-2.1898,-2.312,-2.3941,-2.4354,-2.473,-2.5102,-2.5402,-2.5383,-2.5357,-2.5389,-2.6702,-2.8192,-2.8836,-2.927,-2.8553,-2.7994,-2.8801,-2.9764,-3.0482,-3.1001,-3.1378,0.6872,0.7003,0.7265,0.7456,0.7526,0.7456,0.8166,0.932,0.9958,1.0662,1.1294,1.1247,1.1449,1.1526,1.1197,1.0886,1.0972,1.1521,1.1733,1.1437,1.1935,1.2049,1.2077,1.1972,1.1936,1.2026,1.1927,1.2026,1.248,1.2627,1.2666,1.2754,1.2871,1.2725,1.2647,1.2264,1.2206,1.2939,1.3112,1.3437,1.3884,1.4846,1.5257,1.4642,1.2635,1.146,1.0683,0.6607,0.4044,0.2857,-0.0929,-0.2463,-0.2419,-0.6694,-1.2218,-1.4161,-1.4689,-1.5362,-1.5095,-1.4702,-1.4828,-1.5811,-1.655,-1.6728,-1.7197,-1.7131,-1.7167,-1.7225,-1.7104,-1.7559,-1.8002,-1.8305,-1.891,-1.9426,-1.985,-2.0069,-2.0282,-2.0295,-2.0291,-2.034,-2.0392,-2.0432,-2.0423,-2.041,-2.0381,-2.0375,-2.0393,-2.0408,-2.0533,-2.0586,-2.0597,-2.0572,-2.0798,-2.0818,-2.1285,-2.2522,-2.3319,-2.3676,-2.423,-2.4812,-2.5084,-2.5443,-2.5633,-2.5704,-2.7729,-2.9636,-2.9781,-2.9911,-2.991,-2.9901,-3.0585,-3.1025,-3.1503,-3.1974,-3.2325,0.7396,0.7526,0.7717,0.7977,0.8236,0.8301,0.9064,1.0218,1.0982,1.1615,1.1935,1.1813,1.197,1.2225,1.1953,1.1655,1.1638,1.2113,1.2341,1.2069,1.2588,1.2574,1.2415,1.231,1.2264,1.2249,1.2234,1.2323,1.2578,1.2725,1.2861,1.289,1.2716,1.3092,1.3064,1.2919,1.2909,1.3663,1.4089,1.293,1.2333,1.1905,1.1744,0.9348,0.73,0.5983,0.449,0.1811,-0.1514,-0.286,-0.4739,-0.6965,-0.7205,-0.9142,-1.3997,-1.3967,-1.4008,-1.4593,-1.4306,-1.4659,-1.4911,-1.5601,-1.6547,-1.7344,-1.7915,-1.8209,-1.8358,-1.8407,-1.8327,-1.8534,-1.8875,-1.9127,-1.96,-2.0134,-2.0522,-2.0755,-2.0532,-2.057,-2.0369,-2.0418,-2.036,-2.041,-2.0488,-2.0464,-2.0458,-2.0479,-2.05,-2.0508,-2.056,-2.0721,-2.0957,-2.1133,-2.0937,-2.0975,-2.1264,-2.1909,-2.2587,-2.2979,-2.3887,-2.4895,-2.5161,-2.5598,-2.5809,-2.6242,-2.8023,-2.9492,-3.0153,-3.0409,-3.0556,-3.1227,-3.2193,-3.2494,-3.2647,-3.301,-3.3431,0.7461,0.7526,0.7526,0.7967,0.8737,0.9448,1.0275,1.1045,1.1615,1.1864,1.1919,1.2351,1.2557,1.2525,1.2178,1.2046,1.2099,1.2386,1.2432,1.2584,1.3023,1.294,1.2862,1.2724,1.2549,1.2401,1.2339,1.2435,1.2695,1.2822,1.3094,1.3467,1.3379,1.3747,1.3935,1.2923,1.3367,1.427,1.3395,1.1532,0.9567,0.7788,0.5823,0.3132,0.0922,0.0517,-0.0988,-0.3622,-0.5602,-0.7414,-0.953,-1.1847,-1.293,-1.2912,-1.3437,-1.3702,-1.3539,-1.3591,-1.3947,-1.4511,-1.523,-1.5868,-1.6625,-1.7427,-1.8292,-1.9046,-1.9366,-1.9524,-1.9578,-1.9608,-1.9729,-2.0197,-2.0648,-2.1105,-2.1537,-2.1438,-2.107,-2.0847,-2.0575,-2.0446,-2.0318,-2.0334,-2.0473,-2.0492,-2.0823,-2.0752,-2.0724,-2.0492,-2.0629,-2.1154,-2.1511,-2.2234,-2.1929,-2.1396,-2.17,-2.2319,-2.2812,-2.3514,-2.4524,-2.5458,-2.5629,-2.5849,-2.6256,-2.6976,-2.8232,-2.9371,-3.0267,-3.0945,-3.1393,-3.2157,-3.2639,-3.307,-3.2934,-3.4137,-3.4693,0.7396,0.7526,0.7526,0.7972,0.8865,1.0262,1.1024,1.1281,1.1981,1.2375,1.2367,1.2498,1.2621,1.2605,1.244,1.237,1.2578,1.2789,1.2889,1.3102,1.3392,1.336,1.3241,1.3075,1.2899,1.2711,1.2596,1.2617,1.2616,1.2803,1.3372,1.3894,1.4018,1.4516,1.3278,1.1283,1.2556,1.2713,1.1272,0.8484,0.5852,0.3848,0.0974,-0.1401,-0.4409,-0.4609,-0.5711,-0.8737,-1.0414,-1.1,-1.1316,-1.2167,-1.1727,-1.2071,-1.2642,-1.314,-1.3123,-1.3227,-1.4006,-1.4849,-1.5675,-1.647,-1.736,-1.8278,-1.9059,-1.9499,-2.0114,-2.0504,-2.0235,-1.9981,-2.0366,-2.0906,-2.1216,-2.1531,-2.19,-2.1857,-2.1506,-2.1185,-2.0888,-2.0537,-2.0419,-2.0383,-2.0512,-2.1099,-2.1371,-2.1188,-2.103,-2.0862,-2.0884,-2.1457,-2.2298,-2.3072,-2.2863,-2.231,-2.2663,-2.3254,-2.3617,-2.4134,-2.5273,-2.6033,-2.6003,-2.6283,-2.6763,-2.7657,-2.8844,-2.976,-3.0599,-3.1084,-3.1337,-3.1713,-3.2198,-3.2792,-3.3509,-3.46,-3.5433,0.7722,0.7907,0.8166,0.8801,0.9748,1.1087,1.1725,1.1919,1.2359,1.2621,1.2621,1.2621,1.2621,1.2621,1.2597,1.2562,1.259,1.31,1.3346,1.3392,1.3802,1.3752,1.3653,1.347,1.3194,1.2989,1.2824,1.284,1.2821,1.3074,1.3589,1.4525,1.4642,1.3717,1.2192,1.0002,0.8784,0.808,0.638,0.379,0.1227,-0.1174,-0.3447,-0.6229,-0.9409,-0.9636,-0.963,-1.3009,-1.3099,-1.2657,-1.2077,-1.1673,-1.1349,-1.1691,-1.2234,-1.2748,-1.305,-1.3404,-1.4104,-1.51,-1.6069,-1.6955,-1.7738,-1.8227,-1.8946,-1.9458,-2.0568,-2.1368,-2.0595,-2.0141,-2.0842,-2.1478,-2.1609,-2.1782,-2.198,-2.2163,-2.1878,-2.1567,-2.1183,-2.0766,-2.0601,-2.0546,-2.0866,-2.1548,-2.1883,-2.1648,-2.1794,-2.2068,-2.1985,-2.2189,-2.3201,-2.4216,-2.3795,-2.3266,-2.38,-2.4417,-2.4851,-2.5455,-2.6445,-2.6932,-2.6651,-2.682,-2.7403,-2.8325,-2.9365,-3.0147,-3.0795,-3.0801,-3.099,-3.1379,-3.1866,-3.2554,-3.3515,-3.4816,-3.5489,0.8425,0.8613,0.932,1.0078,1.1017,1.1856,1.2367,1.256,1.256,1.2621,1.2621,1.2621,1.2621,1.2621,1.2621,1.2621,1.2838,1.3252,1.3554,1.3537,1.4082,1.4212,1.4029,1.3949,1.3673,1.3262,1.3171,1.3378,1.3303,1.3569,1.4176,1.4699,1.4391,1.2242,0.7688,0.5781,0.3643,0.1011,-0.0928,-0.3447,-0.5948,-0.832,-1.0561,-1.4134,-1.5048,-1.4752,-1.4051,-1.3894,-1.3601,-1.2814,-1.2235,-1.1807,-1.1643,-1.163,-1.2121,-1.2719,-1.3202,-1.3937,-1.463,-1.5572,-1.6244,-1.6946,-1.7459,-1.7879,-1.8517,-1.9453,-2.0605,-2.0976,-2.0262,-2.0519,-2.1167,-2.1516,-2.1677,-2.213,-2.2533,-2.2568,-2.238,-2.2077,-2.1744,-2.1438,-2.1396,-2.1311,-2.134,-2.2029,-2.2669,-2.2277,-2.2621,-2.3201,-2.3481,-2.3461,-2.4372,-2.5499,-2.5001,-2.4781,-2.5449,-2.5994,-2.6282,-2.6935,-2.7731,-2.7851,-2.7557,-2.775,-2.8097,-2.9081,-3.0057,-3.0367,-3.0793,-3.0799,-3.0824,-3.1008,-3.1566,-3.2333,-3.3431,-3.4634,-3.5558,0.9134,0.9326,1.0142,1.071,1.1087,1.1919,1.2436,1.2621,1.2621,1.2621,1.2621,1.2621,1.2621,1.2621,1.2621,1.2683,1.2928,1.3216,1.364,1.3872,1.4258,1.4401,1.4409,1.4366,1.4137,1.4045,1.4038,1.3982,1.3322,1.3776,1.2832,0.9544,0.9683,0.7581,0.2107,-0.0042,-0.3262,-0.5538,-0.8311,-0.8414,-0.8222,-1.2131,-1.532,-1.5799,-1.5377,-1.492,-1.4225,-1.3574,-1.3119,-1.2492,-1.1989,-1.1693,-1.1577,-1.1831,-1.2402,-1.3141,-1.3584,-1.4293,-1.5148,-1.5894,-1.65,-1.7043,-1.7487,-1.7735,-1.8311,-1.9354,-1.9973,-2.01,-2.0362,-2.0865,-2.1344,-2.1568,-2.1879,-2.25,-2.3049,-2.2977,-2.2867,-2.2602,-2.2301,-2.2324,-2.2296,-2.2239,-2.2204,-2.2611,-2.3112,-2.3688,-2.4274,-2.4793,-2.5232,-2.5448,-2.6243,-2.7011,-2.6475,-2.6428,-2.7077,-2.7423,-2.7639,-2.8021,-2.8708,-2.8685,-2.8476,-2.8926,-2.9414,-2.9988,-3.0671,-3.0746,-3.0762,-3.079,-3.0828,-3.0867,-3.1156,-3.189,-3.2733,-3.3853,-3.5013,0.9709,1.0034,1.0787,1.1226,1.1476,1.1988,1.2305,1.2498,1.256,1.2621,1.2621,1.2621,1.2621,1.2621,1.2621,1.2683,1.2928,1.3155,1.3398,1.3761,1.4139,1.4327,1.4497,1.4656,1.4456,1.4402,1.4651,1.444,1.231,1.1556,0.9775,0.4895,0.4336,0.2535,-0.2832,-0.6348,-0.8864,-1.0826,-1.4052,-1.3006,-1.0229,-1.3803,-1.577,-1.538,-1.4882,-1.445,-1.3951,-1.3334,-1.3029,-1.2872,-1.2743,-1.2849,-1.2694,-1.2413,-1.2658,-1.3122,-1.361,-1.4086,-1.5104,-1.5893,-1.6402,-1.6855,-1.7324,-1.7498,-1.7783,-1.8788,-1.9905,-2.0087,-2.0109,-2.0532,-2.1448,-2.1852,-2.2379,-2.2942,-2.3331,-2.3444,-2.3288,-2.3067,-2.3269,-2.3717,-2.3588,-2.3377,-2.3614,-2.4525,-2.4864,-2.4606,-2.5283,-2.56,-2.6167,-2.7092,-2.802,-2.8444,-2.7853,-2.7845,-2.8357,-2.866,-2.8855,-2.9279,-2.9632,-2.9706,-2.9702,-3.0227,-3.0769,-3.07,-3.0656,-3.0686,-3.072,-3.0728,-3.0709,-3.0704,-3.0996,-3.1402,-3.2225,-3.285,-3.3569,1.0345,1.0737,1.131,1.1677,1.1802,1.1996,1.2182,1.2305,1.2498,1.256,1.2498,1.2498,1.256,1.2621,1.2621,1.2621,1.2797,1.3094,1.3338,1.364,1.401,1.4318,1.4547,1.4638,1.4782,1.5245,1.5743,1.2031,0.8194,0.8919,0.7461,0.0713,-0.1784,-0.2585,-0.6278,-0.8262,-0.9985,-1.2831,-1.4809,-1.4675,-1.4725,-1.5211,-1.5139,-1.4832,-1.4458,-1.4017,-1.3594,-1.3334,-1.3185,-1.3336,-1.3631,-1.3824,-1.3843,-1.3489,-1.3601,-1.3926,-1.393,-1.414,-1.4495,-1.5234,-1.5783,-1.6323,-1.6868,-1.7319,-1.7621,-1.8531,-1.9663,-1.9937,-1.9956,-2.0443,-2.136,-2.2134,-2.2677,-2.3187,-2.3506,-2.3858,-2.369,-2.3658,-2.4302,-2.4894,-2.485,-2.4606,-2.5285,-2.6204,-2.6274,-2.5958,-2.599,-2.6186,-2.6702,-2.793,-2.9014,-2.9303,-2.908,-2.9256,-2.9557,-2.9576,-2.9661,-2.992,-3.0208,-3.0544,-3.0801,-3.0796,-3.072,-3.0571,-3.0543,-3.0532,-3.0576,-3.0595,-3.0576,-3.0548,-3.0671,-3.0878,-3.1023,-3.16,-3.1823,1.1052,1.1435,1.156,1.1685,1.1802,1.1996,1.212,1.2189,1.2305,1.2305,1.2251,1.2251,1.2313,1.2621,1.2621,1.2683,1.2867,1.3094,1.3519,1.395,1.407,1.4369,1.4666,1.4843,1.5439,1.6147,1.6241,1.3462,0.7433,0.8372,0.4863,-0.5809,-0.5292,-0.754,-1.2507,-1.3485,-1.342,-1.5048,-1.5078,-1.5085,-1.5245,-1.5282,-1.4712,-1.4576,-1.4593,-1.424,-1.3955,-1.3814,-1.3802,-1.3954,-1.4181,-1.4487,-1.4586,-1.4571,-1.4684,-1.4875,-1.4841,-1.501,-1.5381,-1.5671,-1.6264,-1.6492,-1.7028,-1.7404,-1.8009,-1.8937,-1.9572,-1.9489,-1.9669,-2.0336,-2.1149,-2.1906,-2.2501,-2.3017,-2.3424,-2.3864,-2.4019,-2.4596,-2.5282,-2.5824,-2.6158,-2.6314,-2.6816,-2.7404,-2.7574,-2.7445,-2.7665,-2.7894,-2.849,-2.931,-2.9922,-2.995,-2.9959,-3.0153,-3.0239,-3.0136,-3.0214,-3.049,-3.0625,-3.0689,-3.0745,-3.0793,-3.0704,-3.0482,-3.0356,-3.0314,-3.0348,-3.0384,-3.0364,-3.0334,-3.0285,-3.0356,-3.0369,-3.0398,-3.0685]},{"header":{"parameterUnit":"m.s-1","parameterCategory":1,"la1":31.0,"la2":29.5877,"lo1":-88.7671,"lo2":-86.6584,"dx":0.0162,"dy":0.0185,"nx":115,"ny":88,"refTime":"2022-11-28T06:00:00:Z","depth":0,"parameterNumber":3,"parameterNumberName":"V-component_of_WINDS"},"data":[0.0,0.0,0.0,0.0,0.0,0.0,0.0,0.0,0.0,0.0,0.0,0.0,0.0,0.0,0.0,0.0,0.0,0.0,0.0,0.0,0.0,0.0,0.0,0.0,0.0,0.0,0.0,0.0,0.0,0.0,0.0,0.0,0.0,0.0,0.0,0.0,0.0,0.0,0.0,0.0,0.0,0.0,0.0,0.0,0.0,0.0,0.0,0.0,0.0,0.0,0.0,0.0,0.0,0.0,0.0,0.0,0.0,0.0,0.0,0.0,0.0,0.0,0.0,0.0,0.0,0.0,0.0,0.0,0.0,0.0,0.0,0.0,0.0,0.0,0.0,0.0,0.0,0.0,0.0,0.0,0.0,0.0,0.0,0.0,0.0,0.0,0.0,0.0,0.0,0.0,0.0,0.0,0.0,0.0,0.0,0.0,0.0,0.0,0.0,0.0,0.0,0.0,0.0,0.0,0.0,0.0,0.0,0.0,0.0,0.0,0.0,0.0,0.0,0.0,0.0,0.0,0.0,0.0,0.0,0.0,0.0,0.0,0.0,0.0,0.0,0.0,0.0,0.0,0.0,0.0,0.0,0.0,0.0,0.0,0.0,0.0,0.0,0.0,0.0,0.0,0.0,0.0,0.0,0.0,0.0,0.0,0.0,0.0,0.0,0.0,0.0,0.0,0.0,0.0,0.0,0.0,0.0,0.0,0.0,0.0,0.0,0.0,0.0,0.0,0.0,0.0,0.0,0.0,0.0,0.0,0.0,0.0,0.0,0.0,0.0,0.0,0.0,0.0,0.0,0.0,0.0,0.0,0.0,0.0,0.0,0.0,0.0,0.0,0.0,0.0,0.0,0.0,0.0,0.0,0.0,0.0,0.0,0.0,0.0,0.0,0.0,0.0,0.0,0.0,0.0,0.0,0.0,0.0,0.0,0.0,0.0,0.0,0.0,0.0,0.0,0.0,0.0,0.0,0.0,0.0,0.0,0.0,0.0,0.0,0.0,0.0,0.0,0.0,0.0,0.0,0.0,0.0,0.0,0.0,0.0,0.0,0.0,0.0,0.0,0.0,0.0,0.0,0.0,0.0,0.0,0.0,0.0,0.0,0.0,0.0,0.0,0.0,0.0,0.0,0.0,0.0,0.0,0.0,0.0,0.0,0.0,0.0,0.0,0.0,0.0,0.0,0.0,0.0,0.0,0.0,0.0,0.0,0.0,0.0,0.0,0.0,0.0,0.0,0.0,0.0,0.0,0.0,0.0,0.0,0.0,0.0,0.0,0.0,0.0,0.0,0.0,0.0,0.0,0.0,0.0,0.0,0.0,0.0,0.0,0.0,0.0,0.0,0.0,0.0,0.0,0.0,0.0,0.0,0.0,0.0,0.0,0.0,0.0,0.0,0.0,0.0,0.0,0.0,0.0,0.0,0.0,0.0,0.0,0.0,0.0,0.0,0.0,0.0,0.0,0.0,0.0,0.0,0.0,0.0,0.0,0.0,0.0,0.0,0.0,0.0,0.0,0.0,0.0,0.0,0.0,0.0,0.0,0.0,0.0,0.0,0.0,0.0,0.0,0.0,0.0,0.0,0.0,0.0,0.0,0.0,0.0,0.0,0.0,0.0,0.0,0.0,0.0,0.0,0.0,0.0,0.0,0.0,0.0,0.0,0.0,0.0,0.0,0.0,0.0,0.0,0.0,0.0,0.0,0.0,0.0,0.0,0.0,0.0,0.0,0.0,0.0,0.0,0.0,0.0,0.0,0.0,0.0,0.0,0.0,0.0,0.0,0.0,0.0,0.0,0.0,0.0,0.0,0.0,0.0,0.0,0.0,0.0,0.0,0.0,0.0,0.0,0.0,0.0,0.0,0.0,0.0,0.0,0.0,0.0,0.0,0.0,0.0,0.0,0.0,0.0,0.0,0.0,0.0,0.0,0.0,0.0,0.0,0.0,0.0,0.0,0.0,0.0,0.0,0.0,0.0,0.0,0.0,0.0,0.0,0.0,0.0,0.0,0.0,0.0,0.0,0.0,0.0,0.0,0.0,0.0,0.0,0.0,0.0,0.0,0.0,0.0,0.0,0.0,0.0,0.0,0.0,0.0,0.0,0.0,0.0,0.0,0.0,0.0,0.0,0.0,0.0,0.0,0.0,0.0,0.0,0.0,0.0,0.0,0.0,0.0,0.0,0.0,0.0,0.0,0.0,0.0,0.0,0.0,0.0,0.0,0.0,0.0,0.0,0.0,0.0,0.0,0.0,0.0,0.0,0.0,0.0,0.0,0.0,0.0,0.0,0.0,0.0,0.0,0.0,0.0,0.0,0.0,0.0,0.0,0.0,0.0,0.0,0.0,0.0,0.0,0.0,0.0,0.0,0.0,0.0,0.0,0.0,0.0,0.0,0.0,0.0,0.0,0.0,0.0,0.0,0.0,0.0,0.0,0.0,0.0,0.0,0.0,0.0,0.0,0.0,0.0,0.0,0.0,0.0,0.0,0.0,0.0,0.0,0.0,0.0,0.0,0.0,0.0,0.0,0.0,0.0,0.0,0.0,0.0,0.0,0.0,0.0,0.0,0.0,0.0,0.0,0.0,0.0,0.0,0.0,0.0,0.0,0.0,0.0,0.0,0.0,0.0,0.0,0.0,0.0,0.0,0.0,0.0,0.0,0.0,0.0,0.0,0.0,0.0,0.0,0.0,0.0,0.0,0.0,0.0,0.0,0.0,0.0,0.0,0.0,0.0,0.0,0.0,0.0,0.0,0.0,0.0,0.0,0.0,0.0,0.0,0.0,0.0,0.0,0.0,0.0,0.0,0.0,0.0,0.0,0.0,0.0,0.0,0.0,0.0,0.0,0.0,0.0,0.0,0.0,0.0,0.0,0.0,0.0,0.0,0.0,0.0,0.0,0.0,0.0,0.0,0.0,0.0,0.0,0.0,0.0,0.0,0.0,0.0,0.0,0.0,0.0,0.0,0.0,0.0,0.0,0.0,0.0,0.0,0.0,0.0,0.0,0.0,0.0,0.0,0.0,0.0,0.0,0.0,0.0,0.0,0.0,0.0,0.0,0.0,0.0,0.0,0.0,0.0,0.0,0.0,0.0,0.0,0.0,0.0,0.0,0.0,0.0,0.0,0.0,0.0,0.0,0.0,0.0,0.0,0.0,0.0,0.0,0.0,0.0,0.0,0.0,0.0,0.0,0.0,0.0,0.0,0.0,0.0,0.0,0.0,0.0,0.0,0.0,0.0,0.0,0.0,0.0,0.0,0.0,0.0,0.0,0.0,0.0,0.0,0.0,0.0,0.0,0.0,0.0,0.0,0.0,0.0,0.0,0.0,0.0,0.0,0.0,0.0,0.0,0.0,0.0,0.0,0.0,0.0,0.0,0.0,0.0,0.0,0.0,0.0,0.0,0.0,0.0,0.0,0.0,0.0,0.0,0.0,0.0,0.0,0.0,0.0,0.0,0.0,0.0,0.0,0.0,0.0,0.0,0.0,0.0,0.0,0.0,0.0,0.0,0.0,0.0,0.0,0.0,0.0,0.0,0.0,0.0,0.0,0.0,0.0,0.0,0.0,0.0,0.0,0.0,0.0,0.0,0.0,0.0,0.0,0.0,0.0,0.0,0.0,0.0,0.0,0.0,0.0,0.0,0.0,0.0,0.0,0.0,0.0,0.0,0.0,0.0,0.0,0.0,0.0,0.0,0.0,0.0,0.0,0.0,0.0,0.0,0.0,0.0,0.0,0.0,0.0,0.0,0.0,0.0,0.0,0.0,0.0,0.0,0.0,0.0,0.0,0.0,0.0,0.0,0.0,0.0,0.0,0.0,0.0,0.0,0.0,0.0,0.0,0.0,0.0,0.0,0.0,0.0,0.0,0.0,0.0,0.0,0.0,0.0,0.0,0.0,0.0,0.0,0.0,0.0,0.0,0.0,0.0,0.0,0.0,0.0,0.0,0.0,0.0,0.0,0.0,0.0,0.0,0.0,0.0,0.0,0.0,0.0,0.0,0.0,0.0,0.0,0.0,0.0,0.0,0.0,0.0,0.0,0.0,0.0,0.0,0.0,0.0,0.0,0.0,0.0,0.0,0.0,0.0,0.0,0.0,0.0,0.0,0.0,0.0,0.0,0.0,0.0,0.0,0.0,0.0,0.0,0.0,0.0,0.0,0.0,0.0,0.0,0.0,0.0,0.0,0.0,0.0,0.0,0.0,0.0,0.0,0.0,0.0,0.0,0.0,0.0,0.0,0.0,0.0,0.0,0.0,0.0,0.0,0.3769,0.0,0.0,0.0,0.2751,0.0,0.0,0.0,0.0,0.0,0.0,0.0,0.0,0.0,0.0,0.0,0.0,0.0,0.0,0.0,0.0,0.0,0.0,0.0,0.0,0.0,0.0,0.0,0.0,0.0,0.0,0.0,0.0,0.0,0.0,0.0,0.0,0.0,0.0,0.0,0.0,0.0,0.0,0.0,0.0,0.0,0.0,0.0,0.0,0.0,0.0,0.0,0.0,0.0,0.0,0.0,0.0,0.0,0.0,0.0,0.0,0.0,0.0,0.0,0.0,0.0,0.0,0.0,0.0,0.0,0.0,0.0,0.0,0.0,0.0,0.0,0.0,0.0,0.0,0.0,0.0,0.0,0.0,0.0,0.0,0.0,0.0,0.0,0.0,0.0,0.0,0.0,0.0,0.0,0.0,0.0,0.0,0.0,0.0,0.0,0.0,0.0,0.0,0.0,0.0,0.0,0.0,0.0,0.0,0.0,0.0,0.0,0.0,0.0,0.0,0.3556,0.3107,0.3308,0.3222,0.2843,0.0,0.0,0.0,0.0,0.0,0.0,0.0,0.0,0.0,0.0,0.0,0.0,0.0,0.0,0.0,0.0,0.0,0.0,0.0,0.0,0.0,0.0,0.0,0.0,0.0,0.0,0.0,0.0,0.0,0.0,0.0,0.0,0.0,0.0,0.0,0.0,0.0,0.0,0.0,0.0,0.0,0.0,0.0,0.0,0.0,0.0,0.0,0.0,0.0,0.0,0.0,0.0,0.0,0.0,0.0,0.0,0.0,0.0,0.0,0.0,0.0,0.0,0.0,0.0,0.0,0.0,0.0,0.0,0.0,0.0,0.0,0.0,0.0,0.0,0.0,0.0,0.0,0.0,0.0,0.0,0.0,0.0,0.0,0.0,0.0,0.0,0.0,0.0,0.0,0.0,0.0,0.0,0.0,0.0,0.0,0.0,0.0,0.0,0.0,0.0,0.0,0.0,0.0,0.0,0.0,0.0,0.0,0.0,0.0,0.0,0.0,0.0,0.3287,0.3284,0.3195,0.0,0.0,0.0,0.0,0.0,0.0,0.0,0.0,0.0,0.0,0.0,0.0,0.0,0.0,0.0,0.0,0.0,0.0,0.0,0.0,0.0,0.0,0.0,0.0,0.0,0.0,0.0,0.0,0.0,0.0,0.0,0.0,0.0,0.0,0.0,0.0,0.0,0.0,0.0,0.0,0.0,0.0,0.0,0.0,0.0,0.0,0.0,0.0,0.0,0.0,0.0,0.0,0.0,0.0,0.0,0.0,0.0,0.0,0.0,0.0,0.0,0.0,0.0,0.0,0.0,0.0,0.0,0.0,0.0,0.0,0.0,0.0,0.0,0.0,0.0,0.0,0.0,0.0,0.0,0.0,0.0,0.0,0.0,0.0,0.0,0.0,0.0,0.0,0.0,0.0,0.0,0.0,0.0,0.0,0.0,0.0,0.0,0.0,0.0,0.0,0.0,0.0,0.0,0.0,0.0,0.0,0.0,0.0,0.0,0.0,0.344,0.3714,0.3501,0.0,0.3769,0.0,0.0,0.0,0.0,0.0,0.0,0.0,0.0,0.0,0.0,0.0,0.0,0.0,0.0,0.0,0.0,0.0,0.0,0.0,0.0,0.0,0.0,0.0,0.0,0.0,0.0,0.0,0.0,0.0,0.0,0.0,0.0,0.0,0.0,0.0,0.0,0.0,0.0,0.0,0.0,0.0,0.0,0.0,0.0,0.0,0.0,0.0,0.0,0.0,0.0,0.0,0.0,0.0,0.0,0.0,0.0,0.0,0.0,0.0,0.0,0.0,0.0,0.0,0.0,0.0,0.0,0.0,0.0,0.0,0.0,0.0,0.0,0.0,0.0,0.0,0.0,0.0,0.0,0.0,0.0,0.0,0.0,0.0,0.0,0.0,0.0,0.0,0.0,0.0,0.0,0.0,0.0,0.0,0.0,0.0,0.0,0.0,0.0,0.0,0.0,0.0,0.0,0.0,0.0,0.0,0.0,0.0,0.0,0.0,0.0,0.3712,0.386,0.3416,0.3318,0.0,0.0,0.0,0.0,0.0,0.0,0.0,0.0,0.0,0.0,0.0,0.0,0.0,0.0,0.0,0.0,0.0,0.0,0.0,0.0,0.0,0.0,0.0,0.0,0.0,0.0,0.0,0.0,0.0,0.0,0.0,0.0,0.0,0.0,0.0,0.0,0.0,0.0,0.0,0.0,0.0,0.0,0.0,0.0,0.0,0.0,0.0,0.0,0.0,0.0,0.0,0.0,0.0,0.0,0.0,0.0,0.0,0.0,0.0,0.0,0.0,0.0,0.0,0.0,0.0,0.0,0.0,0.0,0.0,0.0,0.0,0.0,0.0,0.0,0.0,0.0,0.0,0.0,0.0,0.0,0.0,0.0,0.0,0.0,0.0,0.0,0.0,0.0,0.0,0.0,0.0,0.0,0.0,0.0,0.0,0.0,0.0,0.0,0.0,0.0,0.0,0.0,0.0,0.0,0.0,0.0,0.0,0.0,0.0,0.0,0.4064,0.3777,0.3768,0.3487,0.3337,0.3323,0.0,0.0,0.0,0.0,0.0,0.0,0.0,0.0,0.0,0.0,0.0,0.0,0.0,0.0,0.0,0.0,0.0,0.0,0.0,0.0,0.0,0.0,0.0,0.0,0.0,0.0,0.0,0.0,0.0,0.0,0.0,0.0,0.0,0.0,0.0,0.0,0.0,0.0,0.0,0.0,0.0,0.0,0.0,0.0,0.0,0.0,0.0,0.0,0.0,0.0,0.0,0.0,0.0,0.0,0.0,0.0,0.0,0.0,0.0,0.0,0.0,0.0,0.0,0.0,0.0,0.0,0.0,0.0,0.0,0.0,0.0,0.0,0.0,0.0,0.0,0.0,0.0,0.0,0.0,0.0,0.0,0.0,0.0,0.0,0.0,0.0,0.0,0.0,0.0,0.0,0.0,0.0,0.0,0.0,0.0,0.0,0.0,0.0,0.0,0.0,0.0,0.0,0.0,0.0,0.0,0.0,0.0,0.0,0.4998,0.4046,0.3531,0.3521,0.3916,0.382,0.0,0.0,0.0,0.0,0.0,0.0,0.0,0.0,0.0,0.0,0.0,0.0,0.0,0.0,0.0,0.0,0.0,0.0,0.0,0.0,0.0,0.0,0.0,0.0,0.0,0.0,0.0,0.0,0.0,0.0,0.0,0.0,0.0,0.0,0.0,0.0,0.0,0.0,0.0,0.0,0.0,0.0,0.0,0.0,0.0,0.0,0.0,0.0,0.0,0.0,0.0,0.0,0.0,0.0,0.0,0.0,0.0,0.0,0.0,0.0,0.0,0.0,0.0,0.0,0.0,0.0,0.0,0.0,0.0,0.0,0.0,0.0,0.0,0.0,0.0,0.0,0.0,0.0,0.0,0.0,0.0,0.0,0.0,0.0,0.0,0.0,0.0,0.0,0.0,0.0,0.0,0.0,0.0,0.0,0.0,0.0,0.0,0.0,0.0,0.0,0.0,0.0,0.0,0.0,0.0,0.0,0.0,0.0,0.0,0.4298,0.3925,0.3596,0.3401,0.3242,0.2991,0.0,0.0,0.0,0.0,0.0,0.0,0.0,0.0,0.0,0.0,0.0,0.0,0.0,0.0,0.0,0.0,0.0,0.0,0.0,0.0,0.0,0.0,0.0,0.0,0.0,0.0,0.0,0.0,0.0,0.0,0.0,0.0,0.0,0.0,0.0,0.0,0.0,0.0,0.0,0.0,0.0,0.0,0.0,0.0,0.0,0.0,0.0,0.0,0.0,0.0,0.0,0.0,0.0,0.0,0.0,0.0,0.0,0.0,0.0,0.0,0.0,0.0,0.0,0.0,0.0,0.0,0.0,0.0,0.0,0.0,0.0,0.0,0.0,0.0,0.0,0.0,0.0,0.0,0.0,0.0,0.0,0.0,0.0,0.0,0.0,0.0,0.0,0.0,0.0,0.0,0.0,0.0,0.0,0.0,0.0,0.0,0.0,0.0,0.0,0.0,0.0,0.0,0.0,0.0,0.0,0.0,0.0,0.0,0.0,0.368,0.3706,0.3506,0.3019,0.2832,0.2509,0.0,0.0,0.0,0.0,0.0,0.0,0.0,0.0,0.0,0.0,0.0,0.0,0.0,0.0,0.0,0.0,0.0,0.0,0.0,0.0,0.0,0.0,0.0,0.0,0.0,0.0,0.0,0.0,0.0,0.0,0.0,0.0,0.0,0.0,0.0,0.0,0.0,0.0,0.0,0.0,0.0,0.0,0.0,0.0,0.0,0.0,0.0,0.0,0.0,0.0,0.0,0.0,0.0,0.0,0.0,0.0,0.0,0.0,0.0,0.0,0.0,0.0,0.0,0.0,0.0,0.0,0.0,0.0,0.0,0.0,0.0,0.0,0.0,0.0,0.0,0.0,0.0,0.0,0.0,0.0,0.0,0.0,0.0,0.0,0.0,0.0,0.0,0.0,0.0,0.0,0.0,0.0,0.0,0.0,0.0,0.0,0.0,0.0,0.0,0.0,0.0,0.0,0.0,0.0,0.0,0.0,0.0,0.0,0.3342,0.322,0.3451,0.3171,0.2432,0.2776,0.2385,0.0,0.0,0.0,0.0,0.0,0.0,0.0,0.0,0.0,0.0,0.0,0.0,0.0,0.0,0.0,0.0,0.0,0.0,0.0,0.0,0.0,0.0,0.0,0.0,0.0,0.0,0.0,0.0,0.0,0.0,0.0,0.0,0.0,0.0,0.0,0.0,0.0,0.0,0.0,0.0,0.0,0.0,0.0,0.0,0.0,0.0,0.0,0.0,0.0,0.0,0.0,0.0,0.0,0.0,0.0,0.0,0.0,0.0,0.0,0.0,0.0,0.0,0.0,0.0,0.0,0.0,0.0,0.0,0.0,0.0,0.0,0.0,0.0,0.0,0.0,0.0,0.0,0.0,0.0,0.0,0.0,0.0,0.0,0.0,0.0,0.0,0.0,0.0,0.0,0.0,0.0,0.0,0.0,0.0,0.0,0.0,0.0,0.0,0.0,0.0,0.0,0.0,0.0,0.0,0.0,0.0,0.0,0.0,0.0,0.2871,0.2852,0.2546,0.1937,0.1778,0.147,0.0,0.0,0.0,0.0,0.0,0.0,0.0,0.0,0.0,0.0,0.0,0.0,0.0,0.0,0.0,0.0,0.0,0.0,0.0,0.0,0.0,0.0,0.0,0.0,0.0,0.0,0.0,0.0,0.0,0.0,0.0,0.0,0.0,0.0,0.0,0.0,0.0,0.0,0.0,0.0,0.0,0.0,0.0,0.0,0.0,0.0,0.0,0.0,0.0,0.0,0.0,0.0,0.0,0.0,0.0,0.0,0.0,0.0,0.0,0.0,0.0,0.0,0.0,0.0,0.0,0.0,0.0,0.0,0.0,0.0,0.0,0.0,0.0,0.0,0.0,0.0,0.0,0.0,0.0,0.0,0.0,0.0,0.0,0.0,0.0,0.0,0.0,0.0,0.0,0.0,0.0,0.0,0.0,0.0,0.0,0.0,0.0,0.0,0.0,0.0,0.0,0.0,0.0,0.0,0.0,0.0,0.0,0.0,0.0,0.4821,0.445,0.4005,0.3515,0.3018,0.2082,0.0626,0.0,0.0,0.0,0.0,0.0,0.0,0.0,0.0,0.0,0.0,0.0,0.0,0.0,0.0,0.0,0.0,0.0,0.0,0.0,0.0,0.0,0.0,0.0,0.0,0.0,0.0,0.0,0.0,0.0,0.0,0.0,0.0,0.0,0.0,0.0,0.0,0.0,0.0,0.0,0.0,0.0,0.0,0.0,0.0,0.0,0.0,0.0,0.0,0.0,0.0,0.0,0.0,0.0,0.0,0.0,0.0,0.0,0.0,0.0,0.0,0.0,0.0,0.0,0.0,0.0,0.0,0.0,0.0,0.0,0.0,0.0,0.0,0.0,0.0,0.0,0.0,0.0,0.0,0.0,0.0,0.0,0.0,0.0,0.0,0.0,0.0,0.0,0.0,0.0,0.0,0.0,0.0,0.0,0.0,0.0,0.0,0.0,0.0,0.0,0.0,0.0,0.0,0.0,0.0,0.0,0.0,0.0,0.0,0.8744,0.814,0.7464,0.6719,0.5941,0.3912,0.0,0.0,0.0,0.0,0.0,0.0,0.0,0.0,0.0,0.0,0.0,0.0,0.0,0.0,0.0,0.0,0.0,0.0,0.0,0.0,0.0,0.0,0.0,0.0,0.0,0.0,0.0,0.0,0.0,0.0,0.0,0.0,0.0,0.0,0.0,0.0,0.0,0.0,0.0,0.0,0.0,0.0,0.0,0.0,0.0,0.0,0.0,0.0,0.0,0.0,0.0,0.0,0.0,0.0,0.0,0.0,0.0,0.0,0.0,0.0,0.0,0.0,0.0,0.0,0.0,0.0,0.0,0.0,0.0,0.0,0.0,0.0,0.0,0.0,0.0,0.0,0.0,0.0,0.0,0.0,0.0,0.0,0.0,0.0,0.0,0.0,0.0,0.0,0.0,0.0,0.0,0.0,0.0,0.0,0.0,0.0,0.0,0.0,0.0,0.0,0.0,0.0,0.0,0.0,0.0,0.0,0.0,0.0,0.0,1.2878,1.4362,1.3321,0.9553,0.6863,0.4658,0.0,0.0,0.0,0.0,0.0,0.0,0.0,0.0,0.0,0.0,0.0,0.0,0.0,0.0,0.0,0.0,0.0,0.0,0.0,0.0,0.0,0.0,0.0,0.0,0.0,0.0,0.0,0.0,0.0,0.0,0.0,0.0,0.0,0.0,0.0,0.0,0.0,0.0,0.0,0.0,0.0,0.0,0.0,0.0,0.0,0.0,0.0,0.0,0.0,0.0,0.0,0.0,0.0,0.0,0.0,0.0,0.0,0.0,0.0,0.0,0.0,0.0,0.0,0.0,0.0,0.0,0.0,0.0,0.0,0.0,0.0,0.0,0.0,0.0,0.0,0.0,0.0,0.0,0.0,0.0,0.0,0.0,0.0,0.0,0.0,0.0,0.0,0.0,0.0,0.0,0.0,0.0,0.0,0.0,0.0,0.0,0.0,0.0,0.0,0.0,0.0,0.0,0.0,0.0,0.0,0.0,0.0,0.0,1.2932,1.4963,1.8652,1.8865,1.5296,1.0016,0.6137,0.0,0.0,0.0,0.0,0.0,0.0,0.0,0.0,0.0,0.0,0.0,0.0,0.0,0.0,0.0,0.0,0.0,0.0,0.0,0.0,0.0,0.0,0.0,0.0,0.0,0.0,0.0,0.0,0.0,0.0,0.0,0.0,0.0,0.0,0.0,0.0,0.0,0.0,0.0,0.0,0.0,0.0,0.0,0.0,0.0,0.0,0.0,0.0,0.0,0.0,0.0,0.0,0.0,0.0,0.0,0.0,0.0,0.0,0.0,0.0,0.0,0.0,0.0,0.0,0.0,0.0,0.0,0.0,0.0,0.0,0.0,0.0,0.0,0.0,0.0,0.0,0.0,0.0,0.0,0.0,0.0,0.0,0.0,0.0,0.0,0.0,0.0,0.0,0.0,0.0,0.0,0.0,0.0,0.0,0.0,0.0,0.0,0.0,0.0,0.0,0.0,0.0,0.0,0.0,0.0,0.0,0.0,0.0,1.6036,1.6227,2.1558,2.3546,2.1587,1.3981,0.8033,0.0,0.0,0.0,0.0,0.0,0.0,0.0,0.0,0.0,0.0,0.0,0.0,0.0,0.0,0.0,0.0,0.0,0.0,0.0,0.0,0.0,0.0,0.0,0.0,0.0,0.0,0.0,0.0,0.0,0.0,0.0,0.0,0.0,0.0,0.0,0.0,0.0,0.0,0.0,0.0,0.0,0.0,0.0,0.0,0.0,0.0,0.0,0.0,0.0,0.0,0.0,0.0,0.0,0.0,0.0,0.0,0.0,0.0,0.0,0.0,0.0,0.0,0.0,0.0,0.0,0.0,0.0,0.0,0.0,0.0,0.0,0.0,0.0,0.0,0.0,0.0,0.0,0.0,0.0,0.0,0.0,0.0,0.0,0.0,0.0,0.0,0.0,0.0,0.0,0.0,0.0,0.0,0.0,0.0,0.0,0.0,0.0,0.0,0.0,0.0,0.0,0.0,0.0,0.0,0.0,0.0,0.0,0.0,1.759,2.0574,2.3406,2.3968,2.2116,1.4464,0.9535,0.0,0.0,0.0,0.0,0.0,0.0,0.0,0.0,0.0,0.0,0.0,0.0,0.0,0.0,0.0,0.0,0.0,0.0,0.0,0.0,0.0,0.0,0.0,0.0,0.0,0.0,0.0,0.0,0.0,0.0,0.0,0.0,0.0,0.0,0.0,0.0,0.0,0.0,0.0,0.0,0.0,0.0,0.0,0.0,0.0,0.0,0.0,0.0,-0.8011,0.0,0.0,0.0,0.0,0.0,0.0,0.0,0.0,0.0,0.0,0.0,0.0,0.0,0.0,0.0,0.0,0.0,0.0,0.0,0.0,0.0,0.0,0.0,0.0,0.0,0.0,0.0,0.0,0.0,0.0,0.0,0.0,0.0,0.0,0.0,0.0,0.0,0.0,0.0,0.0,0.0,0.0,0.0,0.0,0.0,0.0,0.0,0.0,0.0,0.0,0.0,0.0,0.0,0.0,0.0,0.0,0.0,0.0,0.0,1.813,2.1673,2.4012,2.4319,2.2367,1.6114,1.1399,0.0,0.0,0.0,0.0,0.0,0.0,0.0,0.0,0.0,0.0,0.0,0.0,0.0,0.0,0.0,0.0,0.0,0.0,0.0,0.0,0.0,0.0,0.0,0.0,0.0,0.0,0.0,0.0,0.0,0.0,0.0,0.0,0.0,0.0,0.0,0.0,0.0,0.0,0.0,0.0,0.0,0.0,0.0,0.0,0.0,0.0,0.0,0.0,0.0,0.0,0.0,0.0,0.0,0.0,0.0,0.0,0.0,0.0,0.0,0.0,0.0,0.0,0.0,0.0,0.0,0.0,0.0,0.0,0.0,0.0,0.0,0.0,0.0,0.0,0.0,0.0,0.0,0.0,0.0,0.0,0.0,0.0,0.0,0.0,0.0,0.0,0.0,0.0,0.0,0.0,0.0,0.0,0.0,0.0,0.0,0.0,0.0,0.0,0.0,0.0,0.0,0.0,0.0,0.0,0.0,0.0,0.0,1.4492,1.8436,2.2103,2.434,2.4579,2.2717,1.7725,1.2936,0.8575,0.0,0.0,0.0,0.0,0.0,0.0,0.0,0.0,0.0,0.0,0.0,0.0,0.0,0.0,0.0,0.0,0.0,0.0,0.0,0.0,0.0,0.0,0.0,0.0,0.0,0.0,0.0,0.0,0.0,0.0,0.0,0.0,0.0,0.0,0.0,0.0,0.0,0.0,-0.6053,-0.5684,0.0,0.0,0.0,0.0,0.0,0.0,0.0,0.0,-0.8506,0.0,0.0,0.0,0.0,0.0,0.0,0.0,0.0,0.0,0.0,0.0,0.0,0.0,0.0,0.0,0.0,0.0,0.0,0.0,0.0,0.0,0.0,0.0,0.0,0.0,0.0,0.0,0.0,0.0,0.0,0.0,0.0,0.0,0.0,0.0,0.0,0.0,0.0,0.0,0.0,0.0,0.0,0.0,0.0,0.0,0.0,0.0,0.0,0.0,0.0,0.0,0.0,0.0,0.0,0.0,0.0,1.3982,1.5817,1.9509,2.5168,2.5707,2.4756,2.2259,1.7106,1.2615,0.9076,0.0,0.0,0.0,0.0,0.0,0.0,0.0,0.0,0.0,0.0,0.0,0.0,0.0,0.0,0.0,0.0,0.0,0.0,0.0,0.0,0.0,0.0,0.0,0.0,0.0,0.0,0.0,0.0,0.0,0.0,0.0,0.0,0.0,0.0,0.0,0.0,0.0,0.0,0.0,-0.9044,-0.9179,0.0,0.0,0.0,0.0,0.0,0.0,0.0,0.0,-0.8776,0.0,0.0,0.0,0.0,0.0,0.0,0.0,0.0,0.0,0.0,0.0,0.0,0.0,0.0,0.0,0.0,0.0,0.0,0.0,0.0,0.0,0.0,0.0,0.0,0.0,0.0,0.0,0.0,0.0,0.0,0.0,0.0,0.0,0.0,0.0,0.0,0.0,0.0,0.0,0.0,0.0,0.0,0.0,0.0,0.0,0.0,0.0,0.0,0.0,0.0,0.0,0.0,0.0,0.0,0.0,1.3934,1.6894,2.0624,2.526,2.5484,2.4374,2.1999,1.7257,1.2913,0.0,0.0,0.0,0.0,0.0,0.0,0.0,0.0,0.0,0.0,0.0,0.0,0.0,0.0,0.0,0.0,0.0,0.0,0.0,0.0,0.0,0.0,0.0,0.0,0.0,0.0,0.0,0.0,0.0,0.0,0.0,0.0,0.0,0.0,0.0,0.0,0.0,0.0,0.0,0.0,-1.1243,-1.2102,-1.5175,0.0,0.0,0.0,0.0,0.0,0.0,-0.9521,-0.9348,0.0,0.0,0.0,0.0,0.0,0.0,0.0,0.0,0.0,0.0,0.0,0.0,0.0,0.0,0.0,0.0,0.0,0.0,0.0,0.0,0.0,0.0,0.0,0.0,0.0,0.0,0.0,0.0,0.0,0.0,0.0,0.0,0.0,0.0,0.0,0.0,0.0,0.0,0.0,0.0,0.0,0.0,0.0,0.0,0.0,0.0,0.0,0.0,0.0,0.0,0.0,0.0,0.0,0.0,0.0,1.3262,1.743,2.1166,2.4259,2.4592,2.3558,2.1111,1.6408,1.2265,0.0,0.0,0.0,0.0,0.0,0.0,0.0,0.0,0.0,0.0,0.0,0.0,0.0,0.0,0.0,0.0,0.0,0.0,0.0,0.0,0.0,0.0,0.0,0.0,0.0,0.0,0.0,0.0,0.0,0.0,0.0,0.0,0.0,0.0,0.0,0.0,0.0,0.0,0.0,0.0,0.0,-1.4381,-1.764,-1.414,0.0,0.0,0.0,0.0,-1.0363,-1.0267,0.0,0.0,0.0,0.0,0.0,0.0,0.0,0.0,0.0,0.0,0.0,0.0,0.0,0.0,0.0,0.0,0.0,0.0,0.0,0.0,0.0,0.0,0.0,0.0,0.0,0.0,0.0,0.0,0.0,0.0,0.0,0.0,0.0,0.0,0.0,0.0,0.0,0.0,0.0,0.0,0.0,0.0,0.0,0.0,0.0,0.0,0.0,0.0,0.0,0.0,0.0,0.0,0.0,0.0,0.0,0.0,1.2827,1.68,2.0146,2.2732,2.3479,2.2144,1.8738,1.2831,0.8893,0.0,0.0,0.0,0.0,0.0,0.0,0.0,0.0,0.0,0.0,0.0,0.0,0.0,0.0,0.0,0.0,0.0,0.0,0.0,0.0,0.0,0.0,0.0,0.0,0.0,0.0,0.0,0.0,0.0,0.0,0.0,0.0,0.0,0.0,0.0,0.0,0.0,0.0,0.0,0.0,0.0,-1.5389,-1.7485,-1.472,-1.2423,0.0,0.0,-1.1305,-1.0795,-1.0893,0.0,0.0,0.0,0.0,0.0,0.0,0.0,0.0,0.0,0.0,0.0,0.0,0.0,0.0,0.0,0.0,0.0,0.0,0.0,0.0,0.0,0.0,0.0,0.0,0.0,0.0,0.0,0.0,0.0,0.0,0.0,0.0,0.0,0.0,0.0,0.0,0.0,0.0,0.0,0.0,0.0,0.0,0.0,0.0,0.0,0.0,0.0,0.0,0.0,0.0,0.0,0.0,0.0,0.0,0.0,1.0129,1.285,1.7821,2.1181,2.2611,2.2035,2.0187,1.7008,1.1157,0.7273,0.0,0.0,0.0,0.0,0.0,0.0,0.0,0.0,0.0,0.0,0.0,0.0,0.0,0.0,0.0,0.0,0.0,0.0,0.0,0.0,0.0,0.0,0.0,0.0,0.0,0.0,0.0,0.0,0.0,0.0,0.0,0.0,0.0,0.0,0.0,0.0,0.0,0.0,0.0,0.0,0.0,0.0,-1.6369,-1.4428,0.0,0.0,0.0,-1.1937,-1.2001,0.0,0.0,0.0,0.0,0.0,0.0,0.0,0.0,0.0,0.0,0.0,0.0,0.0,0.0,0.0,0.0,0.0,0.0,0.0,0.0,0.0,0.0,0.0,0.0,0.0,0.0,0.0,0.0,0.0,0.0,0.0,0.0,0.0,0.0,0.0,0.0,0.0,0.0,0.0,0.0,0.0,0.0,0.0,0.0,0.0,0.0,0.0,0.0,0.0,0.0,0.0,0.0,0.0,0.0,0.0,0.0,0.0,1.2625,1.8481,2.1715,2.1991,2.0676,1.8413,1.5204,1.0031,0.0,0.0,0.0,0.0,0.0,0.0,0.0,0.0,0.0,0.0,0.0,0.0,0.0,0.0,0.0,0.0,0.0,0.0,0.0,0.0,0.0,0.0,0.0,0.0,0.0,0.0,0.0,-0.2622,0.0,0.0,0.0,0.0,0.0,0.0,0.0,0.0,0.0,0.0,0.0,0.0,0.0,0.0,-1.2553,-1.4747,-1.3951,-1.3221,0.0,0.0,-1.2662,-1.3022,-1.2672,-1.2347,0.0,0.0,0.0,0.0,0.0,0.0,0.0,0.0,0.0,0.0,0.0,0.0,0.0,0.0,0.0,0.0,0.0,0.0,0.0,0.0,0.0,0.0,0.0,0.0,0.0,0.0,0.0,0.0,0.0,0.0,0.0,0.0,0.0,0.0,0.0,0.0,0.0,0.0,0.0,0.0,0.0,0.0,0.0,0.0,0.0,0.0,0.0,0.0,0.0,0.0,0.0,0.0,0.0,0.0,1.0658,1.195,1.7949,2.0812,2.0121,1.9431,1.7216,1.3303,0.9208,0.5839,0.0,0.0,0.0,0.0,0.0,0.0,0.0,0.0,0.0,0.0,0.0,0.0,0.0,0.0,0.0,0.0,0.0,0.0,0.0,0.0,0.0,0.0,0.0,0.0,0.0,0.0,0.0,0.0,0.0,0.0,0.0,0.0,0.0,0.0,0.0,0.0,0.0,0.0,0.0,0.0,0.0,-1.1788,-1.2291,-1.3587,-1.3887,0.0,-1.2807,-1.3446,-1.3652,-1.3268,-1.2604,-1.1552,0.0,0.0,0.0,0.0,0.0,0.0,0.0,0.0,0.0,0.0,0.0,0.0,0.0,0.0,0.0,0.0,0.0,0.0,0.0,0.0,0.0,0.0,0.0,0.0,0.0,0.0,0.0,0.0,0.0,0.0,0.0,0.0,0.0,0.0,0.0,0.0,0.0,0.0,0.0,0.0,0.0,0.0,0.0,0.0,0.0,0.0,0.0,0.0,0.0,0.0,0.0,0.0,0.0,1.1421,1.2791,1.8461,2.1161,2.0597,1.8452,1.5119,1.0599,0.6923,0.3773,0.0,0.0,0.0,0.0,0.0,0.0,0.0,0.0,0.0,0.0,0.0,0.0,0.0,0.0,0.0,0.0,0.0,0.0,0.0,0.0,0.0,0.0,0.0,0.0,0.0,0.0,0.0,0.0,-1.0101,-0.9849,-0.7344,0.0,0.0,0.0,0.0,0.0,0.0,0.0,0.0,0.0,0.0,-1.3594,-1.2982,-1.3423,0.0,0.0,-1.3057,-1.3041,-1.4223,-1.3659,-1.3275,-1.3807,-1.3488,0.0,0.0,0.0,0.0,0.0,0.0,0.0,0.0,0.0,0.0,0.0,0.0,0.0,0.0,0.0,0.0,0.0,0.0,0.0,0.0,0.0,0.0,0.0,0.0,0.0,0.0,0.0,0.0,0.0,0.0,0.0,0.0,0.0,0.0,0.0,0.0,0.0,0.0,0.0,0.0,0.0,0.0,0.0,0.0,0.0,0.0,0.0,0.0,0.0,0.0,0.0,0.0,1.154,1.2925,1.8533,2.1128,2.0481,1.7572,1.3809,0.9144,0.5747,0.2626,0.0,0.0,0.0,0.0,0.0,0.0,0.0,0.0,0.0,0.0,0.0,0.0,0.0,0.0,0.0,0.0,0.0,0.0,0.0,0.0,0.0,0.0,0.0,0.0,0.0,0.0,0.0,0.0,-1.1534,-1.0653,-0.753,0.0,0.0,0.0,0.0,0.0,0.0,0.0,0.0,0.0,0.0,-1.4586,-1.4239,-1.4081,-1.4143,-1.4562,-1.3714,-1.3451,-1.4616,-1.4104,-1.3869,-1.4651,0.0,0.0,0.0,0.0,0.0,0.0,0.0,0.0,0.0,0.0,0.0,0.0,0.0,0.0,0.0,0.0,0.0,0.0,0.0,0.0,0.0,0.0,0.0,0.0,0.0,0.0,0.0,0.0922,0.0,0.0,0.0403,0.0,0.0,0.0,0.0,0.0,0.0,0.0,0.0,0.0,0.0,0.0,0.0,0.0,0.0,0.0,0.0,0.0,0.0,0.0,0.0,0.0,0.0,1.0719,1.1903,1.7999,2.0468,1.9086,1.6949,1.3659,0.9334,0.6153,0.306,0.005,0.0,0.0,0.0,0.0,0.0,0.0,0.0,0.0,0.0,0.0,0.0,0.0,0.0,0.0,0.0,0.0,0.0,0.0,0.0,0.0,0.0,0.0,0.0,0.0,0.0,0.0,-0.636,-0.7682,-0.8273,0.0,0.0,0.0,0.0,0.0,0.0,0.0,0.0,0.0,-1.1797,-1.2983,-1.4246,-1.577,-1.5793,-1.5321,-1.4482,-1.4845,-1.5108,-1.4756,-1.462,-1.4275,0.0,0.0,0.0,0.0,0.0,0.0,0.0,0.0,0.0,0.0,0.0,0.0,0.0,0.0,0.0,0.0,0.0,0.0,0.0,0.0,0.0,0.0,0.0,0.0,0.0,0.0,0.0,0.2595,0.2026,0.0,0.0,0.0,0.0,0.0,0.0,0.0,0.0,0.0,0.0,0.0,0.4969,0.5372,0.0,0.0,0.0,0.0,0.0,0.0,0.0,0.0,0.0,0.0,0.0,0.0,1.1385,1.2184,1.8491,2.1109,1.9383,1.6618,1.337,0.9623,0.5898,0.2707,0.0,0.0,0.0,0.0,0.0,0.0,0.0,0.0,0.0,0.0,0.0,0.0,0.0,0.0,0.0,0.0,0.0,0.0,0.0,0.0,0.0,0.0,0.0,0.0,0.0,0.0,-0.7934,0.0,0.0,0.0,0.0,0.0,0.0,0.0,0.0,0.0,0.0,0.0,-1.2196,-1.271,-1.4376,-1.5674,-1.5978,-1.6248,-1.6204,0.0,0.0,0.0,0.0,0.0,0.0,0.0,0.0,0.0,0.0,0.0,0.0,0.0,0.0,-1.505,-1.3257,-1.2261,-1.1727,-1.1822,0.0,0.0,0.0,0.0,0.0,0.0,0.0,0.0,0.0,0.0,0.0,0.0,0.0,0.0,0.3541,0.0,0.269,0.0,0.0,0.0,0.0,0.0,0.0,0.0,0.0,0.5186,0.6034,0.6368,0.686,0.7054,0.0,0.6544,0.5265,0.0,0.0,0.0,0.0,0.0,0.0,0.0,0.0,1.1534,1.232,1.8768,2.1269,1.943,1.6785,1.3596,0.9788,0.5071,0.1773,-0.0053,-0.1306,-0.2381,0.0,0.0,0.0,0.0,0.0,0.0,0.0,0.0,0.0,0.0,0.0,0.0,0.0,0.0,0.0,0.0,0.0,0.0,0.0,0.0,0.0,0.0,0.0,-0.8971,0.0,0.0,0.0,0.0,0.0,0.0,0.0,0.0,0.0,-0.9312,-1.229,-1.446,-1.4605,-1.6029,-1.6803,-1.6087,0.0,0.0,0.0,0.0,0.0,0.0,0.0,-1.5432,-1.6039,-1.5473,-1.4798,-1.4367,-1.2532,-1.2418,-1.6293,0.0,0.0,-1.4887,-1.3891,-1.3394,-1.355,-1.416,-1.4612,-1.4475,-1.7119,-1.936,0.0,0.0,0.0,0.0,0.0,0.0,0.0,0.0,0.4556,0.4063,0.0,0.3589,0.0,0.0,0.0,0.0,0.2541,0.3792,0.0,0.0,0.7907,0.8848,0.8017,0.8413,0.8935,0.9326,0.7799,0.7228,0.7546,0.7141,0.0,0.0,0.0,0.0,0.0,0.0,1.1187,1.2466,1.8702,2.1051,1.9057,1.734,1.4221,0.9627,0.383,0.0484,-0.0116,-0.1052,-0.2323,-0.399,-0.2246,0.0,0.0,0.0,0.0,0.0,0.0,0.0,0.0,0.0,0.0,0.0,0.0,0.0,0.0,0.0,0.0,0.0,0.0,0.0,0.0,-0.8695,0.0,0.0,0.0,0.0,0.0,0.0,0.0,0.0,0.0,0.0,-1.2807,-1.4804,-1.6471,-1.7287,0.0,0.0,0.0,0.0,-1.8238,-2.1185,-1.9425,-1.7655,-1.7583,-1.7283,-1.6704,-1.5543,0.0,0.0,-1.5155,-1.5255,-1.5746,-1.739,-1.7673,-1.7697,-1.7665,-1.644,-1.5631,-1.58,-1.6355,-1.6939,-1.7242,-1.904,-2.1203,0.6383,0.0,0.0,0.0,0.0,0.4897,0.515,0.5639,0.5734,0.5484,0.4927,0.5092,0.0,0.0,0.0,0.0,0.0,0.0,0.4788,0.6229,0.7543,0.8476,0.9105,0.9694,1.0252,1.0721,1.0574,1.0976,1.1816,1.2236,0.9223,0.3134,0.0,0.0,0.0,0.0,1.2432,1.4315,1.922,2.0619,1.8119,1.6478,1.306,0.7719,0.4186,0.2121,0.1517,0.0103,-0.1251,-0.2401,-0.275,0.0,0.0,0.0,0.0,0.0,0.0,0.0,0.0,0.0,0.0,0.0,0.0,0.0,0.0,0.0,0.0,0.0,0.0,0.0,-0.6381,-0.9596,-1.0877,0.0,0.0,0.0,0.0,0.0,0.0,0.0,0.0,0.0,-1.4846,-1.6764,-1.7605,0.0,0.0,-1.9102,-1.7112,-1.741,-1.7712,-1.7459,-1.7378,0.0,-1.63,-1.5997,-1.5911,-1.6178,-1.6267,-1.6244,-1.618,-1.5732,-1.6083,-1.8201,-1.8898,-1.8998,-1.8312,-1.7666,-1.72,-1.7224,-1.7401,-1.7774,-1.8563,-1.9346,-2.0396,0.7327,0.6873,0.6038,0.5756,0.5788,0.562,0.5864,0.6401,0.6503,0.6256,0.5815,0.5898,0.5206,0.3895,0.3492,0.0,0.0,0.0,0.5375,0.7203,0.8036,0.8843,0.9576,1.05,1.1189,1.1635,1.1828,1.256,1.3758,1.3394,1.0976,0.6521,0.0,0.0,0.7451,1.109,1.3664,1.5254,1.9221,2.02,1.7782,1.5415,1.1965,0.7569,0.5089,0.3454,0.2641,0.0939,-0.0481,-0.1548,-0.3234,-0.4471,0.0,0.0,0.0,0.0,0.0,0.0,0.0,0.0,0.0,0.0,0.0,-0.5733,-0.3396,0.0,0.0,0.0,-0.7931,-0.8877,-0.9779,-1.1889,0.0,0.0,0.0,0.0,0.0,0.0,0.0,-1.4616,-1.545,-1.6323,-1.7754,-1.8927,-1.9135,-1.774,-1.8956,-1.9647,-1.8729,0.0,-1.7718,-1.7226,-1.7434,-1.7446,-1.6788,-1.632,-1.6074,-1.6233,-1.6215,-1.6248,-1.6311,-1.5978,-1.6507,-1.8309,-1.9436,-1.9798,-1.9226,-1.9095,-1.8974,-1.8722,-1.8836,-1.9258,-2.0,-2.0443,-2.1225,0.8049,0.7992,0.688,0.6532,0.6764,0.6526,0.6625,0.7025,0.681,0.6536,0.6261,0.6245,0.5444,0.4013,0.3102,0.0,0.5157,0.526,0.6235,0.7913,0.9138,0.9618,0.9584,1.0848,1.1727,1.207,1.1874,1.2592,1.3914,1.2292,1.15,1.166,1.2437,1.2086,1.0846,1.2958,1.4599,1.5491,1.8605,1.9415,1.7655,1.4124,1.105,0.8595,0.6389,0.4615,0.3392,0.1634,0.0098,-0.1185,-0.3691,-0.58,-0.7277,0.0,0.0,0.0,0.0,0.0,0.0,0.0,0.0,0.0,0.0,0.0,0.0,0.0,0.0,0.0,-1.2231,0.0,-1.5669,-1.4754,0.0,0.0,0.0,-1.1515,-1.2796,-1.447,-1.6061,-1.7443,0.0,0.0,-2.0757,-2.0904,-2.0676,-2.0024,-1.9606,-1.9633,-2.036,-1.8795,-1.8069,-1.8943,-1.8645,-1.8269,-1.7991,-1.7482,-1.6789,-1.6088,-1.5826,-1.5898,-1.5944,-1.6187,-1.6909,-1.8525,-1.9631,-2.0321,-2.0321,-2.0657,-2.0917,-2.0321,-2.0501,-2.0974,-2.1445,-2.2203,-2.3105,0.8567,0.8106,0.8069,0.7526,0.6702,0.6649,0.6556,0.644,0.6598,0.6671,0.6577,0.6789,0.6659,0.6299,0.5581,0.5798,0.6571,0.6313,0.6789,0.7855,0.8946,0.9557,0.9761,1.0457,1.1239,1.2053,1.1799,1.2657,1.4457,1.4169,1.3641,1.3068,1.3524,1.2574,1.0388,1.137,1.305,1.5196,1.6163,1.6573,1.6348,1.2793,1.0446,0.9627,0.7872,0.5967,0.401,0.3201,0.1517,-0.1136,-0.4475,-0.611,-0.5736,-0.6391,0.0,0.0,0.0,0.0,0.0,0.0,0.0,0.0,0.0,-0.9259,-0.5789,0.0,-1.1221,0.0,-1.5567,-1.6905,-1.4956,-1.4999,0.0,0.0,-1.3735,-1.3433,-1.7056,-1.6761,-1.683,-1.84,-1.8606,-1.8892,-1.9553,-1.9891,-2.0151,-2.0329,-2.0785,-2.0454,-1.8648,-1.841,-1.8234,-1.7955,-1.7561,-1.7172,-1.7358,-1.7368,-1.7159,-1.6631,-1.6606,-1.6503,-1.5961,-1.6202,-1.719,-1.9631,-2.0979,-2.1479,-2.114,-2.1417,-2.1758,-2.1945,-2.1783,-2.1745,-2.2513,-2.2975,-2.3534,0.8942,0.8567,0.8573,0.809,0.7235,0.6972,0.6603,0.6232,0.6386,0.6495,0.649,0.6431,0.6431,0.6381,0.5887,0.5996,0.6554,0.6392,0.6899,0.8097,0.9022,0.9767,1.0221,1.082,1.1352,1.1776,1.1783,1.2594,1.3993,1.4283,1.4348,1.4227,1.4716,1.3618,1.105,1.1044,1.1724,1.2936,1.3586,1.4362,1.5154,1.2676,1.0564,0.8934,0.7185,0.5061,0.2608,0.144,0.0044,-0.1762,-0.4357,-0.557,-0.5245,-0.6426,-0.6989,0.0,0.0,0.0,0.0,0.0,0.0,0.0,0.0,0.0,0.0,0.0,-1.3236,-1.2895,-1.6237,-1.7636,-1.571,-1.6528,-1.7355,-1.789,-1.6521,-1.6622,-1.9233,-1.8505,-1.8287,-1.9472,-1.9336,-1.9263,-1.9656,-2.0275,-2.0628,-2.0538,-2.1372,-2.1125,-1.9128,-1.8866,-1.8754,-1.8046,-1.8054,-1.8012,-1.7709,-1.7786,-1.7754,-1.7424,-1.76,-1.7501,-1.6363,-1.6694,-1.7929,-2.0207,-2.1506,-2.1969,-2.1541,-2.186,-2.2406,-2.2921,-2.3128,-2.3274,-2.3788,-2.4261,-2.4816,0.9316,0.9159,0.889,0.8389,0.7817,0.7405,0.6897,0.6337,0.6337,0.6282,0.6173,0.5841,0.5677,0.5622,0.523,0.5407,0.6041,0.6041,0.688,0.8381,0.9195,0.9946,1.0592,1.1316,1.1581,1.1407,1.1718,1.2364,1.3188,1.3579,1.4075,1.4665,1.5149,1.4127,1.1618,1.0956,1.0474,1.0156,1.1294,1.2559,1.3847,1.225,1.0021,0.7209,0.5375,0.3184,0.0544,-0.1195,-0.2284,-0.2706,-0.4157,-0.4983,-0.507,-0.6546,-0.7556,0.0,-0.7714,0.0,0.0,0.0,0.0,0.0,0.0,0.0,0.0,-1.4126,-1.3996,-1.2874,-1.5837,-1.7697,-1.7401,-1.8527,-1.9286,-1.9352,-1.9494,-1.9677,-1.9899,-1.9675,-1.9701,-2.0378,-2.0259,-2.0197,-2.0342,-2.1212,-2.1495,-2.0983,-2.1675,-2.1788,-2.0531,-1.9915,-1.953,-1.8922,-1.9515,-1.9517,-1.8855,-1.8691,-1.8513,-1.8244,-1.8525,-1.8506,-1.6976,-1.7655,-1.8927,-2.056,-2.1793,-2.2263,-2.1766,-2.2328,-2.2995,-2.3761,-2.4333,-2.4768,-2.4965,-2.546,-2.6132,0.9844,0.9263,0.9577,0.8896,0.7497,0.7904,0.7628,0.6923,0.6923,0.6663,0.6232,0.6123,0.6064,0.6064,0.5896,0.6036,0.6417,0.6308,0.6968,0.8254,0.8847,0.9494,1.0108,1.0458,1.0828,1.1118,1.0997,1.1679,1.3208,1.3266,1.2987,1.2345,1.2371,1.1205,0.9106,0.0,0.0,0.0,1.0644,1.1348,1.1195,0.7717,0.5394,0.4449,0.35,0.0,0.0199,-0.0359,-0.1372,-0.3065,-0.555,0.0,0.0,0.0,0.0,0.0,0.0,0.0,0.0,0.0,0.0,0.0,-1.3198,-1.3179,-1.3707,-1.5555,-1.6229,-1.5048,-1.7018,-1.8838,-1.9799,-1.9703,-1.9645,-1.9682,-1.9551,-1.9555,-1.9803,-1.9515,-1.9501,-2.0091,-2.0221,-2.0377,-2.0661,-2.133,-2.1787,-2.1758,-2.2261,-2.2296,-2.1601,-2.1082,-2.0683,-2.0307,-2.027,-2.0131,-2.0016,-1.9734,-1.9423,-1.9121,-1.9109,-1.9016,-1.8352,-1.9036,-2.0205,-2.1595,-2.2785,-2.3494,-2.3274,-2.3493,-2.3909,-2.4752,-2.5259,-2.554,-2.5594,-2.5742,-2.5957,0.9892,0.9474,0.9517,0.8945,0.0,0.8366,0.8111,0.7443,0.7315,0.7178,0.7025,0.6712,0.6712,0.6923,0.6815,0.6939,0.7208,0.6926,0.7522,0.8807,0.8735,0.9253,1.0281,1.0192,1.031,1.0622,1.0565,1.1182,1.2335,1.2491,1.2513,1.2451,1.2619,1.1916,1.0392,1.0571,1.0606,1.0417,1.0604,1.119,1.2101,0.9506,0.7469,0.6313,0.5259,0.0,0.0,0.0,0.0,0.0,0.0,0.0,0.0,0.0,0.0,-1.1196,-1.0081,-0.9966,-1.1444,-1.2219,-1.3544,-1.5604,-1.5783,-1.575,-1.5687,-1.6848,-1.7429,-1.7061,-1.8102,-1.9224,-2.0273,-2.0278,-2.0273,-2.0277,-2.01,-2.003,-2.022,-2.0125,-2.0182,-2.0671,-2.0873,-2.1087,-2.1318,-2.2094,-2.2547,-2.2554,-2.3103,-2.3289,-2.2632,-2.203,-2.1623,-2.1657,-2.0868,-2.0547,-2.0858,-2.066,-2.0245,-1.9862,-2.0042,-1.9978,-1.9436,-2.0206,-2.1376,-2.2589,-2.3638,-2.4188,-2.393,-2.4168,-2.4728,-2.5449,-2.6195,-2.659,-2.6556,-2.6419,-2.635,0.9787,0.9618,0.9244,0.8905,0.8721,0.8643,0.835,0.7836,0.0,0.0,0.0,0.723,0.73,0.7676,0.7561,0.7665,0.7994,0.7527,0.8097,0.9475,0.8759,0.9153,1.0338,0.9936,0.9859,0.998,1.0142,1.0637,1.142,1.1566,1.2033,1.2803,1.3212,1.3032,1.2286,1.2609,1.2528,1.194,1.0747,1.1085,1.295,1.1621,1.0036,0.8307,0.718,0.5676,0.382,0.2226,0.1192,0.0806,-0.0257,-0.2004,-0.4456,-0.5154,-0.6503,-0.8836,-1.0249,-1.1825,-1.3671,-1.484,-1.612,-1.7591,-1.7844,-1.791,-1.776,-1.78,-1.803,-1.861,-1.8784,-1.9212,-2.014,-2.0416,-2.0667,-2.0854,-2.0657,-2.0639,-2.1007,-2.0916,-2.0959,-2.143,-2.1773,-2.1979,-2.1964,-2.2918,-2.3506,-2.3253,-2.3631,-2.4158,-2.3634,-2.286,-2.2449,-2.2678,-2.1799,-2.1188,-2.1541,-2.1444,-2.0993,-2.051,-2.0894,-2.1091,-2.0673,-2.1215,-2.2296,-2.3319,-2.423,-2.4511,-2.4353,-2.4808,-2.5524,-2.6087,-2.697,-2.7612,-2.7413,-2.7224,-2.7066,0.9671,0.9477,0.9283,0.8959,0.8556,0.8483,0.826,0.793,0.7554,0.7398,0.7298,0.7518,0.7563,0.7526,0.7511,0.7681,0.7955,0.7499,0.8122,0.9427,0.8855,0.8975,0.964,0.9296,0.9268,0.9564,0.9191,0.9636,1.0615,1.0573,1.0819,1.1239,1.12,1.1318,1.1522,1.1787,1.1995,1.2211,1.0714,0.9768,0.941,0.7843,0.664,0.5844,0.5584,0.4911,0.4068,0.3064,0.1891,0.0858,-0.0144,-0.1471,-0.3205,-0.4897,-0.6828,-0.885,-1.0352,-1.2406,-1.5091,-1.5102,-1.5582,-1.7133,-1.7898,-1.817,-1.8048,-1.7888,-1.807,-1.8682,-1.8499,-1.8849,-2.0056,-2.0032,-2.0303,-2.1108,-2.0771,-2.0895,-2.1962,-2.1491,-2.1209,-2.1768,-2.2686,-2.2807,-2.2227,-2.3264,-2.3982,-2.36,-2.3569,-2.3881,-2.4238,-2.3608,-2.3024,-2.3083,-2.2694,-2.2314,-2.2172,-2.2021,-2.1547,-2.1126,-2.1479,-2.156,-2.0871,-2.1805,-2.2965,-2.3595,-2.4379,-2.4942,-2.5319,-2.5635,-2.6106,-2.6757,-2.7289,-2.7565,-2.7823,-2.7908,-2.7805,0.9908,1.0005,0.9589,0.9148,0.8747,0.8307,0.7967,0.7738,0.7715,0.7758,0.7788,0.7656,0.7725,0.7951,0.7852,0.8021,0.8384,0.7827,0.8061,0.8908,0.8457,0.832,0.8589,0.8433,0.8364,0.8429,0.8374,0.8651,0.9141,0.934,0.9632,1.0018,1.0916,1.1609,1.2101,1.307,1.3822,1.4144,1.258,1.1674,1.1489,1.1202,1.0927,1.0606,1.0354,0.9985,0.9533,0.8027,0.6321,0.4402,0.284,0.1142,-0.0704,-0.2846,-0.4971,-0.7058,-0.8976,-1.0709,-1.2342,-1.4337,-1.5987,-1.7245,-1.7625,-1.7919,-1.8082,-1.8031,-1.7986,-1.7995,-1.8219,-1.8611,-1.9208,-1.9741,-2.0302,-2.0799,-2.0797,-2.108,-2.1668,-2.1663,-2.1631,-2.2123,-2.2901,-2.3215,-2.2836,-2.3522,-2.393,-2.3615,-2.3451,-2.3599,-2.416,-2.3353,-2.2698,-2.2876,-2.2499,-2.2152,-2.2125,-2.1886,-2.1484,-2.0999,-2.1205,-2.1426,-2.1376,-2.2345,-2.3455,-2.49,-2.5411,-2.5631,-2.6123,-2.628,-2.659,-2.7004,-2.7522,-2.7829,-2.8047,-2.8228,-2.8299,1.0229,1.0397,0.9876,0.9421,0.907,0.8357,0.7904,0.767,0.7795,0.786,0.7881,0.7645,0.7753,0.8084,0.7942,0.8075,0.8379,0.7947,0.7985,0.8305,0.788,0.7655,0.7604,0.7449,0.7294,0.7245,0.7372,0.7515,0.7662,0.7954,0.8544,0.9384,1.0995,1.2252,1.308,1.4381,1.5226,1.5417,1.4544,1.4056,1.4102,1.5009,1.5433,1.5293,1.5062,1.477,1.4289,1.2321,1.0157,0.7898,0.556,0.3517,0.1912,-0.0835,-0.3054,-0.4537,-0.6821,-0.863,-0.9592,-1.3169,-1.5802,-1.6701,-1.7157,-1.7476,-1.7653,-1.78,-1.7749,-1.7517,-1.8062,-1.8499,-1.8775,-1.9502,-2.0355,-2.0796,-2.0904,-2.1262,-2.1746,-2.1953,-2.2061,-2.2442,-2.2991,-2.3347,-2.3241,-2.3489,-2.3636,-2.3456,-2.3226,-2.3128,-2.3194,-2.2642,-2.2389,-2.2369,-2.2191,-2.2095,-2.198,-2.1941,-2.162,-2.1101,-2.127,-2.1451,-2.1771,-2.2247,-2.3889,-2.5907,-2.6315,-2.6368,-2.6774,-2.6939,-2.7051,-2.7413,-2.7771,-2.8065,-2.8334,-2.8448,-2.8626,1.0303,1.0254,1.0,0.9667,0.9399,0.8878,0.8431,0.8062,0.7531,0.7038,0.6768,0.7319,0.7458,0.7358,0.7413,0.7475,0.7561,0.7511,0.7613,0.772,0.7307,0.6982,0.6787,0.6379,0.6186,0.6194,0.6115,0.6246,0.6643,0.6673,0.7688,0.9766,1.0889,1.2524,1.4293,1.467,1.4723,1.4665,1.5734,1.5828,1.4992,1.5868,1.6232,1.5935,1.6029,1.5771,1.5224,1.2776,1.0829,0.9295,0.6259,0.4375,0.3695,0.0,-0.2,-0.1324,-0.4122,-0.6737,-0.8725,-1.1817,-1.3746,-1.4553,-1.6182,-1.7003,-1.658,-1.6952,-1.7337,-1.7566,-1.792,-1.8463,-1.9332,-1.9548,-2.0299,-2.1755,-2.1234,-2.1313,-2.2834,-2.29,-2.2557,-2.254,-2.3079,-2.3211,-2.2294,-2.285,-2.3358,-2.2914,-2.2816,-2.2604,-2.2266,-2.2079,-2.1927,-2.1982,-2.2224,-2.2503,-2.2514,-2.2588,-2.2216,-2.1918,-2.2236,-2.1896,-2.1414,-2.2504,-2.4681,-2.6081,-2.6589,-2.6702,-2.7286,-2.7624,-2.7601,-2.7823,-2.8047,-2.8264,-2.8725,-2.8767,-2.8755,1.1094,1.118,1.0971,1.0514,0.9913,0.9319,0.8667,0.8021,0.7467,0.6852,0.6294,0.6546,0.6623,0.6602,0.6668,0.6888,0.7286,0.7242,0.7144,0.6961,0.7059,0.6678,0.5948,0.5887,0.558,0.5185,0.5053,0.6065,0.8032,0.9954,1.1518,1.2628,1.3768,1.4778,1.5593,1.6881,1.7535,1.7458,1.7986,1.7998,1.759,1.7764,1.782,1.7603,1.7424,1.7165,1.6664,1.4901,1.266,1.0108,0.778,0.5199,0.2295,0.1057,0.0524,0.0479,-0.1664,-0.396,-0.6082,-0.7486,-0.9308,-1.1751,-1.3761,-1.5183,-1.6109,-1.713,-1.7841,-1.7955,-1.7864,-1.8131,-1.9079,-1.963,-2.0323,-2.1073,-2.118,-2.1552,-2.2324,-2.2227,-2.2015,-2.2031,-2.2324,-2.2388,-2.1878,-2.2188,-2.245,-2.2233,-2.2203,-2.2101,-2.1831,-2.1781,-2.1781,-2.1817,-2.2033,-2.2135,-2.2167,-2.2036,-2.1871,-2.1754,-2.1688,-2.126,-2.1259,-2.2075,-2.408,-2.6252,-2.6485,-2.6852,-2.7701,-2.7338,-2.7173,-2.7745,-2.8308,-2.8525,-2.8915,-2.9007,-2.9089,1.1974,1.2102,1.1756,1.1169,1.0467,0.9637,0.8869,0.8136,0.746,0.667,0.5895,0.5739,0.641,0.7262,0.662,0.6404,0.6708,0.6748,0.6491,0.618,0.7334,0.7541,0.6754,0.7801,0.7848,0.7332,0.7431,0.8649,1.109,1.3461,1.5191,1.5905,1.6783,1.7452,1.8054,1.9684,2.0364,2.0252,2.0234,2.0129,1.9991,1.9853,1.9433,1.8752,1.8356,1.8107,1.7885,1.6355,1.432,1.1626,0.9856,0.7372,0.4142,0.4297,0.4076,0.2796,0.1068,-0.0868,-0.2932,-0.3641,-0.5318,-0.8331,-1.0538,-1.2511,-1.4212,-1.5815,-1.6996,-1.7715,-1.7869,-1.8369,-1.9138,-1.9828,-2.027,-2.0587,-2.1177,-2.1417,-2.1631,-2.1587,-2.165,-2.1678,-2.1867,-2.1768,-2.1768,-2.1817,-2.1864,-2.1847,-2.1814,-2.1781,-2.1827,-2.1886,-2.1945,-2.1827,-2.1797,-2.1801,-2.1797,-2.1746,-2.154,-2.154,-2.1499,-2.1467,-2.1419,-2.2437,-2.3204,-2.5114,-2.5823,-2.6357,-2.6738,-2.6535,-2.6863,-2.7774,-2.839,-2.8772,-2.9166,-2.9251,-2.9338,1.2634,1.2849,1.1938,1.1356,1.1019,0.9815,0.9079,0.8472,0.7439,0.6404,0.5787,0.5553,0.7175,1.0496,0.8111,0.617,0.5915,0.6457,0.6312,0.6091,0.8761,0.9956,0.9866,1.2826,1.4041,1.3165,1.3245,1.4184,1.5408,1.6189,1.7439,1.9439,1.9226,2.0134,2.1765,2.2153,2.2312,2.2009,2.1961,2.2018,2.1894,2.1868,2.0841,1.9076,1.8547,1.8458,1.8071,1.656,1.5289,1.4651,1.2364,1.1192,1.1384,1.0247,0.8452,0.6446,0.4354,0.2494,0.0854,-0.0971,-0.2769,-0.4246,-0.6521,-0.8773,-1.0462,-1.2283,-1.4162,-1.6224,-1.7865,-1.9104,-1.9701,-1.9981,-2.0439,-2.1154,-2.0872,-2.095,-2.1428,-2.1554,-2.1658,-2.1866,-2.194,-2.1911,-2.1899,-2.184,-2.1781,-2.1781,-2.1781,-2.1781,-2.1857,-2.2118,-2.2118,-2.1915,-2.1781,-2.1781,-2.1781,-2.1751,-2.1781,-2.1764,-2.1794,-2.1911,-2.2471,-2.2994,-2.3463,-2.4025,-2.5094,-2.5661,-2.5601,-2.6068,-2.6867,-2.7699,-2.85,-2.895,-2.9319,-2.9316,-2.9418,1.3667,1.2998,1.2579,1.167,1.0387,0.9778,0.8725,0.751,0.9021,0.9159,0.9022,1.1353,1.3408,1.4654,1.4327,1.3788,1.3175,1.3323,1.2864,1.2062,1.338,1.373,1.3351,1.4508,1.4822,1.4633,1.501,1.653,1.9108,2.1113,2.2259,2.2263,2.1837,2.2017,2.2636,2.2744,2.2593,2.2344,2.2318,2.2224,2.2103,2.2125,2.1649,2.0764,2.0462,1.9943,1.9202,1.8413,1.7069,1.4934,1.3857,1.2536,1.0948,1.0576,1.0473,1.0152,0.9314,0.8544,0.7681,0.5174,0.2952,0.1412,-0.1639,-0.4683,-0.7334,-0.9822,-1.2089,-1.4052,-1.6387,-1.7946,-1.8735,-1.9739,-2.0718,-2.1005,-2.1001,-2.1,-2.1323,-2.1587,-2.1866,-2.1982,-2.1953,-2.1911,-2.1882,-2.184,-2.1781,-2.1781,-2.1781,-2.1781,-2.1827,-2.1928,-2.1974,-2.184,-2.1781,-2.1781,-2.1781,-2.184,-2.1869,-2.1899,-2.1957,-2.2044,-2.2394,-2.2519,-2.2877,-2.3232,-2.4286,-2.4778,-2.4707,-2.5615,-2.6521,-2.7503,-2.8287,-2.8742,-2.9439,-2.9325,-2.9476,1.5086,1.4047,1.388,1.3265,1.2335,1.2227,1.1344,1.0226,1.2234,1.2764,1.2774,1.5179,1.7256,1.8876,1.9688,2.0634,2.0861,1.9028,1.7103,1.6091,1.7304,1.7558,1.712,1.8228,1.8644,1.8428,1.887,2.0607,2.2984,2.4985,2.5503,2.4876,2.4103,2.3674,2.362,2.357,2.3369,2.3171,2.3059,2.2955,2.2805,2.2865,2.2815,2.2587,2.2243,2.1399,2.009,1.9737,1.8696,1.6738,1.6151,1.511,1.3365,1.2728,1.293,1.3613,1.2873,1.238,1.2108,0.9982,0.8198,0.7248,0.3837,0.0385,-0.2428,-0.5909,-0.8633,-1.0791,-1.4058,-1.6204,-1.6665,-1.8104,-1.968,-2.0423,-2.0766,-2.0814,-2.0862,-2.1306,-2.1702,-2.1998,-2.1998,-2.1957,-2.1899,-2.184,-2.1781,-2.1781,-2.1781,-2.1781,-2.1781,-2.1781,-2.1691,-2.154,-2.154,-2.157,-2.157,-2.1617,-2.1751,-2.1811,-2.1928,-2.2061,-2.2118,-2.2163,-2.2415,-2.2694,-2.306,-2.3535,-2.423,-2.515,-2.6093,-2.7098,-2.7605,-2.7979,-2.8633,-2.9251,-2.9285,1.68,1.6019,1.5862,1.608,1.6346,1.6538,1.6987,1.6323,1.6885,1.6825,1.6443,1.6056,1.9381,2.2715,2.3308,2.5103,2.6877,2.2209,1.8743,1.7748,2.0388,2.1311,2.0757,2.4029,2.5309,2.4804,2.6107,2.6873,2.7334,2.6992,2.6718,2.6541,2.5608,2.505,2.531,2.4898,2.4815,2.4628,2.4407,2.4346,2.4375,2.4172,2.4081,2.4026,2.3494,2.2397,2.0788,2.0274,1.9824,1.9479,1.9064,1.9337,1.8575,1.7113,1.6423,1.6294,1.4835,1.3707,1.3484,1.261,1.2253,1.2126,0.9542,0.664,0.4227,0.0,-0.3646,-0.5893,-1.0083,-1.3442,-1.3356,-1.4994,-1.7141,-1.9581,-1.9828,-1.9821,-1.9999,-2.0508,-2.1181,-2.1945,-2.2061,-2.1986,-2.1911,-2.184,-2.1797,-2.1781,-2.1781,-2.1781,-2.1721,-2.1631,-2.137,-2.1103,-2.1103,-2.1293,-2.1309,-2.1309,-2.1526,-2.1661,-2.1811,-2.1928,-2.1928,-2.2003,-2.2544,-2.2884,-2.314,-2.358,-2.3915,-2.4782,-2.5252,-2.6097,-2.66,-2.7193,-2.7772,-2.8333,-2.87,1.8202,1.7703,1.771,1.7139,1.6429,1.699,1.6986,1.6862,1.9079,2.0444,2.1185,2.3659,2.5972,2.7354,2.8009,2.8939,3.0139,2.7748,2.5973,2.4735,2.557,2.5883,2.5831,2.6523,2.6849,2.6763,2.7406,2.7868,2.7964,2.779,2.742,2.668,2.5796,2.5327,2.5274,2.5042,2.486,2.4647,2.4522,2.4319,2.4079,2.4041,2.3941,2.3635,2.3012,2.2255,2.1606,2.0901,2.0254,1.965,1.8802,1.8223,1.7802,1.7349,1.7253,1.7548,1.7465,1.7429,1.7501,1.6208,1.5424,1.5524,1.3908,1.2019,0.9974,0.5973,0.2441,0.0041,-0.4066,-0.7183,-0.8996,-1.1707,-1.4301,-1.7089,-1.7939,-1.8427,-1.8761,-1.9997,-2.1242,-2.189,-2.1986,-2.1911,-2.1882,-2.184,-2.1797,-2.1781,-2.1781,-2.1751,-2.1691,-2.1039,-2.063,-2.0728,-2.086,-2.0958,-2.0942,-2.0942,-2.1071,-2.1355,-2.157,-2.1811,-2.184,-2.1969,-2.251,-2.2993,-2.3265,-2.3535,-2.3873,-2.4198,-2.4641,-2.5168,-2.5782,-2.634,-2.6915,-2.7265,-2.7501,1.9992,1.9396,1.9926,1.9536,1.8678,1.9769,2.0065,2.0117,2.2774,2.4309,2.5278,2.7517,2.9298,2.9835,3.0147,3.0417,3.07,3.0478,2.9737,2.8797,2.8685,2.8534,2.816,2.7329,2.7121,2.7318,2.7535,2.7764,2.7978,2.797,2.7686,2.7046,2.6198,2.5707,2.5557,2.5082,2.4676,2.4393,2.4282,2.4002,2.366,2.3512,2.3315,2.2944,2.2365,2.2006,2.1799,2.1092,2.0459,1.9909,1.9029,1.8178,1.762,1.7641,1.7782,1.8143,1.8582,1.906,1.9561,1.8592,1.8367,1.8572,1.7258,1.5447,1.3305,0.9907,0.6487,0.4059,0.0292,-0.2658,-0.4562,-0.6927,-0.9867,-1.2655,-1.5694,-1.7343,-1.8196,-1.9648,-2.0845,-2.1398,-2.1748,-2.1853,-2.1869,-2.184,-2.1781,-2.1781,-2.1691,-2.1509,-2.1308,-2.0697,-2.0545,-2.046,-2.0478,-2.0496,-2.0579,-2.0613,-2.0646,-2.0958,-2.1324,-2.1601,-2.1751,-2.1911,-2.232,-2.2849,-2.3236,-2.3353,-2.3682,-2.3531,-2.3786,-2.4381,-2.4942,-2.5132,-2.5486,-2.5744,-2.6037,2.2004,2.1202,2.221,2.2541,2.275,2.4304,2.4907,2.555,2.692,2.7563,2.7806,2.7954,2.89,2.9958,2.9583,2.9702,3.0291,2.9744,2.9374,2.9233,2.9158,2.8789,2.7984,2.7182,2.7076,2.7362,2.7099,2.7209,2.7785,2.7824,2.7777,2.7574,2.6623,2.6237,2.576,2.5106,2.447,2.4118,2.3943,2.357,2.3028,2.2873,2.2652,2.2327,2.1824,2.1562,2.1442,2.0814,2.0467,2.0499,1.9471,1.8751,1.8584,1.8187,1.7894,1.8224,1.8592,1.9035,1.9609,1.9801,2.0302,2.1008,1.9497,1.7582,1.5753,1.22,0.8852,0.6765,0.3209,0.0576,-0.0469,-0.2278,-0.4779,-0.7999,-1.3257,-1.6766,-1.8854,-1.9646,-2.0242,-2.0925,-2.1475,-2.1853,-2.1794,-2.1811,-2.1691,-2.1584,-2.137,-2.1119,-2.0877,-2.0512,-2.0273,-2.005,-1.9859,-1.9945,-1.998,-1.9773,-1.9879,-2.0395,-2.078,-2.115,-2.1675,-2.1969,-2.2113,-2.266,-2.3035,-2.3206,-2.3301,-2.3206,-2.3277,-2.3755,-2.3973,-2.3878,-2.4091,-2.454,-2.48,2.2467,2.2414,2.2771,2.294,2.3224,2.4826,2.5957,2.6512,2.6973,2.7593,2.8014,2.8087,2.8364,2.8801,2.8665,2.8661,2.8817,2.8619,2.8475,2.8473,2.8463,2.7966,2.7328,2.6959,2.6566,2.6381,2.7054,2.7653,2.7734,2.7673,2.7627,2.7433,2.5972,2.5077,2.4807,2.4538,2.404,2.366,2.357,2.3212,2.2643,2.2459,2.2286,2.1994,2.1444,2.1181,2.107,2.033,1.9624,1.9169,1.8535,1.7974,1.7585,1.7144,1.7144,1.757,1.7733,1.8249,1.9236,1.9954,2.0667,2.1505,2.1231,2.0503,1.8724,1.528,1.2217,0.9629,0.6514,0.3882,0.2259,0.0149,-0.334,-0.8351,-1.2211,-1.5756,-1.8527,-1.9324,-1.9685,-2.1366,-2.1289,-2.1458,-2.1685,-2.1645,-2.1308,-2.1039,-2.0797,-2.0616,-2.0481,-1.9737,-1.9192,-1.9132,-1.902,-1.9221,-1.9258,-1.902,-1.9155,-1.9732,-2.0158,-2.052,-2.1305,-2.2061,-2.222,-2.247,-2.2605,-2.2773,-2.2935,-2.2968,-2.3164,-2.3307,-2.3335,-2.3387,-2.3477,-2.3772,-2.3833,2.3667,2.354,2.3921,2.3894,2.3727,2.5026,2.5896,2.6369,2.6763,2.7164,2.7683,2.8047,2.8168,2.8201,2.8166,2.8154,2.8122,2.7733,2.7563,2.7495,2.7167,2.6912,2.6754,2.6711,2.6165,2.5485,2.6529,2.6936,2.7033,2.7281,2.7404,2.71,2.5803,2.5043,2.4962,2.434,2.3819,2.3351,2.323,2.2873,2.2164,2.1994,2.1807,2.1493,2.0975,2.0548,2.0277,1.9624,1.9072,1.8808,1.8369,1.7868,1.7352,1.6947,1.6905,1.7323,1.7503,1.8131,1.9207,2.0024,2.0781,2.1491,2.2039,2.0807,1.8637,1.6198,1.388,1.053,0.8162,0.6189,0.424,0.1635,-0.2295,-0.6601,-0.9779,-1.3066,-1.7434,-1.859,-1.9364,-2.0362,-2.0974,-2.1086,-2.1379,-2.1118,-2.0862,-2.0518,-2.0234,-2.0147,-2.0058,-1.8977,-1.8187,-1.8133,-1.8422,-1.8731,-1.8846,-1.864,-1.8655,-1.9184,-1.9536,-1.9908,-2.0766,-2.1764,-2.2106,-2.218,-2.2254,-2.2366,-2.2561,-2.2712,-2.2859,-2.2935,-2.2935,-2.2993,-2.3098,-2.3194,-2.3218,2.515,2.4632,2.5321,2.516,2.4624,2.5282,2.5649,2.5769,2.6385,2.6749,2.6968,2.7608,2.7672,2.7947,2.7539,2.7732,2.7704,2.6929,2.67,2.643,2.6059,2.5859,2.6365,2.6207,2.5707,2.5201,2.5612,2.5932,2.618,2.6709,2.694,2.6591,2.587,2.5503,2.4986,2.4448,2.3735,2.3069,2.2923,2.2512,2.1853,2.157,2.1417,2.1214,2.0613,2.003,1.9566,1.9026,1.8755,1.908,1.8616,1.8082,1.7679,1.731,1.724,1.7434,1.7707,1.8327,1.939,2.0112,2.091,2.1595,2.1675,2.0316,1.7501,1.5841,1.384,1.0476,0.8815,0.7367,0.5448,0.2535,-0.0889,-0.453,-0.6668,-0.9878,-1.3972,-1.7379,-1.8885,-1.8679,-2.044,-2.0685,-2.0538,-2.0286,-2.0353,-1.9667,-1.9324,-1.8941,-1.8844,-1.8249,-1.7612,-1.7297,-1.7747,-1.8305,-1.8344,-1.8344,-1.8436,-1.8669,-1.8936,-1.9361,-2.0162,-2.1007,-2.1661,-2.1932,-2.1768,-2.1915,-2.2215,-2.2392,-2.2392,-2.2375,-2.2214,-2.252,-2.2816,-2.2892,-2.2917,2.5879,2.63,2.5874,2.5559,2.5442,2.5556,2.5615,2.564,2.5847,2.6031,2.6035,2.6164,2.623,2.6239,2.6233,2.6067,2.6194,2.59,2.5666,2.5582,2.5297,2.5184,2.5413,2.5347,2.512,2.4979,2.5536,2.5785,2.5797,2.5799,2.5894,2.5612,2.4964,2.4331,2.4172,2.3976,2.3387,2.2686,2.2538,2.2175,2.1601,2.1371,2.1277,2.1151,2.0613,2.003,1.9472,1.9011,1.8731,1.8422,1.7908,1.757,1.7447,1.7282,1.724,1.7323,1.7571,1.8157,1.9141,2.0043,2.083,2.1383,2.0601,1.9012,1.7084,1.5502,1.3452,1.0926,0.9852,0.848,0.5996,0.3422,0.033,-0.2846,-0.5569,-0.8224,-1.1432,-1.4395,-1.6983,-1.8709,-1.9235,-1.9337,-1.9771,-1.9439,-1.9236,-1.8806,-1.8271,-1.7666,-1.745,-1.7353,-1.7076,-1.6723,-1.7269,-1.7787,-1.7814,-1.7868,-1.7988,-1.8214,-1.8528,-1.8683,-1.9471,-2.0054,-2.0632,-2.1007,-2.1182,-2.1415,-2.1625,-2.1488,-2.1411,-2.1442,-2.1532,-2.174,-2.196,-2.2248,-2.2483,2.7071,2.7466,2.7038,2.6648,2.6277,2.6214,2.6003,2.5699,2.5683,2.5682,2.565,2.56,2.5598,2.5542,2.5486,2.5479,2.5406,2.5272,2.5143,2.5031,2.4896,2.4814,2.4712,2.4718,2.4659,2.4631,2.4867,2.5022,2.4986,2.4949,2.4816,2.4574,2.4016,2.37,2.3405,2.3371,2.2933,2.2368,2.2175,2.1924,2.1386,2.1294,2.1119,2.0877,2.0429,1.9925,1.9213,1.8974,1.8731,1.8397,1.7895,1.7529,1.7434,1.731,1.7323,1.7639,1.776,1.8341,1.9259,2.0073,2.0616,2.0705,1.9926,1.8328,1.6687,1.5161,1.3575,1.1526,1.0391,0.9297,0.6462,0.4883,0.1994,-0.1368,-0.371,-0.6331,-1.0043,-1.3432,-1.577,-1.754,-1.8218,-1.848,-1.8636,-1.8422,-1.8166,-1.7746,-1.7464,-1.6925,-1.6714,-1.66,-1.657,-1.6497,-1.6934,-1.7269,-1.7256,-1.738,-1.7503,-1.7841,-1.8228,-1.8254,-1.8577,-1.9072,-1.953,-1.9894,-2.0296,-2.055,-2.0716,-2.0552,-2.0536,-2.0733,-2.0863,-2.0927,-2.1149,-2.1668,-2.1786,2.8489,2.8584,2.8467,2.798,2.7337,2.7022,2.652,2.5976,2.5722,2.5648,2.5586,2.557,2.5526,2.546,2.5368,2.5346,2.5236,2.5072,2.4872,2.4785,2.4697,2.4588,2.4474,2.4442,2.4408,2.4355,2.434,2.4301,2.4263,2.4112,2.4142,2.3768,2.3602,2.3364,2.3014,2.2832,2.2625,2.2153,2.201,2.1807,2.1386,2.1309,2.1007,2.0579,2.0308,1.9839,1.9258,1.9049,1.8898,1.8669,1.8333,1.8135,1.7962,1.7828,1.7625,1.8266,1.824,1.8769,1.9416,2.0051,2.0175,1.9595,1.9095,1.7958,1.5885,1.4651,1.3426,1.2264,1.1008,0.9825,0.7384,0.6123,0.3507,0.0092,-0.1704,-0.4606,-0.9084,-1.3034,-1.441,-1.5374,-1.6622,-1.7384,-1.7302,-1.7124,-1.6944,-1.6718,-1.6429,-1.6207,-1.5976,-1.5832,-1.5732,-1.5964,-1.6355,-1.668,-1.6765,-1.671,-1.6921,-1.6912,-1.7476,-1.7679,-1.7544,-1.7354,-1.7759,-1.8921,-1.9406,-1.96,-1.9662,-1.9555,-1.9647,-2.0012,-1.9943,-1.9703,-2.0255,-2.1118,-2.1134,2.976,3.0323,2.964,2.9269,2.8917,2.763,2.6945,2.6667,2.5963,2.5616,2.5589,2.5466,2.5432,2.5371,2.5216,2.5065,2.4937,2.479,2.4723,2.4636,2.454,2.4407,2.4391,2.4303,2.4247,2.4209,2.417,2.4132,2.4112,2.4036,2.3795,2.3566,2.3432,2.3183,2.2883,2.273,2.2439,2.2084,2.1911,2.1691,2.1546,2.1374,2.1119,2.0628,2.0444,2.0035,1.9609,1.9384,1.9213,1.9064,1.9116,1.9026,1.8936,1.9035,1.8731,1.833,1.8468,1.8957,1.9487,1.957,1.9596,1.9021,1.7802,1.6473,1.5063,1.3897,1.3114,1.2497,1.1544,1.0459,0.924,0.7549,0.4438,0.0956,-0.1599,-0.3672,-0.75,-1.0405,-1.2505,-1.3613,-1.4949,-1.6083,-1.5948,-1.5868,-1.5792,-1.5628,-1.541,-1.5254,-1.5119,-1.4971,-1.4903,-1.5219,-1.5632,-1.5976,-1.6231,-1.6163,-1.6182,-1.5847,-1.6182,-1.6744,-1.6403,-1.5531,-1.5847,-1.6931,-1.7906,-1.831,-1.8373,-1.8373,-1.8464,-1.8551,-1.8489,-1.8387,-1.9126,-1.9858,-2.0423,3.0474,3.0786,3.0394,2.9935,2.9393,2.8629,2.7702,2.6883,2.6408,2.5935,2.5583,2.5425,2.5337,2.5226,2.5102,2.4898,2.4697,2.4623,2.4543,2.4444,2.4338,2.4284,2.4302,2.4228,2.4209,2.419,2.4151,2.4112,2.4074,2.3837,2.3588,2.3259,2.3063,2.2781,2.2456,2.2237,2.2096,2.1899,2.1751,2.1782,2.1906,2.1795,2.139,2.0956,2.0679,2.0395,2.0085,1.9839,1.9711,1.9617,1.9508,1.9545,1.9617,1.9442,1.9184,1.8664,1.8524,1.8573,1.8805,1.8698,1.843,1.7588,1.6374,1.5519,1.4746,1.3911,1.3143,1.271,1.2155,1.1129,0.9767,0.8223,0.532,0.1936,-0.0594,-0.333,-0.6401,-0.8935,-1.0642,-1.2112,-1.3608,-1.4485,-1.457,-1.4507,-1.4597,-1.4503,-1.4318,-1.4215,-1.4204,-1.4086,-1.3961,-1.4147,-1.4516,-1.4676,-1.4914,-1.4903,-1.4744,-1.4518,-1.4609,-1.5126,-1.5339,-1.4482,-1.4286,-1.4812,-1.5712,-1.6587,-1.6918,-1.685,-1.6985,-1.7094,-1.7151,-1.7342,-1.7946,-1.8549,-1.9179,3.0807,3.0833,3.0785,3.0334,2.9679,2.9421,2.8602,2.7421,2.6922,2.6364,2.5704,2.5423,2.5245,2.5088,2.4956,2.4733,2.4461,2.4426,2.4357,2.4266,2.4228,2.4209,2.419,2.419,2.419,2.4208,2.4113,2.4112,2.4016,2.3795,2.3392,2.3069,2.273,2.2364,2.1998,2.1869,2.1738,2.1648,2.1542,2.1759,2.2086,2.2036,2.1696,2.1199,2.0958,2.0745,2.0545,2.0273,2.017,2.003,1.9889,1.9782,1.998,1.9417,1.8927,1.8809,1.8357,1.8146,1.8017,1.7958,1.7646,1.6747,1.5984,1.518,1.4512,1.3972,1.368,1.3229,1.2705,1.1937,1.0617,0.8884,0.6309,0.3288,0.0306,-0.2433,-0.5415,-0.7734,-0.9128,-1.0636,-1.2228,-1.2892,-1.2998,-1.3169,-1.3218,-1.3331,-1.3159,-1.3093,-1.3067,-1.309,-1.3062,-1.3072,-1.3243,-1.3324,-1.3351,-1.3293,-1.2979,-1.2522,-1.2646,-1.3047,-1.3434,-1.3455,-1.3297,-1.2888,-1.3622,-1.4381,-1.4824,-1.544,-1.5672,-1.5804,-1.5947,-1.6293,-1.6886,-1.758,-1.8248,3.062,3.0626,3.0639,3.0555,3.0335,2.9667,2.9246,2.8779,2.742,2.668,2.6339,2.559,2.5206,2.5012,2.4704,2.4456,2.4284,2.4247,2.4228,2.419,2.419,2.419,2.419,2.419,2.419,2.417,2.4113,2.4074,2.3937,2.3816,2.3459,2.2996,2.2721,2.2466,2.184,2.1724,2.1634,2.1664,2.1542,2.1499,2.1565,2.1535,2.144,2.1263,2.1119,2.1023,2.0893,2.0628,2.041,2.0308,2.0115,2.0025,1.9798,1.8517,1.7758,1.7827,1.8237,1.8769,1.8209,1.7744,1.7325,1.6419,1.5705,1.4751,1.4335,1.4006,1.3879,1.3913,1.3447,1.2706,1.1658,1.0273,0.7556,0.4651,0.1709,-0.1342,-0.4332,-0.6403,-0.7767,-0.8741,-1.0231,-1.1013,-1.1421,-1.166,-1.1866,-1.197,-1.2028,-1.1964,-1.1846,-1.1819,-1.1661,-1.1612,-1.1661,-1.1764,-1.1599,-1.1541,-1.1178,-1.0631,-1.0806,-1.1031,-1.1379,-1.1617,-1.1106,-1.0981,-1.1679,-1.2609,-1.3523,-1.4093,-1.4389,-1.4582,-1.4697,-1.5175,-1.582,-1.6554,-1.7359,3.0552,3.0613,3.0613,3.0583,3.0505,3.0109,2.9677,2.91,2.8406,2.7459,2.6589,2.6048,2.5431,2.4827,2.4491,2.432,2.421,2.419,2.419,2.419,2.419,2.419,2.419,2.419,2.419,2.4113,2.4016,2.3855,2.3753,2.3482,2.3165,2.2873,2.2485,2.2124,2.1768,2.165,2.1664,2.1763,2.1915,2.1886,2.1722,2.1744,2.1714,2.1341,2.1214,2.1167,2.1038,2.086,2.0545,2.0265,1.9791,1.9606,1.9456,1.8446,1.7269,1.7185,1.7615,1.7627,1.7055,1.689,1.6669,1.6343,1.5671,1.5209,1.4739,1.4456,1.4291,1.4411,1.43,1.3592,1.2343,1.0863,0.8261,0.549,0.2752,-0.0213,-0.2976,-0.4777,-0.6374,-0.7293,-0.8162,-0.8988,-0.9813,-1.0232,-1.0532,-1.0783,-1.0849,-1.083,-1.0547,-1.0218,-1.0019,-0.9834,-0.9936,-1.0081,-0.9834,-0.9688,-0.9313,-0.8906,-0.9082,-0.9304,-0.9526,-0.9488,-0.928,-0.9325,-0.9872,-1.0898,-1.2115,-1.2541,-1.2715,-1.3065,-1.3438,-1.3909,-1.4533,-1.5949,-1.6788,3.054,3.0568,3.056,3.0518,3.0492,3.0482,3.0053,2.9394,2.9075,2.8236,2.709,2.6388,2.5488,2.4622,2.4356,2.4284,2.421,2.419,2.4133,2.4113,2.4094,2.4054,2.3996,2.3996,2.4054,2.4016,2.3896,2.371,2.3432,2.3141,2.2848,2.2695,2.233,2.1957,2.1754,2.165,2.1634,2.1741,2.212,2.2087,2.1842,2.1906,2.1713,2.1439,2.1246,2.1199,2.1023,2.0745,2.0429,1.9687,1.9021,1.8807,1.8807,1.7745,1.7104,1.703,1.7241,1.7045,1.6819,1.6713,1.6352,1.6233,1.602,1.5866,1.5188,1.5034,1.5042,1.5071,1.4782,1.3986,1.2822,1.1555,0.9131,0.6365,0.3486,0.0639,-0.1943,-0.3609,-0.5024,-0.6018,-0.6771,-0.7259,-0.803,-0.8676,-0.9133,-0.9487,-0.9628,-0.9624,-0.9187,-0.8643,-0.832,-0.8088,-0.8313,-0.8319,-0.7841,-0.7635,-0.7264,-0.7331,-0.7444,-0.7723,-0.8031,-0.8243,-0.8243,-0.8343,-0.8508,-0.8985,-1.0074,-1.0527,-1.104,-1.1604,-1.2154,-1.2475,-1.3275,-1.4779,-1.5983,3.0509,3.05,3.0449,3.0409,3.0417,3.0414,3.0253,2.9855,2.9243,2.8746,2.7963,2.6685,2.5291,2.4487,2.4321,2.4247,2.419,2.4191,2.4037,2.3878,2.3798,2.3714,2.3671,2.3692,2.3732,2.3588,2.3606,2.3535,2.3283,2.284,2.2608,2.2395,2.2192,2.1969,2.1827,2.1738,2.1738,2.1811,2.2052,2.2023,2.1741,2.1626,2.1374,2.131,2.1151,2.1023,2.0893,2.0403,1.9638,1.8747,1.8299,1.7748,1.7563,1.7125,1.6966,1.7465,1.7045,1.7034,1.723,1.7293,1.7451,1.7409,1.7176,1.6613,1.5735,1.5668,1.5692,1.5632,1.5263,1.4554,1.369,1.2554,0.9895,0.6982,0.4143,0.1809,-0.0521,-0.2282,-0.364,-0.4705,-0.5264,-0.5577,-0.6072,-0.6693,-0.7508,-0.7874,-0.7632,-0.7565,-0.7325,-0.6832,-0.6541,-0.64,-0.6672,-0.6488,-0.5756,-0.5658,-0.6072,-0.6138,-0.6112,-0.646,-0.6804,-0.6966,-0.7283,-0.7591,-0.7758,-0.7883,-0.8043,-0.8805,-0.9588,-1.0275,-1.0878,-1.1461,-1.2244,-1.3543,-1.4554,3.0367,3.0367,3.0273,3.0222,3.026,3.0222,3.0128,2.9954,2.9639,2.8917,2.8017,2.6377,2.5223,2.4675,2.4164,2.4036,2.3896,2.3858,2.3735,2.3628,2.3544,2.3482,2.3477,2.3455,2.3482,2.3387,2.3405,2.3283,2.3017,2.2634,2.2347,2.2181,2.2068,2.201,2.1911,2.1998,2.2039,2.1911,2.194,2.1911,2.1691,2.1371,2.1199,2.1167,2.0827,2.0395,1.9884,1.9458,1.8559,1.7837,1.7595,1.7221,1.687,1.6872,1.7518,1.8181,1.7578,1.7491,1.7638,1.7683,1.7599,1.793,1.7682,1.7222,1.6494,1.6383,1.626,1.6,1.5471,1.467,1.3674,1.223,1.0007,0.7178,0.4679,0.2514,0.0787,-0.0969,-0.1985,-0.2884,-0.3234,-0.3457,-0.403,-0.4665,-0.5535,-0.6234,-0.5863,-0.5556,-0.5373,-0.5152,-0.4931,-0.4901,-0.514,-0.5222,-0.4556,-0.4773,-0.5112,-0.4954,-0.4779,-0.5089,-0.5441,-0.61,-0.6431,-0.6747,-0.697,-0.7109,-0.7258,-0.7511,-0.8159,-0.9085,-0.9911,-1.061,-1.1514,-1.2445,-1.3197,3.0312,3.0279,3.018,3.0166,3.0161,3.0066,2.9946,2.9836,2.9801,2.9064,2.7735,2.6526,2.5731,2.519,2.4599,2.4293,2.4118,2.3873,2.3576,2.3427,2.3335,2.3289,2.3248,2.3248,2.3265,2.3212,2.3182,2.3028,2.2756,2.2487,2.226,2.2056,2.1928,2.194,2.2124,2.2385,2.2385,2.2056,2.2027,2.1969,2.1721,2.1293,2.1055,2.0958,2.053,1.9767,1.9162,1.8687,1.805,1.745,1.7143,1.7045,1.6931,1.7137,1.8014,1.8285,1.8244,1.7754,1.7802,1.7569,1.7702,1.8327,1.8221,1.7934,1.7598,1.7165,1.7015,1.6593,1.5693,1.4386,1.3154,1.1356,0.9133,0.6239,0.4608,0.2654,0.1672,0.0222,-0.031,-0.0969,-0.1366,-0.1941,-0.2381,-0.304,-0.3651,-0.4297,-0.4152,-0.3891,-0.3823,-0.3602,-0.3403,-0.3472,-0.371,-0.371,-0.3609,-0.3592,-0.3556,-0.3449,-0.3379,-0.3605,-0.4067,-0.478,-0.5336,-0.5521,-0.5772,-0.6182,-0.6479,-0.669,-0.7257,-0.796,-0.892,-1.0047,-1.0541,-1.139,-1.1934,3.0279,3.0292,3.0202,3.0147,3.0094,2.995,2.9803,2.9608,2.9551,2.8927,2.7893,2.741,2.6877,2.6085,2.5353,2.4914,2.4608,2.4114,2.3634,2.3348,2.3284,2.304,2.2927,2.2952,2.301,2.2868,2.2893,2.2868,2.2552,2.2432,2.2231,2.2113,2.2056,2.2027,2.2153,2.2563,2.2429,2.194,2.2096,2.1998,2.1735,2.115,2.0795,2.0714,2.0113,1.9308,1.8453,1.8195,1.7544,1.6708,1.7062,1.7139,1.718,1.7208,1.7559,1.7592,1.7338,1.7467,1.8027,1.7448,1.7783,1.8658,1.8556,1.8418,1.8144,1.7863,1.7384,1.6627,1.5111,1.3504,1.1976,1.0224,0.7822,0.5961,0.429,0.315,0.2167,0.1734,0.1153,0.0532,-0.0178,-0.0801,-0.1111,-0.151,-0.1951,-0.2304,-0.2264,-0.2279,-0.2389,-0.2258,-0.2123,-0.2232,-0.2479,-0.2635,-0.2592,-0.2175,-0.1989,-0.197,-0.2164,-0.2583,-0.2894,-0.3511,-0.3959,-0.4249,-0.5009,-0.5736,-0.5801,-0.5822,-0.62,-0.6721,-0.8395,-0.9456,-0.9904,-1.0448,-1.1035,3.0064,3.0034,2.9972,2.9905,2.9907,2.9905,2.9698,2.9336,2.9126,2.8709,2.813,2.7664,2.7137,2.6509,2.5906,2.5338,2.479,2.4992,2.4461,2.3193,2.3424,2.3145,2.2954,2.2877,2.2808,2.2738,2.279,2.2738,2.2515,2.2432,2.2388,2.2315,2.2181,2.2265,2.2354,2.2588,2.2598,2.2186,2.2039,2.182,2.1584,2.0718,2.0247,2.0528,1.9833,1.8885,1.7779,1.7672,1.7006,1.5997,1.636,1.699,1.7214,1.7326,1.7051,1.6877,1.6603,1.7363,1.7596,1.7366,1.7516,1.8268,1.8789,1.8579,1.8361,1.7586,1.6944,1.5923,1.4225,1.2582,1.1032,0.9027,0.6976,0.5662,0.431,0.3494,0.276,0.2807,0.2536,0.1914,0.1247,0.0847,0.0535,-0.0134,-0.0623,-0.0801,-0.0846,-0.1293,-0.1481,-0.1259,-0.1079,-0.1168,-0.1318,-0.1593,-0.1628,-0.1279,-0.1375,-0.1604,-0.1801,-0.2116,-0.236,-0.2506,-0.3261,-0.4014,-0.4702,-0.5359,-0.4984,-0.4671,-0.4804,-0.5542,-0.6781,-0.7807,-0.8147,-0.9093,-1.0425,2.994,2.9907,2.9839,2.977,2.9699,2.9681,2.9416,2.9056,2.8797,2.8569,2.8288,2.7831,2.753,2.7139,2.6534,2.6025,2.539,2.5253,2.5164,2.3816,2.4053,2.3774,2.335,2.303,2.2944,2.2796,2.2649,2.2579,2.246,2.2377,2.2276,2.2215,2.2248,2.2005,2.2068,2.2153,2.2136,2.1655,2.1287,2.1099,2.073,2.0211,1.9739,1.982,1.9394,1.8551,1.752,1.6876,1.6474,1.5619,1.5748,1.6712,1.7183,1.7104,1.6607,1.6067,1.6186,1.6713,1.6677,1.6863,1.6928,1.7175,1.8057,1.8356,1.7993,1.713,1.6242,1.5039,1.3254,1.1582,0.9931,0.7923,0.6606,0.5301,0.4879,0.4081,0.3898,0.3905,0.3592,0.3051,0.2455,0.219,0.1792,0.1341,0.067,0.0626,0.0582,0.0,-0.0494,-0.0271,0.0046,0.0092,-0.0046,-0.0275,-0.0464,-0.0478,-0.069,-0.1154,-0.1356,-0.1523,-0.1649,-0.1846,-0.277,-0.3571,-0.3814,-0.3883,-0.3636,-0.3465,-0.3549,-0.3696,-0.431,-0.5219,-0.6051,-0.7394,-0.888,2.9924,2.9907,2.9907,2.9732,2.9495,2.9295,2.9016,2.8773,2.8569,2.8466,2.8422,2.8237,2.8039,2.7968,2.7353,2.6898,2.6703,2.5967,2.5489,2.524,2.5016,2.4464,2.4063,2.3805,2.3478,2.2959,2.2726,2.2784,2.2439,2.2321,2.2118,2.1869,2.1832,2.1579,2.1458,2.1401,2.1288,2.086,2.0528,2.0382,2.017,1.9645,1.9501,1.9496,1.9197,1.8235,1.7394,1.6861,1.627,1.5809,1.5783,1.6763,1.7158,1.6828,1.5802,1.5285,1.5507,1.5566,1.5695,1.5975,1.5702,1.573,1.6409,1.7126,1.6983,1.5982,1.4995,1.3863,1.2234,1.0591,0.8939,0.7551,0.6214,0.5754,0.557,0.5246,0.5107,0.4861,0.4467,0.3928,0.3309,0.2812,0.2152,0.1748,0.1776,0.1679,0.154,0.1208,0.081,0.0877,0.1174,0.1506,0.1389,0.1121,0.09,0.0487,0.0149,-0.0308,-0.0589,-0.0722,-0.0895,-0.1242,-0.1951,-0.2479,-0.247,-0.2441,-0.2515,-0.2367,-0.2126,-0.239,-0.2497,-0.2966,-0.3898,-0.533,-0.6587,2.994,2.9907,2.9907,2.9751,2.9456,2.8979,2.8718,2.8639,2.8396,2.8291,2.8273,2.8237,2.8182,2.8146,2.7942,2.746,2.7128,2.6813,2.6135,2.5854,2.5727,2.5259,2.4902,2.4591,2.4132,2.3657,2.332,2.2997,2.2528,2.2287,2.1928,2.1601,2.1381,2.1022,2.0743,2.0565,2.0389,2.0246,1.9923,1.9866,1.9757,1.9347,1.939,1.9422,1.9288,1.8316,1.7448,1.6964,1.6269,1.528,1.468,1.4826,1.4353,1.4322,1.3979,1.4529,1.4703,1.4819,1.4954,1.531,1.5005,1.4067,1.4374,1.467,1.4625,1.4167,1.3313,1.2442,1.1274,0.9691,0.8803,0.7661,0.669,0.6327,0.6176,0.6113,0.5914,0.5528,0.5111,0.4272,0.3646,0.3274,0.2655,0.2684,0.2719,0.2602,0.2443,0.2193,0.1965,0.1924,0.1951,0.2272,0.2201,0.1805,0.1535,0.1117,0.0876,0.0579,0.0165,-0.0341,-0.0794,-0.1148,-0.1344,-0.1449,-0.1575,-0.1625,-0.1671,-0.1357,-0.0821,-0.0623,-0.0773,-0.1145,-0.1756,-0.3179,-0.388,2.9857,2.9769,2.9698,2.9476,2.9135,2.8694,2.8482,2.8422,2.8255,2.8182,2.8182,2.8182,2.8182,2.8182,2.8128,2.7887,2.7467,2.7465,2.7064,2.6714,2.6372,2.6001,2.5678,2.5333,2.4683,2.4173,2.3618,2.3164,2.2547,2.2084,2.1748,2.1134,2.0911,2.0432,1.9994,1.963,1.95,1.9506,1.949,1.9498,1.9375,1.9202,1.9304,1.9313,1.9184,1.8412,1.7373,1.6877,1.6032,1.4952,1.4266,1.3789,1.3525,1.3568,1.395,1.4409,1.4242,1.4125,1.4042,1.402,1.3483,1.2777,1.2363,1.2236,1.2245,1.1982,1.1875,1.1482,1.0212,0.9073,0.858,0.803,0.7493,0.6973,0.693,0.6935,0.6532,0.6133,0.538,0.4509,0.4051,0.3715,0.3585,0.3654,0.3662,0.3526,0.3354,0.3101,0.2846,0.2626,0.2541,0.2599,0.2501,0.2292,0.203,0.1654,0.1248,0.0833,0.0173,-0.0294,-0.0698,-0.0937,-0.1017,-0.0927,-0.0769,-0.0724,-0.0605,0.0067,0.0609,0.0685,0.0765,0.0568,0.0073,-0.076,-0.1162,2.9626,2.9551,2.9336,2.9064,2.87,2.8448,2.8273,2.8209,2.8209,2.8182,2.8182,2.8182,2.8182,2.8182,2.8182,2.8182,2.7847,2.7783,2.7636,2.7601,2.7195,2.673,2.6385,2.6096,2.5446,2.4425,2.3762,2.3646,2.2471,2.1715,2.1017,2.0607,2.0083,1.9688,1.9517,1.9207,1.9188,1.929,1.9314,1.9304,1.9156,1.9022,1.8956,1.8672,1.85,1.8137,1.7045,1.6412,1.5995,1.5203,1.4516,1.4008,1.3814,1.3799,1.4254,1.4251,1.3912,1.3459,1.3115,1.2951,1.213,1.1376,1.0647,1.0322,1.0264,1.0507,1.0669,1.063,0.9556,0.9136,0.8714,0.8421,0.7997,0.7837,0.7869,0.7826,0.7652,0.7014,0.6081,0.5246,0.4646,0.4384,0.4245,0.4282,0.4048,0.4129,0.4091,0.3831,0.3562,0.3297,0.3263,0.3074,0.2959,0.2823,0.245,0.2046,0.155,0.0999,0.0424,0.0,-0.0301,-0.0484,-0.0674,-0.0254,0.0262,0.0464,0.0672,0.1143,0.1481,0.1693,0.1862,0.2119,0.1752,0.0983,0.0776,2.9415,2.9355,2.9042,2.8837,2.8694,2.8422,2.8264,2.8182,2.8182,2.8182,2.8182,2.8182,2.8182,2.8182,2.8182,2.8154,2.8042,2.7864,2.7659,2.7522,2.739,2.7227,2.6957,2.6736,2.6172,2.5733,2.5067,2.3975,2.2505,2.1212,2.024,2.0008,1.9528,1.9244,1.924,1.9082,1.9237,1.9157,1.9345,1.9236,1.9022,1.932,1.9433,1.8996,1.8736,1.81,1.7104,1.6248,1.5635,1.4887,1.4288,1.3874,1.3615,1.3731,1.3774,1.3728,1.329,1.2701,1.2267,1.1815,1.1129,1.024,0.9544,0.8988,0.8882,0.9283,0.9527,0.9533,0.9387,0.9126,0.895,0.8714,0.8618,0.8693,0.879,0.8705,0.8664,0.7727,0.6818,0.6034,0.5353,0.5083,0.4973,0.4755,0.4545,0.4444,0.4389,0.426,0.3996,0.3747,0.3981,0.3856,0.3603,0.3362,0.2846,0.252,0.2054,0.1591,0.1128,0.0626,0.0124,0.0063,0.0064,0.0851,0.1406,0.1477,0.1545,0.1748,0.2088,0.2362,0.2657,0.279,0.2792,0.2219,0.2141,2.923,2.9141,2.885,2.8682,2.8583,2.8414,2.83,2.8237,2.8209,2.8182,2.8182,2.8182,2.8182,2.8182,2.8182,2.8154,2.8042,2.7893,2.7777,2.76,2.7452,2.7376,2.7264,2.7135,2.6487,2.5982,2.4873,2.3564,2.2207,2.1173,2.0266,1.9633,1.9164,1.8933,1.895,1.911,1.9227,1.8941,1.9341,1.9192,1.8937,1.9351,1.9649,1.9336,1.8709,1.8004,1.7228,1.632,1.5736,1.5205,1.4724,1.4397,1.4037,1.3606,1.3108,1.2672,1.2147,1.156,1.1176,1.0771,1.0349,0.9634,0.9019,0.8677,0.8673,0.9062,0.9071,0.9049,0.8953,0.8715,0.9104,0.9051,0.9156,0.9327,0.9249,0.9176,0.8765,0.8056,0.7059,0.6189,0.5663,0.5451,0.5289,0.5045,0.4946,0.523,0.5144,0.515,0.4791,0.4109,0.4375,0.4442,0.4039,0.3357,0.2606,0.2507,0.2524,0.2112,0.1812,0.1102,0.0518,0.066,0.0873,0.1945,0.2547,0.2415,0.2485,0.2621,0.2619,0.2889,0.3121,0.337,0.3387,0.3598,0.3676,2.9012,2.891,2.8712,2.8543,2.8492,2.8432,2.8353,2.83,2.8237,2.8209,2.8237,2.8237,2.8209,2.8182,2.8182,2.8182,2.8081,2.7922,2.7806,2.7659,2.7496,2.7359,2.7215,2.71,2.6531,2.5497,2.4243,2.3111,2.1917,2.0635,1.9563,1.9225,1.8959,1.8689,1.8495,1.8556,1.878,1.8933,1.904,1.8699,1.8932,1.9295,1.9203,1.8898,1.8422,1.77,1.6938,1.632,1.5784,1.5477,1.5007,1.4695,1.4272,1.3607,1.2907,1.2321,1.1534,1.0801,1.015,0.9893,0.9719,0.9424,0.8922,0.8729,0.8737,0.874,0.8754,0.8566,0.8471,0.8625,0.9012,0.9338,0.9509,0.9604,0.9497,0.9458,0.8916,0.8378,0.7488,0.6554,0.6253,0.6021,0.578,0.551,0.5465,0.5814,0.5941,0.6046,0.5798,0.4799,0.4336,0.4379,0.4152,0.3398,0.2781,0.2783,0.3117,0.2881,0.251,0.1601,0.1076,0.121,0.1946,0.3416,0.3818,0.3749,0.3551,0.3553,0.3551,0.3616,0.3902,0.4271,0.4636,0.4864,0.5325,2.8791,2.8662,2.8612,2.8562,2.8492,2.8432,2.838,2.8371,2.83,2.83,2.8345,2.8345,2.8318,2.8182,2.8182,2.8154,2.8071,2.7922,2.7719,2.7526,2.7465,2.731,2.7152,2.7055,2.6607,2.5469,2.4078,2.274,2.1588,1.9722,1.8472,1.8422,1.8455,1.8545,1.8985,1.9169,1.9618,1.9522,1.9474,1.9395,1.8994,1.8788,1.7689,1.7217,1.6713,1.6166,1.5635,1.5342,1.5195,1.5029,1.4814,1.4487,1.4024,1.3528,1.2878,1.2046,1.1234,1.0707,1.0132,0.9603,0.9485,0.9284,0.8911,0.882,0.8832,0.8931,0.8765,0.8323,0.8298,0.8372,0.8706,0.9074,0.932,0.9299,0.9227,0.928,0.904,0.877,0.8275,0.765,0.7193,0.6989,0.6686,0.6327,0.5924,0.6147,0.6324,0.6376,0.6121,0.53,0.4472,0.4276,0.4211,0.4372,0.4183,0.3767,0.3777,0.3609,0.3286,0.2618,0.215,0.2018,0.2889,0.442,0.5216,0.5345,0.5147,0.4677,0.4809,0.4872,0.4932,0.5216,0.5697,0.6254,0.6873]}]]